Time,TemperatureF,DewpointF,PressureIn,WindDirection,WindDirectionDegrees,WindSpeedMPH,WindSpeedGustMPH,Humidity,HourlyPrecipIn,Conditions,Clouds,dailyrainin,SolarRadiationWatts/m^2,SoftwareType,DateUTC
2013-11-16 00:00:00,46.1,41.2,30.20,West,261,0.0,0.0,83,0.00,,---,0.01,0.00,VWS V14.00,2013-11-16 05:00:00,
2013-11-16 00:01:00,46.1,41.2,30.20,West,261,0.0,1.0,83,0.00,,---,0.00,0.00,VWS V14.00,2013-11-16 05:01:00,
2013-11-16 00:02:00,46.1,41.2,30.20,West,261,0.0,1.0,83,0.00,,---,0.00,0.00,VWS V14.00,2013-11-16 05:02:00,
2013-11-16 00:03:00,46.1,41.5,30.20,West,261,0.0,1.0,84,0.00,,---,0.00,0.00,VWS V14.00,2013-11-16 05:03:00,
2013-11-16 00:04:00,46.1,41.2,30.20,West,261,0.0,1.0,83,0.00,,---,0.00,0.00,VWS V14.00,2013-11-16 05:04:00,
2013-11-16 00:05:00,46.1,41.5,30.20,West,261,0.0,1.0,84,0.00,,---,0.00,0.00,VWS V14.00,2013-11-16 05:05:00,
2013-11-16 00:06:00,46.2,41.6,30.20,West,261,0.0,1.0,84,0.00,,---,0.00,0.00,VWS V14.00,2013-11-16 05:06:00,
2013-11-16 00:07:00,46.2,41.6,30.20,West,261,0.0,1.0,84,0.00,,---,0.00,0.00,VWS V14.00,2013-11-16 05:07:00,
2013-11-16 00:08:00,46.2,41.6,30.20,West,261,0.0,1.0,84,0.00,,---,0.00,0.00,VWS V14.00,2013-11-16 05:08:00,
2013-11-16 00:09:00,46.2,41.6,30.20,West,261,0.0,1.0,84,0.00,,---,0.00,0.00,VWS V14.00,2013-11-16 05:09:00,
2013-11-16 00:10:00,46.2,41.6,30.20,West,261,0.0,1.0,84,0.00,,---,0.00,0.00,VWS V14.00,2013-11-16 05:10:00,
2013-11-16 00:11:00,46.2,41.6,30.20,West,261,0.0,1.0,84,0.00,,---,0.00,0.00,VWS V14.00,2013-11-16 05:11:00,
2013-11-16 00:12:00,46.3,41.7,30.20,West,261,0.0,1.0,84,0.00,,---,0.00,0.00,VWS V14.00,2013-11-16 05:12:00,
2013-11-16 00:13:00,46.3,41.7,30.20,West,261,2.0,2.0,84,0.00,,---,0.00,0.00,VWS V14.00,2013-11-16 05:13:00,
2013-11-16 00:14:00,46.3,41.7,30.20,West,261,0.0,2.0,84,0.00,,---,0.00,0.00,VWS V14.00,2013-11-16 05:14:00,
2013-11-16 00:15:00,46.4,41.8,30.20,West,261,0.0,2.0,84,0.00,,---,0.00,0.00,VWS V14.00,2013-11-16 05:15:00,
2013-11-16 00:16:00,46.4,41.8,30.20,West,261,0.0,2.0,84,0.00,,---,0.00,0.00,VWS V14.00,2013-11-16 05:16:00,
2013-11-16 00:17:00,46.4,41.8,30.20,West,261,0.0,2.0,84,0.00,,---,0.00,0.00,VWS V14.00,2013-11-16 05:17:00,
2013-11-16 00:18:00,46.4,41.8,30.20,West,261,0.0,2.0,84,0.00,,---,0.00,0.00,VWS V14.00,2013-11-16 05:18:00,
2013-11-16 00:19:00,46.5,41.9,30.20,West,261,0.0,2.0,84,0.00,,---,0.00,0.00,VWS V14.00,2013-11-16 05:19:00,
2013-11-16 00:20:00,46.5,41.9,30.20,West,261,0.0,2.0,84,0.00,,---,0.00,0.00,VWS V14.00,2013-11-16 05:20:00,
2013-11-16 00:21:00,46.5,41.6,30.20,West,261,0.0,2.0,83,0.00,,---,0.00,0.00,VWS V14.00,2013-11-16 05:21:00,
2013-11-16 00:22:00,46.6,42.0,30.20,West,261,0.0,2.0,84,0.00,,---,0.00,0.00,VWS V14.00,2013-11-16 05:22:00,
2013-11-16 00:23:00,46.6,42.0,30.20,West,261,0.0,2.0,84,0.00,,---,0.00,0.00,VWS V14.00,2013-11-16 05:23:00,
2013-11-16 00:24:00,46.7,41.8,30.20,WSW,257,0.0,2.0,83,0.00,,---,0.00,0.00,VWS V14.00,2013-11-16 05:24:00,
2013-11-16 00:25:00,46.7,41.8,30.20,WSW,257,0.0,2.0,83,0.00,,---,0.00,0.00,VWS V14.00,2013-11-16 05:25:00,
2013-11-16 00:26:00,46.7,41.8,30.20,WSW,257,0.0,2.0,83,0.00,,---,0.00,0.00,VWS V14.00,2013-11-16 05:26:00,
2013-11-16 00:27:00,46.8,41.9,30.20,WSW,257,0.0,2.0,83,0.00,,---,0.00,0.00,VWS V14.00,2013-11-16 05:27:00,
2013-11-16 00:28:00,46.9,42.0,30.20,WSW,257,2.0,3.0,83,0.00,,---,0.00,0.00,VWS V14.00,2013-11-16 05:28:00,
2013-11-16 00:29:00,46.9,42.0,30.20,West,263,3.0,4.0,83,0.00,,---,0.00,0.00,VWS V14.00,2013-11-16 05:29:00,
2013-11-16 00:30:00,47.0,42.1,30.20,West,263,1.0,4.0,83,0.00,,---,0.00,0.00,VWS V14.00,2013-11-16 05:30:00,
2013-11-16 00:31:00,47.0,42.1,30.20,West,263,0.0,1.0,83,0.00,,---,0.00,0.00,VWS V14.00,2013-11-16 05:31:00,
2013-11-16 00:32:00,47.1,42.2,30.20,West,263,0.0,1.0,83,0.00,,---,0.00,0.00,VWS V14.00,2013-11-16 05:32:00,
2013-11-16 00:33:00,47.1,41.9,30.20,West,265,2.0,3.0,82,0.00,,---,0.00,0.00,VWS V14.00,2013-11-16 05:33:00,
2013-11-16 00:34:00,47.2,42.0,30.20,West,261,3.0,4.0,82,0.00,,---,0.00,0.00,VWS V14.00,2013-11-16 05:34:00,
2013-11-16 00:35:00,47.2,42.0,30.20,West,260,0.0,4.0,82,0.00,,---,0.00,0.00,VWS V14.00,2013-11-16 05:35:00,
2013-11-16 00:36:00,47.3,42.1,30.20,West,261,1.0,4.0,82,0.00,,---,0.00,0.00,VWS V14.00,2013-11-16 05:36:00,
2013-11-16 00:37:00,47.3,42.1,30.20,West,261,0.0,4.0,82,0.00,,---,0.00,0.00,VWS V14.00,2013-11-16 05:37:00,
2013-11-16 00:38:00,47.4,42.2,30.20,West,261,0.0,4.0,82,0.00,,---,0.00,0.00,VWS V14.00,2013-11-16 05:38:00,
2013-11-16 00:39:00,47.4,42.2,30.20,West,261,0.0,4.0,82,0.00,,---,0.00,0.00,VWS V14.00,2013-11-16 05:39:00,
2013-11-16 00:40:00,47.4,42.2,30.20,West,261,0.0,4.0,82,0.00,,---,0.00,0.00,VWS V14.00,2013-11-16 05:40:00,
2013-11-16 00:41:00,47.4,42.2,30.20,West,261,0.0,4.0,82,0.00,,---,0.00,0.00,VWS V14.00,2013-11-16 05:41:00,
2013-11-16 00:42:00,47.4,42.2,30.20,West,261,0.0,4.0,82,0.00,,---,0.00,0.00,VWS V14.00,2013-11-16 05:42:00,
2013-11-16 00:43:00,47.4,42.2,30.20,West,261,0.0,4.0,82,0.00,,---,0.00,0.00,VWS V14.00,2013-11-16 05:43:00,
2013-11-16 00:44:00,47.4,42.2,30.20,West,261,1.0,4.0,82,0.00,,---,0.00,0.00,VWS V14.00,2013-11-16 05:44:00,
2013-11-16 00:45:00,47.4,42.2,30.20,West,259,0.0,4.0,82,0.00,,---,0.00,0.00,VWS V14.00,2013-11-16 05:45:00,
2013-11-16 00:46:00,47.4,42.2,30.20,West,259,0.0,4.0,82,0.00,,---,0.00,0.00,VWS V14.00,2013-11-16 05:46:00,
2013-11-16 00:47:00,47.4,42.2,30.20,WSW,258,0.0,4.0,82,0.00,,---,0.00,0.00,VWS V14.00,2013-11-16 05:47:00,
2013-11-16 00:48:00,47.4,42.2,30.20,WSW,258,0.0,4.0,82,0.00,,---,0.00,0.00,VWS V14.00,2013-11-16 05:48:00,
2013-11-16 00:49:00,47.4,42.2,30.19,WSW,258,0.0,4.0,82,0.00,,---,0.00,0.00,VWS V14.00,2013-11-16 05:49:00,
2013-11-16 00:50:00,47.4,42.2,30.19,WSW,258,0.0,4.0,82,0.00,,---,0.00,0.00,VWS V14.00,2013-11-16 05:50:00,
2013-11-16 00:51:00,47.4,42.2,30.20,WSW,258,0.0,4.0,82,0.00,,---,0.00,0.00,VWS V14.00,2013-11-16 05:51:00,
2013-11-16 00:52:00,47.4,42.2,30.20,WSW,258,0.0,4.0,82,0.00,,---,0.00,0.00,VWS V14.00,2013-11-16 05:52:00,
2013-11-16 00:53:00,47.3,42.1,30.20,West,259,1.0,4.0,82,0.00,,---,0.00,0.00,VWS V14.00,2013-11-16 05:53:00,
2013-11-16 00:54:00,47.3,42.1,30.20,WSW,258,1.0,4.0,82,0.00,,---,0.00,0.00,VWS V14.00,2013-11-16 05:54:00,
2013-11-16 00:55:00,47.3,42.1,30.20,West,259,0.0,4.0,82,0.00,,---,0.00,0.00,VWS V14.00,2013-11-16 05:55:00,
2013-11-16 00:56:00,47.3,42.1,30.20,West,259,0.0,4.0,82,0.00,,---,0.00,0.00,VWS V14.00,2013-11-16 05:56:00,
2013-11-16 00:57:00,47.3,42.1,30.20,WSW,258,0.0,4.0,82,0.00,,---,0.00,0.00,VWS V14.00,2013-11-16 05:57:00,
2013-11-16 00:58:00,47.3,42.1,30.20,West,259,0.0,4.0,82,0.00,,---,0.00,0.00,VWS V14.00,2013-11-16 05:58:00,
2013-11-16 00:59:00,47.3,42.1,30.20,West,259,0.0,4.0,82,0.00,,---,0.00,0.00,VWS V14.00,2013-11-16 05:59:00,
2013-11-16 01:00:00,47.3,42.1,30.20,West,259,0.0,4.0,82,0.00,,---,0.00,0.00,VWS V14.00,2013-11-16 06:00:00,
2013-11-16 01:01:00,47.3,42.1,30.19,West,259,0.0,0.0,82,0.00,,---,0.00,0.00,VWS V14.00,2013-11-16 06:01:00,
2013-11-16 01:02:00,47.3,42.4,30.19,West,259,0.0,0.0,83,0.00,,---,0.00,0.00,VWS V14.00,2013-11-16 06:02:00,
2013-11-16 01:03:00,47.3,42.1,30.19,WSW,258,0.0,0.0,82,0.00,,---,0.00,0.00,VWS V14.00,2013-11-16 06:03:00,
2013-11-16 01:04:00,47.3,42.1,30.19,West,259,0.0,0.0,82,0.00,,---,0.00,0.00,VWS V14.00,2013-11-16 06:04:00,
2013-11-16 01:05:00,47.2,42.0,30.20,West,259,0.0,2.0,82,0.00,,---,0.00,0.00,VWS V14.00,2013-11-16 06:05:00,
2013-11-16 01:06:00,47.2,42.0,30.19,West,259,0.0,2.0,82,0.00,,---,0.00,0.00,VWS V14.00,2013-11-16 06:06:00,
2013-11-16 01:07:00,47.2,42.0,30.19,West,259,0.0,2.0,82,0.00,,---,0.00,0.00,VWS V14.00,2013-11-16 06:07:00,
2013-11-16 01:08:00,47.2,42.0,30.19,WSW,250,0.0,2.0,82,0.00,,---,0.00,0.00,VWS V14.00,2013-11-16 06:08:00,
2013-11-16 01:09:00,47.2,42.0,30.19,WSW,250,0.0,2.0,82,0.00,,---,0.00,0.00,VWS V14.00,2013-11-16 06:09:00,
2013-11-16 01:10:00,47.2,42.0,30.19,WSW,250,0.0,2.0,82,0.00,,---,0.00,0.00,VWS V14.00,2013-11-16 06:10:00,
2013-11-16 01:11:00,47.2,42.0,30.19,WSW,250,0.0,2.0,82,0.00,,---,0.00,0.00,VWS V14.00,2013-11-16 06:11:00,
2013-11-16 01:12:00,47.2,42.0,30.19,WSW,250,0.0,2.0,82,0.00,,---,0.00,0.00,VWS V14.00,2013-11-16 06:12:00,
2013-11-16 01:13:00,47.2,42.0,30.19,WSW,248,0.0,4.0,82,0.00,,---,0.00,0.00,VWS V14.00,2013-11-16 06:13:00,
2013-11-16 01:14:00,47.2,42.0,30.19,WSW,246,3.0,4.0,82,0.00,,---,0.00,0.00,VWS V14.00,2013-11-16 06:14:00,
2013-11-16 01:15:00,47.3,42.1,30.19,WSW,246,0.0,4.0,82,0.00,,---,0.00,0.00,VWS V14.00,2013-11-16 06:15:00,
2013-11-16 01:16:00,47.3,42.1,30.19,WSW,246,0.0,4.0,82,0.00,,---,0.00,0.00,VWS V14.00,2013-11-16 06:16:00,
2013-11-16 01:17:00,47.3,42.1,30.19,WSW,246,0.0,4.0,82,0.00,,---,0.00,0.00,VWS V14.00,2013-11-16 06:17:00,
2013-11-16 01:18:00,47.3,42.4,30.19,WSW,246,0.0,4.0,83,0.00,,---,0.00,0.00,VWS V14.00,2013-11-16 06:18:00,
2013-11-16 01:19:00,47.4,42.2,30.19,WSW,239,2.0,4.0,82,0.00,,---,0.00,0.00,VWS V14.00,2013-11-16 06:19:00,
2013-11-16 01:20:00,47.4,42.2,30.19,SSW,204,0.0,4.0,82,0.00,,---,0.00,0.00,VWS V14.00,2013-11-16 06:20:00,
2013-11-16 01:21:00,47.4,42.2,30.19,SSW,204,0.0,4.0,82,0.00,,---,0.00,0.00,VWS V14.00,2013-11-16 06:21:00,
2013-11-16 01:22:00,47.4,42.2,30.19,SSW,204,0.0,4.0,82,0.00,,---,0.00,0.00,VWS V14.00,2013-11-16 06:22:00,
2013-11-16 01:23:00,47.4,42.2,30.19,SSW,204,0.0,4.0,82,0.00,,---,0.00,0.00,VWS V14.00,2013-11-16 06:23:00,
2013-11-16 01:24:00,47.4,42.2,30.19,SSW,204,0.0,4.0,82,0.00,,---,0.00,0.00,VWS V14.00,2013-11-16 06:24:00,
2013-11-16 01:25:00,47.4,42.2,30.19,SSW,204,0.0,4.0,82,0.00,,---,0.00,0.00,VWS V14.00,2013-11-16 06:25:00,
2013-11-16 01:26:00,47.4,42.2,30.19,SSW,204,0.0,4.0,82,0.00,,---,0.00,0.00,VWS V14.00,2013-11-16 06:26:00,
2013-11-16 01:27:00,47.4,42.5,30.19,SSW,204,0.0,4.0,83,0.00,,---,0.00,0.00,VWS V14.00,2013-11-16 06:27:00,
2013-11-16 01:28:00,47.4,42.5,30.19,SSW,204,0.0,4.0,83,0.00,,---,0.00,0.00,VWS V14.00,2013-11-16 06:28:00,
2013-11-16 01:29:00,47.4,42.5,30.19,SSW,204,0.0,4.0,83,0.00,,---,0.00,0.00,VWS V14.00,2013-11-16 06:29:00,
2013-11-16 01:30:00,47.4,42.5,30.18,SSW,204,0.0,4.0,83,0.00,,---,0.00,0.00,VWS V14.00,2013-11-16 06:30:00,
2013-11-16 01:31:00,47.4,42.5,30.19,SSW,204,0.0,0.0,83,0.00,,---,0.00,0.00,VWS V14.00,2013-11-16 06:31:00,
2013-11-16 01:32:00,47.4,42.5,30.19,SSW,204,0.0,0.0,83,0.00,,---,0.00,0.00,VWS V14.00,2013-11-16 06:32:00,
2013-11-16 01:33:00,47.3,42.4,30.18,SSW,204,0.0,0.0,83,0.00,,---,0.00,0.00,VWS V14.00,2013-11-16 06:33:00,
2013-11-16 01:34:00,47.3,42.4,30.18,SSW,204,0.0,0.0,83,0.00,,---,0.00,0.00,VWS V14.00,2013-11-16 06:34:00,
2013-11-16 01:35:00,47.3,42.4,30.18,SSW,204,0.0,0.0,83,0.00,,---,0.00,0.00,VWS V14.00,2013-11-16 06:35:00,
2013-11-16 01:36:00,47.3,42.4,30.18,SSW,204,0.0,0.0,83,0.00,,---,0.00,0.00,VWS V14.00,2013-11-16 06:36:00,
2013-11-16 01:37:00,47.3,42.4,30.18,SSW,204,0.0,0.0,83,0.00,,---,0.00,0.00,VWS V14.00,2013-11-16 06:37:00,
2013-11-16 01:38:00,47.3,42.4,30.18,SSW,204,0.0,0.0,83,0.00,,---,0.00,0.00,VWS V14.00,2013-11-16 06:38:00,
2013-11-16 01:39:00,47.3,42.4,30.18,SSW,204,0.0,1.0,83,0.00,,---,0.00,0.00,VWS V14.00,2013-11-16 06:39:00,
2013-11-16 01:40:00,47.3,42.4,30.18,SSW,204,0.0,1.0,83,0.00,,---,0.00,0.00,VWS V14.00,2013-11-16 06:40:00,
2013-11-16 01:41:00,47.3,42.4,30.18,SSW,204,1.0,1.0,83,0.00,,---,0.00,0.00,VWS V14.00,2013-11-16 06:41:00,
2013-11-16 01:42:00,47.3,42.4,30.18,SSW,204,2.0,2.0,83,0.00,,---,0.00,0.00,VWS V14.00,2013-11-16 06:42:00,
2013-11-16 01:43:00,47.3,42.4,30.18,SSW,210,1.0,3.0,83,0.00,,---,0.00,0.00,VWS V14.00,2013-11-16 06:43:00,
2013-11-16 01:44:00,47.3,42.4,30.18,SSW,212,1.0,3.0,83,0.00,,---,0.00,0.00,VWS V14.00,2013-11-16 06:44:00,
2013-11-16 01:45:00,47.3,42.4,30.18,SSW,212,0.0,3.0,83,0.00,,---,0.00,0.00,VWS V14.00,2013-11-16 06:45:00,
2013-11-16 01:46:00,47.4,42.5,30.18,SSW,212,0.0,3.0,83,0.00,,---,0.00,0.00,VWS V14.00,2013-11-16 06:46:00,
2013-11-16 01:47:00,47.4,42.5,30.18,SW,220,3.0,4.0,83,0.00,,---,0.00,0.00,VWS V14.00,2013-11-16 06:47:00,
2013-11-16 01:48:00,47.4,42.5,30.18,SW,228,1.0,4.0,83,0.00,,---,0.00,0.00,VWS V14.00,2013-11-16 06:48:00,
2013-11-16 01:49:00,47.5,42.6,30.19,SW,228,3.0,4.0,83,0.00,,---,0.00,0.00,VWS V14.00,2013-11-16 06:49:00,
2013-11-16 01:50:00,47.5,42.6,30.19,SW,229,1.0,4.0,83,0.00,,---,0.00,0.00,VWS V14.00,2013-11-16 06:50:00,
2013-11-16 01:51:00,47.6,42.7,30.18,WSW,240,4.0,4.0,83,0.00,,---,0.00,0.00,VWS V14.00,2013-11-16 06:51:00,
2013-11-16 01:52:00,47.6,42.7,30.18,WSW,240,0.0,4.0,83,0.00,,---,0.00,0.00,VWS V14.00,2013-11-16 06:52:00,
2013-11-16 01:53:00,47.6,42.7,30.18,WSW,240,0.0,4.0,83,0.00,,---,0.00,0.00,VWS V14.00,2013-11-16 06:53:00,
2013-11-16 01:54:00,47.6,42.7,30.18,WSW,240,0.0,4.0,83,0.00,,---,0.00,0.00,VWS V14.00,2013-11-16 06:54:00,
2013-11-16 01:55:00,47.6,42.7,30.18,WSW,240,0.0,4.0,83,0.00,,---,0.00,0.00,VWS V14.00,2013-11-16 06:55:00,
2013-11-16 01:56:00,47.6,42.7,30.18,WSW,240,1.0,4.0,83,0.00,,---,0.00,0.00,VWS V14.00,2013-11-16 06:56:00,
2013-11-16 01:57:00,47.6,42.7,30.18,WSW,240,0.0,4.0,83,0.00,,---,0.00,0.00,VWS V14.00,2013-11-16 06:57:00,
2013-11-16 01:58:00,47.6,42.7,30.18,WSW,240,0.0,4.0,83,0.00,,---,0.00,0.00,VWS V14.00,2013-11-16 06:58:00,
2013-11-16 01:59:00,47.6,42.7,30.18,WSW,240,0.0,4.0,83,0.00,,---,0.00,0.00,VWS V14.00,2013-11-16 06:59:00,
2013-11-16 02:00:00,47.6,42.7,30.18,WSW,240,0.0,4.0,83,0.00,,---,0.00,0.00,VWS V14.00,2013-11-16 07:00:00,
2013-11-16 02:01:00,47.6,42.7,30.18,WSW,240,0.0,0.0,83,0.00,,---,0.00,0.00,VWS V14.00,2013-11-16 07:01:00,
2013-11-16 02:02:00,47.6,42.7,30.18,WSW,240,0.0,0.0,83,0.00,,---,0.00,0.00,VWS V14.00,2013-11-16 07:02:00,
2013-11-16 02:03:00,47.6,42.7,30.18,WSW,240,0.0,0.0,83,0.00,,---,0.00,0.00,VWS V14.00,2013-11-16 07:03:00,
2013-11-16 02:04:00,47.6,42.7,30.18,WSW,240,0.0,0.0,83,0.00,,---,0.00,0.00,VWS V14.00,2013-11-16 07:04:00,
2013-11-16 02:05:00,47.6,42.7,30.18,WSW,240,0.0,0.0,83,0.00,,---,0.00,0.00,VWS V14.00,2013-11-16 07:05:00,
2013-11-16 02:06:00,47.6,42.7,30.18,WSW,240,0.0,0.0,83,0.00,,---,0.00,0.00,VWS V14.00,2013-11-16 07:06:00,
2013-11-16 02:07:00,47.6,42.7,30.18,WSW,240,0.0,0.0,83,0.00,,---,0.00,0.00,VWS V14.00,2013-11-16 07:07:00,
2013-11-16 02:08:00,47.6,42.7,30.18,WSW,240,0.0,0.0,83,0.00,,---,0.00,0.00,VWS V14.00,2013-11-16 07:08:00,
2013-11-16 02:09:00,47.6,42.7,30.18,WSW,240,0.0,0.0,83,0.00,,---,0.00,0.00,VWS V14.00,2013-11-16 07:09:00,
2013-11-16 02:10:00,47.6,42.7,30.18,WSW,240,0.0,0.0,83,0.00,,---,0.00,0.00,VWS V14.00,2013-11-16 07:10:00,
2013-11-16 02:11:00,47.5,42.6,30.18,WSW,240,0.0,0.0,83,0.00,,---,0.00,0.00,VWS V14.00,2013-11-16 07:11:00,
2013-11-16 02:12:00,47.6,42.7,30.18,WSW,240,0.0,0.0,83,0.00,,---,0.00,0.00,VWS V14.00,2013-11-16 07:12:00,
2013-11-16 02:13:00,47.5,42.6,30.18,WSW,240,0.0,0.0,83,0.00,,---,0.00,0.00,VWS V14.00,2013-11-16 07:13:00,
2013-11-16 02:14:00,47.5,42.6,30.18,WSW,240,0.0,0.0,83,0.00,,---,0.00,0.00,VWS V14.00,2013-11-16 07:14:00,
2013-11-16 02:15:00,47.5,42.6,30.18,WSW,240,0.0,0.0,83,0.00,,---,0.00,0.00,VWS V14.00,2013-11-16 07:15:00,
2013-11-16 02:16:00,47.5,42.6,30.18,WSW,240,0.0,0.0,83,0.00,,---,0.00,0.00,VWS V14.00,2013-11-16 07:16:00,
2013-11-16 02:17:00,47.5,42.6,30.18,WSW,240,0.0,0.0,83,0.00,,---,0.00,0.00,VWS V14.00,2013-11-16 07:17:00,
2013-11-16 02:18:00,47.5,42.6,30.18,WSW,240,0.0,0.0,83,0.00,,---,0.00,0.00,VWS V14.00,2013-11-16 07:18:00,
2013-11-16 02:19:00,47.5,42.6,30.18,WSW,240,0.0,0.0,83,0.00,,---,0.00,0.00,VWS V14.00,2013-11-16 07:19:00,
2013-11-16 02:20:00,47.4,42.5,30.19,WSW,240,0.0,0.0,83,0.00,,---,0.00,0.00,VWS V14.00,2013-11-16 07:20:00,
2013-11-16 02:21:00,47.4,42.5,30.19,WSW,240,0.0,0.0,83,0.00,,---,0.00,0.00,VWS V14.00,2013-11-16 07:21:00,
2013-11-16 02:22:00,47.4,42.5,30.18,WSW,240,0.0,0.0,83,0.00,,---,0.00,0.00,VWS V14.00,2013-11-16 07:22:00,
2013-11-16 02:23:00,47.3,42.4,30.18,WSW,240,0.0,0.0,83,0.00,,---,0.00,0.00,VWS V14.00,2013-11-16 07:23:00,
2013-11-16 02:24:00,47.3,42.4,30.18,WSW,240,0.0,0.0,83,0.00,,---,0.00,0.00,VWS V14.00,2013-11-16 07:24:00,
2013-11-16 02:25:00,47.2,42.3,30.18,WSW,240,0.0,0.0,83,0.00,,---,0.00,0.00,VWS V14.00,2013-11-16 07:25:00,
2013-11-16 02:26:00,47.2,42.3,30.18,WSW,240,0.0,0.0,83,0.00,,---,0.00,0.00,VWS V14.00,2013-11-16 07:26:00,
2013-11-16 02:27:00,47.2,42.3,30.18,WSW,240,0.0,0.0,83,0.00,,---,0.00,0.00,VWS V14.00,2013-11-16 07:27:00,
2013-11-16 02:28:00,47.2,42.3,30.18,WSW,240,0.0,0.0,83,0.00,,---,0.00,0.00,VWS V14.00,2013-11-16 07:28:00,
2013-11-16 02:29:00,47.1,42.2,30.18,WSW,240,0.0,0.0,83,0.00,,---,0.00,0.00,VWS V14.00,2013-11-16 07:29:00,
2013-11-16 02:30:00,47.1,42.2,30.18,WSW,240,0.0,0.0,83,0.00,,---,0.00,0.00,VWS V14.00,2013-11-16 07:30:00,
2013-11-16 02:31:00,47.0,42.1,30.19,WSW,240,0.0,0.0,83,0.00,,---,0.00,0.00,VWS V14.00,2013-11-16 07:31:00,
2013-11-16 02:32:00,47.0,42.1,30.18,WSW,240,0.0,0.0,83,0.00,,---,0.00,0.00,VWS V14.00,2013-11-16 07:32:00,
2013-11-16 02:33:00,47.0,42.1,30.18,WSW,240,0.0,0.0,83,0.00,,---,0.00,0.00,VWS V14.00,2013-11-16 07:33:00,
2013-11-16 02:34:00,46.9,42.0,30.18,WSW,240,0.0,0.0,83,0.00,,---,0.00,0.00,VWS V14.00,2013-11-16 07:34:00,
2013-11-16 02:35:00,46.9,42.0,30.18,WSW,240,0.0,0.0,83,0.00,,---,0.00,0.00,VWS V14.00,2013-11-16 07:35:00,
2013-11-16 02:36:00,46.9,42.0,30.18,WSW,240,0.0,0.0,83,0.00,,---,0.00,0.00,VWS V14.00,2013-11-16 07:36:00,
2013-11-16 02:37:00,46.9,42.3,30.18,WSW,240,0.0,0.0,84,0.00,,---,0.00,0.00,VWS V14.00,2013-11-16 07:37:00,
2013-11-16 02:38:00,46.8,42.2,30.18,WSW,240,0.0,0.0,84,0.00,,---,0.00,0.00,VWS V14.00,2013-11-16 07:38:00,
2013-11-16 02:39:00,46.7,42.1,30.18,WSW,240,0.0,0.0,84,0.00,,---,0.00,0.00,VWS V14.00,2013-11-16 07:39:00,
2013-11-16 02:40:00,46.7,42.1,30.18,WSW,240,0.0,0.0,84,0.00,,---,0.00,0.00,VWS V14.00,2013-11-16 07:40:00,
2013-11-16 02:41:00,46.7,42.1,30.18,WSW,240,0.0,0.0,84,0.00,,---,0.00,0.00,VWS V14.00,2013-11-16 07:41:00,
2013-11-16 02:42:00,46.6,42.0,30.18,WSW,240,0.0,0.0,84,0.00,,---,0.00,0.00,VWS V14.00,2013-11-16 07:42:00,
2013-11-16 02:43:00,46.5,41.9,30.18,WSW,240,0.0,0.0,84,0.00,,---,0.00,0.00,VWS V14.00,2013-11-16 07:43:00,
2013-11-16 02:44:00,46.5,41.9,30.18,WSW,240,0.0,0.0,84,0.00,,---,0.00,0.00,VWS V14.00,2013-11-16 07:44:00,
2013-11-16 02:45:00,46.4,41.8,30.18,WSW,240,0.0,0.0,84,0.00,,---,0.00,0.00,VWS V14.00,2013-11-16 07:45:00,
2013-11-16 02:46:00,46.4,41.8,30.18,WSW,240,0.0,0.0,84,0.00,,---,0.00,0.00,VWS V14.00,2013-11-16 07:46:00,
2013-11-16 02:47:00,46.3,41.7,30.18,WSW,240,0.0,0.0,84,0.00,,---,0.00,0.00,VWS V14.00,2013-11-16 07:47:00,
2013-11-16 02:48:00,46.2,41.6,30.18,WSW,240,0.0,0.0,84,0.00,,---,0.00,0.00,VWS V14.00,2013-11-16 07:48:00,
2013-11-16 02:49:00,46.2,41.6,30.18,WSW,240,0.0,0.0,84,0.00,,---,0.00,0.00,VWS V14.00,2013-11-16 07:49:00,
2013-11-16 02:50:00,46.1,41.5,30.18,WSW,240,0.0,0.0,84,0.00,,---,0.00,0.00,VWS V14.00,2013-11-16 07:50:00,
2013-11-16 02:51:00,46.1,41.5,30.18,WSW,240,0.0,0.0,84,0.00,,---,0.00,0.00,VWS V14.00,2013-11-16 07:51:00,
2013-11-16 02:52:00,46.0,41.4,30.18,WSW,240,0.0,0.0,84,0.00,,---,0.00,0.00,VWS V14.00,2013-11-16 07:52:00,
2013-11-16 02:53:00,45.9,41.3,30.18,WSW,240,0.0,0.0,84,0.00,,---,0.00,0.00,VWS V14.00,2013-11-16 07:53:00,
2013-11-16 02:54:00,45.8,41.2,30.17,WSW,240,0.0,0.0,84,0.00,,---,0.00,0.00,VWS V14.00,2013-11-16 07:54:00,
2013-11-16 02:55:00,45.7,41.2,30.17,WSW,240,0.0,0.0,84,0.00,,---,0.00,0.00,VWS V14.00,2013-11-16 07:55:00,
2013-11-16 02:56:00,45.7,41.2,30.17,WSW,240,0.0,0.0,84,0.00,,---,0.00,0.00,VWS V14.00,2013-11-16 07:56:00,
2013-11-16 02:57:00,45.6,41.0,30.17,WSW,240,0.0,0.0,84,0.00,,---,0.00,0.00,VWS V14.00,2013-11-16 07:57:00,
2013-11-16 02:58:00,45.5,41.3,30.17,WSW,240,0.0,0.0,85,0.00,,---,0.00,0.00,VWS V14.00,2013-11-16 07:58:00,
2013-11-16 02:59:00,45.4,41.2,30.17,WSW,240,0.0,0.0,85,0.00,,---,0.00,0.00,VWS V14.00,2013-11-16 07:59:00,
2013-11-16 03:00:00,45.3,41.1,30.17,WSW,240,0.0,0.0,85,0.00,,---,0.00,0.00,VWS V14.00,2013-11-16 08:00:00,
2013-11-16 03:01:00,45.2,41.0,30.17,WSW,240,0.0,0.0,85,0.00,,---,0.00,0.00,VWS V14.00,2013-11-16 08:01:00,
2013-11-16 03:02:00,45.2,41.0,30.17,WSW,240,0.0,0.0,85,0.00,,---,0.00,0.00,VWS V14.00,2013-11-16 08:02:00,
2013-11-16 03:03:00,45.1,41.2,30.17,WSW,240,0.0,0.0,86,0.00,,---,0.00,0.00,VWS V14.00,2013-11-16 08:03:00,
2013-11-16 03:04:00,45.0,41.1,30.17,WSW,240,0.0,0.0,86,0.00,,---,0.00,0.00,VWS V14.00,2013-11-16 08:04:00,
2013-11-16 03:05:00,44.9,41.0,30.17,WSW,240,0.0,0.0,86,0.00,,---,0.00,0.00,VWS V14.00,2013-11-16 08:05:00,
2013-11-16 03:06:00,44.9,41.0,30.17,WSW,240,0.0,0.0,86,0.00,,---,0.00,0.00,VWS V14.00,2013-11-16 08:06:00,
2013-11-16 03:07:00,44.8,40.9,30.17,WSW,240,0.0,0.0,86,0.00,,---,0.00,0.00,VWS V14.00,2013-11-16 08:07:00,
2013-11-16 03:08:00,44.7,40.8,30.17,WSW,240,0.0,0.0,86,0.00,,---,0.00,0.00,VWS V14.00,2013-11-16 08:08:00,
2013-11-16 03:09:00,44.7,40.8,30.17,WSW,240,0.0,0.0,86,0.00,,---,0.00,0.00,VWS V14.00,2013-11-16 08:09:00,
2013-11-16 03:10:00,44.5,40.6,30.17,WSW,240,0.0,0.0,86,0.00,,---,0.00,0.00,VWS V14.00,2013-11-16 08:10:00,
2013-11-16 03:11:00,44.5,40.9,30.17,WSW,240,0.0,0.0,87,0.00,,---,0.00,0.00,VWS V14.00,2013-11-16 08:11:00,
2013-11-16 03:12:00,44.4,40.8,30.17,WSW,240,0.0,0.0,87,0.00,,---,0.00,0.00,VWS V14.00,2013-11-16 08:12:00,
2013-11-16 03:13:00,44.4,40.8,30.17,WSW,240,0.0,0.0,87,0.00,,---,0.00,0.00,VWS V14.00,2013-11-16 08:13:00,
2013-11-16 03:14:00,44.3,40.7,30.17,WSW,240,0.0,0.0,87,0.00,,---,0.00,0.00,VWS V14.00,2013-11-16 08:14:00,
2013-11-16 03:15:00,44.3,41.0,30.17,WSW,240,0.0,0.0,88,0.00,,---,0.00,0.00,VWS V14.00,2013-11-16 08:15:00,
2013-11-16 03:16:00,44.2,40.9,30.17,WSW,240,0.0,0.0,88,0.00,,---,0.00,0.00,VWS V14.00,2013-11-16 08:16:00,
2013-11-16 03:17:00,44.2,40.9,30.17,WSW,240,0.0,0.0,88,0.00,,---,0.00,0.00,VWS V14.00,2013-11-16 08:17:00,
2013-11-16 03:18:00,44.1,40.8,30.17,WSW,240,0.0,0.0,88,0.00,,---,0.00,0.00,VWS V14.00,2013-11-16 08:18:00,
2013-11-16 03:19:00,44.0,40.7,30.17,WSW,240,0.0,0.0,88,0.00,,---,0.00,0.00,VWS V14.00,2013-11-16 08:19:00,
2013-11-16 03:20:00,43.9,40.6,30.17,WSW,240,0.0,0.0,88,0.00,,---,0.00,0.00,VWS V14.00,2013-11-16 08:20:00,
2013-11-16 03:21:00,43.8,40.5,30.17,WSW,240,0.0,0.0,88,0.00,,---,0.00,0.00,VWS V14.00,2013-11-16 08:21:00,
2013-11-16 03:22:00,43.7,40.4,30.17,WSW,240,0.0,0.0,88,0.00,,---,0.00,0.00,VWS V14.00,2013-11-16 08:22:00,
2013-11-16 03:23:00,43.7,40.4,30.17,WSW,240,0.0,0.0,88,0.00,,---,0.00,0.00,VWS V14.00,2013-11-16 08:23:00,
2013-11-16 03:24:00,43.6,40.3,30.17,WSW,240,0.0,0.0,88,0.00,,---,0.00,0.00,VWS V14.00,2013-11-16 08:24:00,
2013-11-16 03:25:00,43.6,40.3,30.17,WSW,240,0.0,0.0,88,0.00,,---,0.00,0.00,VWS V14.00,2013-11-16 08:25:00,
2013-11-16 03:26:00,43.5,40.2,30.17,WSW,240,0.0,0.0,88,0.00,,---,0.00,0.00,VWS V14.00,2013-11-16 08:26:00,
2013-11-16 03:27:00,43.4,40.4,30.17,WSW,240,0.0,0.0,89,0.00,,---,0.00,0.00,VWS V14.00,2013-11-16 08:27:00,
2013-11-16 03:28:00,43.4,40.4,30.17,WSW,240,0.0,0.0,89,0.00,,---,0.00,0.00,VWS V14.00,2013-11-16 08:28:00,
2013-11-16 03:29:00,43.3,40.0,30.17,WSW,240,0.0,0.0,88,0.00,,---,0.00,0.00,VWS V14.00,2013-11-16 08:29:00,
2013-11-16 03:30:00,43.3,40.3,30.17,WSW,240,0.0,0.0,89,0.00,,---,0.00,0.00,VWS V14.00,2013-11-16 08:30:00,
2013-11-16 03:31:00,43.2,40.2,30.17,WSW,240,0.0,0.0,89,0.00,,---,0.00,0.00,VWS V14.00,2013-11-16 08:31:00,
2013-11-16 03:32:00,43.1,40.1,30.17,WSW,240,0.0,0.0,89,0.00,,---,0.00,0.00,VWS V14.00,2013-11-16 08:32:00,
2013-11-16 03:33:00,43.0,40.0,30.17,WSW,240,0.0,0.0,89,0.00,,---,0.00,0.00,VWS V14.00,2013-11-16 08:33:00,
2013-11-16 03:34:00,43.0,40.0,30.17,WSW,240,0.0,0.0,89,0.00,,---,0.00,0.00,VWS V14.00,2013-11-16 08:34:00,
2013-11-16 03:35:00,42.9,40.2,30.18,WSW,240,0.0,0.0,90,0.00,,---,0.00,0.00,VWS V14.00,2013-11-16 08:35:00,
2013-11-16 03:36:00,42.9,40.2,30.18,WSW,240,0.0,0.0,90,0.00,,---,0.00,0.00,VWS V14.00,2013-11-16 08:36:00,
2013-11-16 03:37:00,42.8,39.8,30.18,WSW,240,0.0,0.0,89,0.00,,---,0.00,0.00,VWS V14.00,2013-11-16 08:37:00,
2013-11-16 03:38:00,42.7,39.7,30.18,WSW,240,0.0,0.0,89,0.00,,---,0.00,0.00,VWS V14.00,2013-11-16 08:38:00,
2013-11-16 03:39:00,42.5,39.5,30.18,WSW,240,0.0,0.0,89,0.00,,---,0.00,0.00,VWS V14.00,2013-11-16 08:39:00,
2013-11-16 03:40:00,42.5,39.5,30.18,WSW,240,0.0,0.0,89,0.00,,---,0.00,0.00,VWS V14.00,2013-11-16 08:40:00,
2013-11-16 03:41:00,42.3,39.3,30.18,WSW,240,0.0,0.0,89,0.00,,---,0.00,0.00,VWS V14.00,2013-11-16 08:41:00,
2013-11-16 03:42:00,42.2,39.2,30.18,WSW,240,0.0,0.0,89,0.00,,---,0.00,0.00,VWS V14.00,2013-11-16 08:42:00,
2013-11-16 03:43:00,42.1,39.4,30.18,WSW,240,0.0,0.0,90,0.00,,---,0.00,0.00,VWS V14.00,2013-11-16 08:43:00,
2013-11-16 03:44:00,42.0,39.3,30.18,WSW,240,0.0,0.0,90,0.00,,---,0.00,0.00,VWS V14.00,2013-11-16 08:44:00,
2013-11-16 03:45:00,41.9,39.2,30.18,WSW,240,0.0,0.0,90,0.00,,---,0.00,0.00,VWS V14.00,2013-11-16 08:45:00,
2013-11-16 03:46:00,41.9,39.2,30.18,WSW,240,0.0,0.0,90,0.00,,---,0.00,0.00,VWS V14.00,2013-11-16 08:46:00,
2013-11-16 03:47:00,41.8,39.4,30.18,WSW,240,0.0,0.0,91,0.00,,---,0.00,0.00,VWS V14.00,2013-11-16 08:47:00,
2013-11-16 03:48:00,41.8,39.4,30.18,WSW,240,0.0,0.0,91,0.00,,---,0.00,0.00,VWS V14.00,2013-11-16 08:48:00,
2013-11-16 03:49:00,41.7,39.3,30.18,WSW,240,0.0,0.0,91,0.00,,---,0.00,0.00,VWS V14.00,2013-11-16 08:49:00,
2013-11-16 03:50:00,41.7,39.3,30.18,WSW,240,0.0,0.0,91,0.00,,---,0.00,0.00,VWS V14.00,2013-11-16 08:50:00,
2013-11-16 03:51:00,41.7,39.3,30.18,WSW,240,0.0,0.0,91,0.00,,---,0.00,0.00,VWS V14.00,2013-11-16 08:51:00,
2013-11-16 03:52:00,41.7,39.3,30.18,WSW,240,0.0,0.0,91,0.00,,---,0.00,0.00,VWS V14.00,2013-11-16 08:52:00,
2013-11-16 03:53:00,41.6,39.2,30.18,WSW,240,0.0,0.0,91,0.00,,---,0.00,0.00,VWS V14.00,2013-11-16 08:53:00,
2013-11-16 03:54:00,41.6,39.2,30.18,WSW,240,0.0,0.0,91,0.00,,---,0.00,0.00,VWS V14.00,2013-11-16 08:54:00,
2013-11-16 03:55:00,41.6,39.5,30.18,WSW,240,0.0,0.0,92,0.00,,---,0.00,0.00,VWS V14.00,2013-11-16 08:55:00,
2013-11-16 03:56:00,41.6,39.5,30.18,WSW,240,0.0,0.0,92,0.00,,---,0.00,0.00,VWS V14.00,2013-11-16 08:56:00,
2013-11-16 03:57:00,41.6,39.5,30.18,WSW,242,2.0,2.0,92,0.00,,---,0.00,0.00,VWS V14.00,2013-11-16 08:57:00,
2013-11-16 03:58:00,41.6,39.5,30.18,WSW,242,0.0,2.0,92,0.00,,---,0.00,0.00,VWS V14.00,2013-11-16 08:58:00,
2013-11-16 03:59:00,41.6,39.5,30.18,WSW,243,2.0,2.0,92,0.00,,---,0.00,0.00,VWS V14.00,2013-11-16 08:59:00,
2013-11-16 04:00:00,41.6,39.5,30.18,WSW,244,2.0,3.0,92,0.00,,---,0.00,0.00,VWS V14.00,2013-11-16 09:00:00,
2013-11-16 04:01:00,41.5,39.3,30.18,WSW,244,2.0,3.0,92,0.00,,---,0.00,0.00,VWS V14.00,2013-11-16 09:01:00,
2013-11-16 04:02:00,41.6,39.7,30.18,WSW,244,2.0,3.0,93,0.00,,---,0.00,0.00,VWS V14.00,2013-11-16 09:02:00,
2013-11-16 04:03:00,41.6,39.5,30.18,WSW,244,0.0,3.0,92,0.00,,---,0.00,0.00,VWS V14.00,2013-11-16 09:03:00,
2013-11-16 04:04:00,41.6,39.5,30.18,WSW,244,0.0,3.0,92,0.00,,---,0.00,0.00,VWS V14.00,2013-11-16 09:04:00,
2013-11-16 04:05:00,41.6,39.5,30.18,WSW,244,0.0,3.0,92,0.00,,---,0.00,0.00,VWS V14.00,2013-11-16 09:05:00,
2013-11-16 04:06:00,41.6,39.5,30.18,WSW,244,0.0,3.0,92,0.00,,---,0.00,0.00,VWS V14.00,2013-11-16 09:06:00,
2013-11-16 04:07:00,41.6,39.5,30.18,WSW,244,0.0,3.0,92,0.00,,---,0.00,0.00,VWS V14.00,2013-11-16 09:07:00,
2013-11-16 04:08:00,41.5,39.3,30.18,WSW,244,0.0,3.0,92,0.00,,---,0.00,0.00,VWS V14.00,2013-11-16 09:08:00,
2013-11-16 04:09:00,41.5,39.3,30.18,WSW,244,0.0,3.0,92,0.00,,---,0.00,0.00,VWS V14.00,2013-11-16 09:09:00,
2013-11-16 04:10:00,41.5,39.3,30.18,WSW,244,0.0,3.0,92,0.00,,---,0.00,0.00,VWS V14.00,2013-11-16 09:10:00,
2013-11-16 04:11:00,41.5,39.3,30.18,WSW,244,0.0,3.0,92,0.00,,---,0.00,0.00,VWS V14.00,2013-11-16 09:11:00,
2013-11-16 04:12:00,41.5,39.3,30.18,WSW,244,0.0,3.0,92,0.00,,---,0.00,0.00,VWS V14.00,2013-11-16 09:12:00,
2013-11-16 04:13:00,41.5,39.3,30.18,WSW,244,0.0,3.0,92,0.00,,---,0.00,0.00,VWS V14.00,2013-11-16 09:13:00,
2013-11-16 04:14:00,41.5,39.3,30.18,WSW,244,0.0,3.0,92,0.00,,---,0.00,0.00,VWS V14.00,2013-11-16 09:14:00,
2013-11-16 04:15:00,41.5,39.3,30.18,WSW,244,0.0,3.0,92,0.00,,---,0.00,0.00,VWS V14.00,2013-11-16 09:15:00,
2013-11-16 04:16:00,41.5,39.3,30.18,WSW,244,0.0,3.0,92,0.00,,---,0.00,0.00,VWS V14.00,2013-11-16 09:16:00,
2013-11-16 04:17:00,41.5,39.3,30.18,WSW,244,0.0,3.0,92,0.00,,---,0.00,0.00,VWS V14.00,2013-11-16 09:17:00,
2013-11-16 04:18:00,41.4,39.2,30.18,WSW,244,0.0,3.0,92,0.00,,---,0.00,0.00,VWS V14.00,2013-11-16 09:18:00,
2013-11-16 04:19:00,41.4,39.2,30.18,WSW,244,0.0,3.0,92,0.00,,---,0.00,0.00,VWS V14.00,2013-11-16 09:19:00,
2013-11-16 04:20:00,41.4,39.2,30.18,WSW,244,0.0,3.0,92,0.00,,---,0.00,0.00,VWS V14.00,2013-11-16 09:20:00,
2013-11-16 04:21:00,41.4,39.2,30.18,WSW,244,0.0,3.0,92,0.00,,---,0.00,0.00,VWS V14.00,2013-11-16 09:21:00,
2013-11-16 04:22:00,41.4,39.2,30.18,WSW,244,0.0,3.0,92,0.00,,---,0.00,0.00,VWS V14.00,2013-11-16 09:22:00,
2013-11-16 04:23:00,41.4,39.2,30.18,WSW,244,0.0,3.0,92,0.00,,---,0.00,0.00,VWS V14.00,2013-11-16 09:23:00,
2013-11-16 04:24:00,41.3,39.2,30.19,WSW,244,0.0,3.0,92,0.00,,---,0.00,0.00,VWS V14.00,2013-11-16 09:24:00,
2013-11-16 04:25:00,41.3,39.2,30.19,WSW,244,0.0,3.0,92,0.00,,---,0.00,0.00,VWS V14.00,2013-11-16 09:25:00,
2013-11-16 04:26:00,41.3,39.2,30.18,WSW,244,0.0,3.0,92,0.00,,---,0.00,0.00,VWS V14.00,2013-11-16 09:26:00,
2013-11-16 04:27:00,41.2,39.1,30.18,WSW,244,0.0,3.0,92,0.00,,---,0.00,0.00,VWS V14.00,2013-11-16 09:27:00,
2013-11-16 04:28:00,41.1,39.0,30.18,WSW,244,0.0,3.0,92,0.00,,---,0.00,0.00,VWS V14.00,2013-11-16 09:28:00,
2013-11-16 04:29:00,41.1,39.0,30.18,WSW,244,0.0,3.0,92,0.00,,---,0.00,0.00,VWS V14.00,2013-11-16 09:29:00,
2013-11-16 04:30:00,41.0,38.9,30.18,WSW,244,0.0,3.0,92,0.00,,---,0.00,0.00,VWS V14.00,2013-11-16 09:30:00,
2013-11-16 04:31:00,41.0,38.6,30.18,WSW,244,0.0,0.0,91,0.00,,---,0.00,0.00,VWS V14.00,2013-11-16 09:31:00,
2013-11-16 04:32:00,40.9,38.5,30.18,WSW,244,0.0,0.0,91,0.00,,---,0.00,0.00,VWS V14.00,2013-11-16 09:32:00,
2013-11-16 04:33:00,40.8,38.4,30.19,WSW,244,0.0,0.0,91,0.00,,---,0.00,0.00,VWS V14.00,2013-11-16 09:33:00,
2013-11-16 04:34:00,40.8,38.7,30.18,WSW,244,0.0,0.0,92,0.00,,---,0.00,0.00,VWS V14.00,2013-11-16 09:34:00,
2013-11-16 04:35:00,40.7,38.3,30.18,WSW,244,0.0,0.0,91,0.00,,---,0.00,0.00,VWS V14.00,2013-11-16 09:35:00,
2013-11-16 04:36:00,40.7,38.3,30.18,WSW,244,0.0,0.0,91,0.00,,---,0.00,0.00,VWS V14.00,2013-11-16 09:36:00,
2013-11-16 04:37:00,40.6,38.5,30.19,WSW,244,0.0,0.0,92,0.00,,---,0.00,0.00,VWS V14.00,2013-11-16 09:37:00,
2013-11-16 04:38:00,40.5,38.4,30.18,WSW,244,0.0,0.0,92,0.00,,---,0.00,0.00,VWS V14.00,2013-11-16 09:38:00,
2013-11-16 04:39:00,40.4,38.3,30.19,WSW,244,0.0,0.0,92,0.00,,---,0.00,0.00,VWS V14.00,2013-11-16 09:39:00,
2013-11-16 04:40:00,40.4,38.0,30.19,WSW,244,0.0,0.0,91,0.00,,---,0.00,0.00,VWS V14.00,2013-11-16 09:40:00,
2013-11-16 04:41:00,40.4,38.0,30.18,WSW,244,0.0,0.0,91,0.00,,---,0.00,0.00,VWS V14.00,2013-11-16 09:41:00,
2013-11-16 04:42:00,40.3,37.9,30.18,WSW,244,0.0,0.0,91,0.00,,---,0.00,0.00,VWS V14.00,2013-11-16 09:42:00,
2013-11-16 04:43:00,40.2,37.8,30.18,WSW,244,0.0,0.0,91,0.00,,---,0.00,0.00,VWS V14.00,2013-11-16 09:43:00,
2013-11-16 04:44:00,40.1,38.0,30.19,WSW,244,0.0,0.0,92,0.00,,---,0.00,0.00,VWS V14.00,2013-11-16 09:44:00,
2013-11-16 04:45:00,40.1,38.0,30.18,WSW,244,0.0,0.0,92,0.00,,---,0.00,0.00,VWS V14.00,2013-11-16 09:45:00,
2013-11-16 04:46:00,40.1,38.0,30.18,WSW,244,0.0,0.0,92,0.00,,---,0.00,0.00,VWS V14.00,2013-11-16 09:46:00,
2013-11-16 04:47:00,40.1,38.0,30.18,WSW,244,0.0,0.0,92,0.00,,---,0.00,0.00,VWS V14.00,2013-11-16 09:47:00,
2013-11-16 04:48:00,40.0,37.9,30.18,WSW,244,0.0,0.0,92,0.00,,---,0.00,0.00,VWS V14.00,2013-11-16 09:48:00,
2013-11-16 04:49:00,40.0,38.1,30.18,WSW,244,0.0,0.0,93,0.00,,---,0.00,0.00,VWS V14.00,2013-11-16 09:49:00,
2013-11-16 04:50:00,40.0,38.1,30.18,WSW,244,0.0,0.0,93,0.00,,---,0.00,0.00,VWS V14.00,2013-11-16 09:50:00,
2013-11-16 04:51:00,39.9,38.0,30.18,WSW,244,0.0,0.0,93,0.00,,---,0.00,0.00,VWS V14.00,2013-11-16 09:51:00,
2013-11-16 04:52:00,39.8,38.0,30.18,WSW,244,0.0,0.0,93,0.00,,---,0.00,0.00,VWS V14.00,2013-11-16 09:52:00,
2013-11-16 04:53:00,39.8,38.0,30.18,WSW,244,0.0,0.0,93,0.00,,---,0.00,0.00,VWS V14.00,2013-11-16 09:53:00,
2013-11-16 04:54:00,39.7,37.8,30.19,WSW,244,0.0,0.0,93,0.00,,---,0.00,0.00,VWS V14.00,2013-11-16 09:54:00,
2013-11-16 04:55:00,39.7,37.6,30.19,WSW,244,0.0,0.0,92,0.00,,---,0.00,0.00,VWS V14.00,2013-11-16 09:55:00,
2013-11-16 04:56:00,39.6,37.5,30.19,WSW,244,0.0,0.0,92,0.00,,---,0.00,0.00,VWS V14.00,2013-11-16 09:56:00,
2013-11-16 04:57:00,39.5,37.4,30.19,WSW,244,0.0,0.0,92,0.00,,---,0.00,0.00,VWS V14.00,2013-11-16 09:57:00,
2013-11-16 04:58:00,39.4,37.3,30.19,WSW,244,0.0,0.0,92,0.00,,---,0.00,0.00,VWS V14.00,2013-11-16 09:58:00,
2013-11-16 04:59:00,39.3,37.2,30.19,WSW,244,0.0,0.0,92,0.00,,---,0.00,0.00,VWS V14.00,2013-11-16 09:59:00,
2013-11-16 05:00:00,39.2,37.1,30.19,WSW,244,0.0,0.0,92,0.00,,---,0.00,0.00,VWS V14.00,2013-11-16 10:00:00,
2013-11-16 05:01:00,39.1,37.0,30.19,WSW,244,0.0,0.0,92,0.00,,---,0.00,0.00,VWS V14.00,2013-11-16 10:01:00,
2013-11-16 05:02:00,39.0,36.9,30.19,WSW,244,0.0,0.0,92,0.00,,---,0.00,0.00,VWS V14.00,2013-11-16 10:02:00,
2013-11-16 05:03:00,38.9,36.8,30.19,WSW,244,0.0,0.0,92,0.00,,---,0.00,0.00,VWS V14.00,2013-11-16 10:03:00,
2013-11-16 05:04:00,38.8,36.7,30.18,WSW,244,0.0,0.0,92,0.00,,---,0.00,0.00,VWS V14.00,2013-11-16 10:04:00,
2013-11-16 05:05:00,38.7,36.6,30.18,WSW,244,0.0,0.0,92,0.00,,---,0.00,0.00,VWS V14.00,2013-11-16 10:05:00,
2013-11-16 05:06:00,38.7,36.6,30.19,WSW,244,0.0,0.0,92,0.00,,---,0.00,0.00,VWS V14.00,2013-11-16 10:06:00,
2013-11-16 05:07:00,38.6,36.8,30.19,WSW,244,0.0,0.0,93,0.00,,---,0.00,0.00,VWS V14.00,2013-11-16 10:07:00,
2013-11-16 05:08:00,38.5,36.7,30.19,WSW,244,0.0,0.0,93,0.00,,---,0.00,0.00,VWS V14.00,2013-11-16 10:08:00,
2013-11-16 05:09:00,38.5,36.7,30.19,WSW,244,0.0,0.0,93,0.00,,---,0.00,0.00,VWS V14.00,2013-11-16 10:09:00,
2013-11-16 05:10:00,38.5,36.7,30.19,WSW,244,0.0,0.0,93,0.00,,---,0.00,0.00,VWS V14.00,2013-11-16 10:10:00,
2013-11-16 05:11:00,38.4,36.6,30.19,WSW,244,0.0,0.0,93,0.00,,---,0.00,0.00,VWS V14.00,2013-11-16 10:11:00,
2013-11-16 05:12:00,38.4,36.6,30.19,WSW,244,0.0,0.0,93,0.00,,---,0.00,0.00,VWS V14.00,2013-11-16 10:12:00,
2013-11-16 05:13:00,38.3,36.5,30.19,WSW,244,0.0,0.0,93,0.00,,---,0.00,0.00,VWS V14.00,2013-11-16 10:13:00,
2013-11-16 05:14:00,38.3,36.5,30.19,WSW,244,0.0,0.0,93,0.00,,---,0.00,0.00,VWS V14.00,2013-11-16 10:14:00,
2013-11-16 05:15:00,38.3,36.5,30.19,WSW,244,0.0,0.0,93,0.00,,---,0.00,0.00,VWS V14.00,2013-11-16 10:15:00,
2013-11-16 05:16:00,38.3,36.7,30.19,WSW,244,0.0,0.0,94,0.00,,---,0.00,0.00,VWS V14.00,2013-11-16 10:16:00,
2013-11-16 05:17:00,38.2,36.6,30.19,WSW,244,0.0,0.0,94,0.00,,---,0.00,0.00,VWS V14.00,2013-11-16 10:17:00,
2013-11-16 05:18:00,38.2,36.6,30.19,WSW,244,0.0,0.0,94,0.00,,---,0.00,0.00,VWS V14.00,2013-11-16 10:18:00,
2013-11-16 05:19:00,38.2,36.6,30.19,WSW,244,0.0,0.0,94,0.00,,---,0.00,0.00,VWS V14.00,2013-11-16 10:19:00,
2013-11-16 05:20:00,38.2,36.6,30.19,WSW,244,0.0,0.0,94,0.00,,---,0.00,0.00,VWS V14.00,2013-11-16 10:20:00,
2013-11-16 05:21:00,38.2,36.6,30.19,WSW,244,0.0,0.0,94,0.00,,---,0.00,0.00,VWS V14.00,2013-11-16 10:21:00,
2013-11-16 05:22:00,38.1,36.5,30.19,WSW,244,0.0,0.0,94,0.00,,---,0.00,0.00,VWS V14.00,2013-11-16 10:22:00,
2013-11-16 05:23:00,38.1,36.5,30.19,WSW,244,0.0,0.0,94,0.00,,---,0.00,0.00,VWS V14.00,2013-11-16 10:23:00,
2013-11-16 05:24:00,38.1,36.5,30.19,WSW,244,0.0,0.0,94,0.00,,---,0.00,0.00,VWS V14.00,2013-11-16 10:24:00,
2013-11-16 05:25:00,38.0,36.4,30.19,WSW,244,0.0,0.0,94,0.00,,---,0.00,0.00,VWS V14.00,2013-11-16 10:25:00,
2013-11-16 05:26:00,38.0,36.4,30.19,WSW,244,0.0,0.0,94,0.00,,---,0.00,0.00,VWS V14.00,2013-11-16 10:26:00,
2013-11-16 05:27:00,38.0,36.4,30.19,WSW,244,0.0,0.0,94,0.00,,---,0.00,0.00,VWS V14.00,2013-11-16 10:27:00,
2013-11-16 05:28:00,37.9,36.3,30.19,WSW,244,0.0,0.0,94,0.00,,---,0.00,0.00,VWS V14.00,2013-11-16 10:28:00,
2013-11-16 05:29:00,37.9,36.3,30.19,WSW,244,0.0,0.0,94,0.00,,---,0.00,0.00,VWS V14.00,2013-11-16 10:29:00,
2013-11-16 05:30:00,37.8,36.2,30.19,WSW,244,0.0,0.0,94,0.00,,---,0.00,0.00,VWS V14.00,2013-11-16 10:30:00,
2013-11-16 05:31:00,37.8,36.2,30.19,WSW,244,0.0,0.0,94,0.00,,---,0.00,0.00,VWS V14.00,2013-11-16 10:31:00,
2013-11-16 05:32:00,37.8,36.2,30.19,WSW,244,0.0,0.0,94,0.00,,---,0.00,0.00,VWS V14.00,2013-11-16 10:32:00,
2013-11-16 05:33:00,37.7,36.1,30.19,WSW,244,0.0,0.0,94,0.00,,---,0.00,0.00,VWS V14.00,2013-11-16 10:33:00,
2013-11-16 05:34:00,37.7,36.1,30.19,WSW,244,0.0,0.0,94,0.00,,---,0.00,0.00,VWS V14.00,2013-11-16 10:34:00,
2013-11-16 05:35:00,37.7,36.1,30.19,WSW,244,0.0,0.0,94,0.00,,---,0.00,0.00,VWS V14.00,2013-11-16 10:35:00,
2013-11-16 05:36:00,37.7,36.4,30.19,WSW,244,0.0,0.0,95,0.00,,---,0.00,0.00,VWS V14.00,2013-11-16 10:36:00,
2013-11-16 05:37:00,37.6,36.3,30.19,WSW,244,0.0,0.0,95,0.00,,---,0.00,0.00,VWS V14.00,2013-11-16 10:37:00,
2013-11-16 05:38:00,37.6,36.3,30.19,WSW,244,0.0,0.0,95,0.00,,---,0.00,0.00,VWS V14.00,2013-11-16 10:38:00,
2013-11-16 05:39:00,37.5,35.9,30.19,WSW,244,0.0,0.0,94,0.00,,---,0.00,0.00,VWS V14.00,2013-11-16 10:39:00,
2013-11-16 05:40:00,37.5,35.9,30.19,WSW,244,0.0,0.0,94,0.00,,---,0.00,0.00,VWS V14.00,2013-11-16 10:40:00,
2013-11-16 05:41:00,37.5,35.9,30.19,WSW,244,0.0,0.0,94,0.00,,---,0.00,0.00,VWS V14.00,2013-11-16 10:41:00,
2013-11-16 05:42:00,37.5,35.9,30.19,WSW,244,0.0,0.0,94,0.00,,---,0.00,0.00,VWS V14.00,2013-11-16 10:42:00,
2013-11-16 05:43:00,37.4,35.8,30.19,WSW,244,0.0,0.0,94,0.00,,---,0.00,0.00,VWS V14.00,2013-11-16 10:43:00,
2013-11-16 05:44:00,37.4,35.8,30.19,WSW,244,0.0,0.0,94,0.00,,---,0.00,0.00,VWS V14.00,2013-11-16 10:44:00,
2013-11-16 05:45:00,37.3,36.0,30.19,WSW,244,0.0,0.0,95,0.00,,---,0.00,0.00,VWS V14.00,2013-11-16 10:45:00,
2013-11-16 05:46:00,37.4,36.1,30.19,WSW,244,0.0,0.0,95,0.00,,---,0.00,0.00,VWS V14.00,2013-11-16 10:46:00,
2013-11-16 05:47:00,37.4,36.1,30.19,WSW,244,0.0,0.0,95,0.00,,---,0.00,0.00,VWS V14.00,2013-11-16 10:47:00,
2013-11-16 05:48:00,37.4,36.1,30.19,WSW,244,0.0,0.0,95,0.00,,---,0.00,0.00,VWS V14.00,2013-11-16 10:48:00,
2013-11-16 05:49:00,37.4,36.1,30.19,WSW,244,0.0,0.0,95,0.00,,---,0.00,0.00,VWS V14.00,2013-11-16 10:49:00,
2013-11-16 05:50:00,37.4,36.1,30.19,WSW,244,0.0,0.0,95,0.00,,---,0.00,0.00,VWS V14.00,2013-11-16 10:50:00,
2013-11-16 05:51:00,37.5,36.2,30.19,WSW,244,0.0,0.0,95,0.00,,---,0.00,0.00,VWS V14.00,2013-11-16 10:51:00,
2013-11-16 05:52:00,37.5,36.2,30.19,WSW,244,0.0,0.0,95,0.00,,---,0.00,0.00,VWS V14.00,2013-11-16 10:52:00,
2013-11-16 05:53:00,37.5,36.2,30.19,WSW,244,0.0,0.0,95,0.00,,---,0.00,0.00,VWS V14.00,2013-11-16 10:53:00,
2013-11-16 05:54:00,37.5,36.2,30.19,WSW,244,0.0,0.0,95,0.00,,---,0.00,0.00,VWS V14.00,2013-11-16 10:54:00,
2013-11-16 05:55:00,37.5,36.2,30.19,WSW,244,0.0,0.0,95,0.00,,---,0.00,0.00,VWS V14.00,2013-11-16 10:55:00,
2013-11-16 05:56:00,37.5,36.2,30.19,WSW,244,0.0,0.0,95,0.00,,---,0.00,0.00,VWS V14.00,2013-11-16 10:56:00,
2013-11-16 05:57:00,37.5,36.2,30.19,WSW,244,0.0,0.0,95,0.00,,---,0.00,0.00,VWS V14.00,2013-11-16 10:57:00,
2013-11-16 05:58:00,37.5,36.2,30.19,WSW,244,0.0,0.0,95,0.00,,---,0.00,0.00,VWS V14.00,2013-11-16 10:58:00,
2013-11-16 05:59:00,37.5,36.2,30.19,WSW,244,0.0,0.0,95,0.00,,---,0.00,0.00,VWS V14.00,2013-11-16 10:59:00,
2013-11-16 06:00:00,37.5,36.2,30.19,WSW,244,0.0,0.0,95,0.00,,---,0.00,0.00,VWS V14.00,2013-11-16 11:00:00,
2013-11-16 06:01:00,37.5,36.2,30.19,WSW,244,0.0,0.0,95,0.00,,---,0.00,0.00,VWS V14.00,2013-11-16 11:01:00,
2013-11-16 06:02:00,37.5,36.5,30.19,WSW,244,0.0,0.0,96,0.00,,---,0.00,0.00,VWS V14.00,2013-11-16 11:02:00,
2013-11-16 06:03:00,37.5,36.5,30.19,WSW,244,0.0,0.0,96,0.00,,---,0.00,0.00,VWS V14.00,2013-11-16 11:03:00,
2013-11-16 06:04:00,37.5,36.2,30.19,WSW,244,0.0,0.0,95,0.00,,---,0.00,0.00,VWS V14.00,2013-11-16 11:04:00,
2013-11-16 06:05:00,37.4,36.1,30.19,WSW,244,0.0,0.0,95,0.00,,---,0.00,0.00,VWS V14.00,2013-11-16 11:05:00,
2013-11-16 06:06:00,37.4,36.1,30.19,WSW,244,0.0,0.0,95,0.00,,---,0.00,0.00,VWS V14.00,2013-11-16 11:06:00,
2013-11-16 06:07:00,37.4,36.1,30.19,WSW,244,0.0,0.0,95,0.00,,---,0.00,0.00,VWS V14.00,2013-11-16 11:07:00,
2013-11-16 06:08:00,37.3,36.0,30.19,WSW,244,0.0,0.0,95,0.00,,---,0.00,0.00,VWS V14.00,2013-11-16 11:08:00,
2013-11-16 06:09:00,37.2,35.9,30.19,WSW,244,0.0,0.0,95,0.00,,---,0.00,0.00,VWS V14.00,2013-11-16 11:09:00,
2013-11-16 06:10:00,37.2,35.9,30.19,WSW,244,0.0,0.0,95,0.00,,---,0.00,0.00,VWS V14.00,2013-11-16 11:10:00,
2013-11-16 06:11:00,37.1,35.8,30.19,WSW,244,0.0,0.0,95,0.00,,---,0.00,0.00,VWS V14.00,2013-11-16 11:11:00,
2013-11-16 06:12:00,37.1,35.8,30.19,WSW,244,0.0,0.0,95,0.00,,---,0.00,0.00,VWS V14.00,2013-11-16 11:12:00,
2013-11-16 06:13:00,37.0,35.7,30.19,WSW,244,0.0,0.0,95,0.00,,---,0.00,0.00,VWS V14.00,2013-11-16 11:13:00,
2013-11-16 06:14:00,37.0,35.7,30.19,WSW,244,0.0,0.0,95,0.00,,---,0.00,0.00,VWS V14.00,2013-11-16 11:14:00,
2013-11-16 06:15:00,36.9,35.6,30.19,WSW,244,0.0,0.0,95,0.00,,---,0.00,0.00,VWS V14.00,2013-11-16 11:15:00,
2013-11-16 06:16:00,36.9,35.6,30.19,WSW,244,0.0,0.0,95,0.00,,---,0.00,0.00,VWS V14.00,2013-11-16 11:16:00,
2013-11-16 06:17:00,36.8,35.5,30.19,WSW,244,0.0,0.0,95,0.00,,---,0.00,0.00,VWS V14.00,2013-11-16 11:17:00,
2013-11-16 06:18:00,36.8,35.5,30.19,WSW,244,0.0,0.0,95,0.00,,---,0.00,0.00,VWS V14.00,2013-11-16 11:18:00,
2013-11-16 06:19:00,36.8,35.5,30.19,WSW,244,0.0,0.0,95,0.00,,---,0.00,0.00,VWS V14.00,2013-11-16 11:19:00,
2013-11-16 06:20:00,36.7,35.4,30.19,WSW,244,0.0,0.0,95,0.00,,---,0.00,0.00,VWS V14.00,2013-11-16 11:20:00,
2013-11-16 06:21:00,36.7,35.4,30.19,WSW,244,0.0,0.0,95,0.00,,---,0.00,0.00,VWS V14.00,2013-11-16 11:21:00,
2013-11-16 06:22:00,36.6,35.3,30.19,WSW,244,0.0,0.0,95,0.00,,---,0.00,0.00,VWS V14.00,2013-11-16 11:22:00,
2013-11-16 06:23:00,36.6,35.3,30.19,WSW,244,0.0,0.0,95,0.00,,---,0.00,0.00,VWS V14.00,2013-11-16 11:23:00,
2013-11-16 06:24:00,36.5,35.2,30.19,WSW,244,0.0,0.0,95,0.00,,---,0.00,0.00,VWS V14.00,2013-11-16 11:24:00,
2013-11-16 06:25:00,36.5,35.2,30.19,WSW,244,0.0,0.0,95,0.00,,---,0.00,0.00,VWS V14.00,2013-11-16 11:25:00,
2013-11-16 06:26:00,36.4,35.1,30.19,WSW,244,0.0,0.0,95,0.00,,---,0.00,0.00,VWS V14.00,2013-11-16 11:26:00,
2013-11-16 06:27:00,36.4,35.1,30.19,WSW,244,0.0,0.0,95,0.00,,---,0.00,0.00,VWS V14.00,2013-11-16 11:27:00,
2013-11-16 06:28:00,36.4,35.1,30.19,WSW,244,0.0,0.0,95,0.00,,---,0.00,0.00,VWS V14.00,2013-11-16 11:28:00,
2013-11-16 06:29:00,36.3,35.0,30.19,WSW,244,0.0,0.0,95,0.00,,---,0.00,0.00,VWS V14.00,2013-11-16 11:29:00,
2013-11-16 06:30:00,36.2,34.9,30.19,WSW,244,0.0,0.0,95,0.00,,---,0.00,0.00,VWS V14.00,2013-11-16 11:30:00,
2013-11-16 06:31:00,36.2,34.9,30.19,WSW,244,0.0,0.0,95,0.00,,---,0.00,0.00,VWS V14.00,2013-11-16 11:31:00,
2013-11-16 06:32:00,36.2,34.9,30.19,WSW,244,0.0,0.0,95,0.00,,---,0.00,0.00,VWS V14.00,2013-11-16 11:32:00,
2013-11-16 06:33:00,36.1,34.8,30.19,WSW,244,0.0,0.0,95,0.00,,---,0.00,0.00,VWS V14.00,2013-11-16 11:33:00,
2013-11-16 06:34:00,36.1,34.8,30.19,WSW,244,0.0,0.0,95,0.00,,---,0.00,0.00,VWS V14.00,2013-11-16 11:34:00,
2013-11-16 06:35:00,36.0,34.7,30.19,WSW,244,0.0,0.0,95,0.00,,---,0.00,0.00,VWS V14.00,2013-11-16 11:35:00,
2013-11-16 06:36:00,36.0,34.7,30.20,WSW,244,0.0,0.0,95,0.00,,---,0.00,0.00,VWS V14.00,2013-11-16 11:36:00,
2013-11-16 06:37:00,35.9,34.6,30.20,WSW,244,0.0,0.0,95,0.00,,---,0.00,0.00,VWS V14.00,2013-11-16 11:37:00,
2013-11-16 06:38:00,35.9,34.6,30.20,WSW,244,0.0,0.0,95,0.00,,---,0.00,0.00,VWS V14.00,2013-11-16 11:38:00,
2013-11-16 06:39:00,35.9,34.6,30.20,WSW,244,0.0,0.0,95,0.00,,---,0.00,0.00,VWS V14.00,2013-11-16 11:39:00,
2013-11-16 06:40:00,35.9,34.6,30.20,WSW,244,0.0,0.0,95,0.00,,---,0.00,0.00,VWS V14.00,2013-11-16 11:40:00,
2013-11-16 06:41:00,35.9,34.6,30.20,WSW,244,0.0,0.0,95,0.00,,---,0.00,0.00,VWS V14.00,2013-11-16 11:41:00,
2013-11-16 06:42:00,35.8,34.5,30.20,WSW,244,0.0,0.0,95,0.00,,---,0.00,0.00,VWS V14.00,2013-11-16 11:42:00,
2013-11-16 06:43:00,35.8,34.5,30.20,WSW,244,0.0,0.0,95,0.00,,---,0.00,0.00,VWS V14.00,2013-11-16 11:43:00,
2013-11-16 06:44:00,35.7,34.4,30.20,WSW,244,0.0,0.0,95,0.00,,---,0.00,0.00,VWS V14.00,2013-11-16 11:44:00,
2013-11-16 06:45:00,35.7,34.4,30.20,WSW,244,0.0,0.0,95,0.00,,---,0.00,5.00,VWS V14.00,2013-11-16 11:45:00,
2013-11-16 06:46:00,35.7,34.4,30.21,WSW,244,0.0,0.0,95,0.00,,---,0.00,5.00,VWS V14.00,2013-11-16 11:46:00,
2013-11-16 06:47:00,35.6,34.3,30.21,WSW,244,0.0,0.0,95,0.00,,---,0.00,5.00,VWS V14.00,2013-11-16 11:47:00,
2013-11-16 06:48:00,35.6,34.3,30.21,WSW,244,0.0,0.0,95,0.00,,---,0.00,5.00,VWS V14.00,2013-11-16 11:48:00,
2013-11-16 06:49:00,35.5,34.2,30.21,WSW,244,0.0,0.0,95,0.00,,---,0.00,7.00,VWS V14.00,2013-11-16 11:49:00,
2013-11-16 06:50:00,35.5,34.2,30.21,WSW,244,0.0,0.0,95,0.00,,---,0.00,7.00,VWS V14.00,2013-11-16 11:50:00,
2013-11-16 06:51:00,35.5,34.2,30.21,WSW,244,0.0,0.0,95,0.00,,---,0.00,7.00,VWS V14.00,2013-11-16 11:51:00,
2013-11-16 06:52:00,35.5,34.2,30.21,WSW,244,0.0,0.0,95,0.00,,---,0.00,7.00,VWS V14.00,2013-11-16 11:52:00,
2013-11-16 06:53:00,35.4,34.1,30.21,WSW,244,0.0,0.0,95,0.00,,---,0.00,9.00,VWS V14.00,2013-11-16 11:53:00,
2013-11-16 06:54:00,35.4,34.1,30.21,WSW,244,0.0,0.0,95,0.00,,---,0.00,9.00,VWS V14.00,2013-11-16 11:54:00,
2013-11-16 06:55:00,35.3,34.0,30.21,WSW,244,0.0,0.0,95,0.00,,---,0.00,9.00,VWS V14.00,2013-11-16 11:55:00,
2013-11-16 06:56:00,35.3,34.0,30.21,WSW,244,0.0,0.0,95,0.00,,---,0.00,11.00,VWS V14.00,2013-11-16 11:56:00,
2013-11-16 06:57:00,35.3,34.0,30.21,WSW,244,0.0,0.0,95,0.00,,---,0.00,11.00,VWS V14.00,2013-11-16 11:57:00,
2013-11-16 06:58:00,35.2,33.9,30.21,WSW,244,0.0,0.0,95,0.00,,---,0.00,11.00,VWS V14.00,2013-11-16 11:58:00,
2013-11-16 06:59:00,35.2,33.9,30.21,WSW,244,0.0,0.0,95,0.00,,---,0.00,12.00,VWS V14.00,2013-11-16 11:59:00,
2013-11-16 07:00:00,35.2,33.9,30.21,WSW,244,0.0,0.0,95,0.00,,---,0.00,12.00,VWS V14.00,2013-11-16 12:00:00,
2013-11-16 07:01:00,35.2,33.9,30.21,WSW,244,0.0,0.0,95,0.00,,---,0.00,14.00,VWS V14.00,2013-11-16 12:01:00,
2013-11-16 07:02:00,35.2,33.9,30.21,WSW,244,0.0,0.0,95,0.00,,---,0.00,14.00,VWS V14.00,2013-11-16 12:02:00,
2013-11-16 07:03:00,35.1,33.8,30.21,WSW,244,0.0,0.0,95,0.00,,---,0.00,16.00,VWS V14.00,2013-11-16 12:03:00,
2013-11-16 07:04:00,35.2,33.9,30.20,WSW,244,0.0,0.0,95,0.00,,---,0.00,16.00,VWS V14.00,2013-11-16 12:04:00,
2013-11-16 07:05:00,35.1,33.8,30.21,WSW,244,0.0,0.0,95,0.00,,---,0.00,16.00,VWS V14.00,2013-11-16 12:05:00,
2013-11-16 07:06:00,35.1,34.1,30.20,WSW,244,0.0,0.0,96,0.00,,---,0.00,16.00,VWS V14.00,2013-11-16 12:06:00,
2013-11-16 07:07:00,35.1,34.1,30.20,WSW,244,0.0,0.0,96,0.00,,---,0.00,18.00,VWS V14.00,2013-11-16 12:07:00,
2013-11-16 07:08:00,35.1,34.1,30.21,WSW,244,0.0,0.0,96,0.00,,---,0.00,18.00,VWS V14.00,2013-11-16 12:08:00,
2013-11-16 07:09:00,35.1,34.1,30.20,WSW,244,0.0,0.0,96,0.00,,---,0.00,18.00,VWS V14.00,2013-11-16 12:09:00,
2013-11-16 07:10:00,35.1,34.1,30.20,WSW,244,0.0,0.0,96,0.00,,---,0.00,18.00,VWS V14.00,2013-11-16 12:10:00,
2013-11-16 07:11:00,35.1,34.1,30.20,WSW,244,0.0,0.0,96,0.00,,---,0.00,21.00,VWS V14.00,2013-11-16 12:11:00,
2013-11-16 07:12:00,35.1,34.1,30.20,WSW,244,0.0,0.0,96,0.00,,---,0.00,25.00,VWS V14.00,2013-11-16 12:12:00,
2013-11-16 07:13:00,35.2,34.2,30.21,WSW,244,0.0,0.0,96,0.00,,---,0.00,25.00,VWS V14.00,2013-11-16 12:13:00,
2013-11-16 07:14:00,35.1,34.1,30.21,WSW,244,0.0,0.0,96,0.00,,---,0.00,25.00,VWS V14.00,2013-11-16 12:14:00,
2013-11-16 07:15:00,35.1,34.1,30.21,WSW,244,0.0,0.0,96,0.00,,---,0.00,25.00,VWS V14.00,2013-11-16 12:15:00,
2013-11-16 07:16:00,35.2,34.2,30.20,WSW,244,0.0,0.0,96,0.00,,---,0.00,23.00,VWS V14.00,2013-11-16 12:16:00,
2013-11-16 07:17:00,35.2,34.2,30.20,WSW,244,0.0,0.0,96,0.00,,---,0.00,23.00,VWS V14.00,2013-11-16 12:17:00,
2013-11-16 07:18:00,35.2,34.2,30.21,WSW,244,0.0,0.0,96,0.00,,---,0.00,23.00,VWS V14.00,2013-11-16 12:18:00,
2013-11-16 07:19:00,35.2,34.2,30.21,WSW,244,0.0,0.0,96,0.00,,---,0.00,23.00,VWS V14.00,2013-11-16 12:19:00,
2013-11-16 07:20:00,35.2,34.2,30.21,WSW,244,0.0,0.0,96,0.00,,---,0.00,23.00,VWS V14.00,2013-11-16 12:20:00,
2013-11-16 07:21:00,35.3,34.3,30.21,WSW,244,0.0,0.0,96,0.00,,---,0.00,25.00,VWS V14.00,2013-11-16 12:21:00,
2013-11-16 07:22:00,35.3,34.3,30.21,WSW,244,0.0,0.0,96,0.00,,---,0.00,26.00,VWS V14.00,2013-11-16 12:22:00,
2013-11-16 07:23:00,35.3,34.3,30.21,WSW,244,0.0,0.0,96,0.00,,---,0.00,26.00,VWS V14.00,2013-11-16 12:23:00,
2013-11-16 07:24:00,35.3,34.3,30.21,WSW,244,0.0,0.0,96,0.00,,---,0.00,30.00,VWS V14.00,2013-11-16 12:24:00,
2013-11-16 07:25:00,35.3,34.3,30.21,WSW,244,0.0,0.0,96,0.00,,---,0.00,35.00,VWS V14.00,2013-11-16 12:25:00,
2013-11-16 07:26:00,35.4,34.4,30.21,WSW,244,0.0,0.0,96,0.00,,---,0.00,42.00,VWS V14.00,2013-11-16 12:26:00,
2013-11-16 07:27:00,35.4,34.4,30.21,WSW,244,0.0,0.0,96,0.00,,---,0.00,54.00,VWS V14.00,2013-11-16 12:27:00,
2013-11-16 07:28:00,35.4,34.4,30.21,WSW,244,0.0,0.0,96,0.00,,---,0.00,63.00,VWS V14.00,2013-11-16 12:28:00,
2013-11-16 07:29:00,35.4,34.4,30.21,WSW,244,0.0,0.0,96,0.00,,---,0.00,65.00,VWS V14.00,2013-11-16 12:29:00,
2013-11-16 07:30:00,35.4,34.4,30.21,WSW,244,0.0,0.0,96,0.00,,---,0.00,69.00,VWS V14.00,2013-11-16 12:30:00,
2013-11-16 07:31:00,35.4,34.4,30.21,WSW,244,0.0,0.0,96,0.00,,---,0.00,69.00,VWS V14.00,2013-11-16 12:31:00,
2013-11-16 07:32:00,35.4,34.4,30.22,WSW,244,0.0,0.0,96,0.00,,---,0.00,72.00,VWS V14.00,2013-11-16 12:32:00,
2013-11-16 07:33:00,35.3,34.3,30.22,WSW,244,0.0,0.0,96,0.00,,---,0.00,74.00,VWS V14.00,2013-11-16 12:33:00,
2013-11-16 07:34:00,35.3,34.3,30.22,WSW,244,0.0,0.0,96,0.00,,---,0.00,69.00,VWS V14.00,2013-11-16 12:34:00,
2013-11-16 07:35:00,35.3,34.3,30.22,WSW,244,0.0,0.0,96,0.00,,---,0.00,79.00,VWS V14.00,2013-11-16 12:35:00,
2013-11-16 07:36:00,35.2,34.2,30.22,WSW,244,0.0,0.0,96,0.00,,---,0.00,83.00,VWS V14.00,2013-11-16 12:36:00,
2013-11-16 07:37:00,35.2,34.2,30.22,WSW,244,0.0,0.0,96,0.00,,---,0.00,86.00,VWS V14.00,2013-11-16 12:37:00,
2013-11-16 07:38:00,35.2,34.2,30.22,WSW,244,0.0,0.0,96,0.00,,---,0.00,90.00,VWS V14.00,2013-11-16 12:38:00,
2013-11-16 07:39:00,35.2,34.2,30.22,WSW,244,0.0,0.0,96,0.00,,---,0.00,91.00,VWS V14.00,2013-11-16 12:39:00,
2013-11-16 07:40:00,35.2,34.2,30.22,WSW,244,0.0,0.0,96,0.00,,---,0.00,95.00,VWS V14.00,2013-11-16 12:40:00,
2013-11-16 07:41:00,35.2,34.2,30.22,WSW,244,0.0,0.0,96,0.00,,---,0.00,95.00,VWS V14.00,2013-11-16 12:41:00,
2013-11-16 07:42:00,35.2,34.2,30.22,WSW,244,0.0,0.0,96,0.00,,---,0.00,97.00,VWS V14.00,2013-11-16 12:42:00,
2013-11-16 07:43:00,35.2,34.2,30.22,WSW,244,0.0,0.0,96,0.00,,---,0.00,91.00,VWS V14.00,2013-11-16 12:43:00,
2013-11-16 07:44:00,35.2,34.2,30.22,WSW,244,0.0,0.0,96,0.00,,---,0.00,98.00,VWS V14.00,2013-11-16 12:44:00,
2013-11-16 07:45:00,35.3,34.3,30.22,WSW,244,0.0,0.0,96,0.00,,---,0.00,100.00,VWS V14.00,2013-11-16 12:45:00,
2013-11-16 07:46:00,35.3,34.3,30.22,WSW,244,0.0,0.0,96,0.00,,---,0.00,98.00,VWS V14.00,2013-11-16 12:46:00,
2013-11-16 07:47:00,35.3,34.3,30.22,WSW,244,0.0,0.0,96,0.00,,---,0.00,91.00,VWS V14.00,2013-11-16 12:47:00,
2013-11-16 07:48:00,35.4,34.4,30.22,WSW,244,0.0,0.0,96,0.00,,---,0.00,105.00,VWS V14.00,2013-11-16 12:48:00,
2013-11-16 07:49:00,35.4,34.4,30.22,WSW,244,0.0,0.0,96,0.00,,---,0.00,118.00,VWS V14.00,2013-11-16 12:49:00,
2013-11-16 07:50:00,35.5,34.5,30.22,WSW,244,0.0,0.0,96,0.00,,---,0.00,121.00,VWS V14.00,2013-11-16 12:50:00,
2013-11-16 07:51:00,35.5,34.5,30.22,WSW,244,0.0,0.0,96,0.00,,---,0.00,125.00,VWS V14.00,2013-11-16 12:51:00,
2013-11-16 07:52:00,35.5,34.5,30.22,WSW,244,0.0,0.0,96,0.00,,---,0.00,128.00,VWS V14.00,2013-11-16 12:52:00,
2013-11-16 07:53:00,35.5,34.5,30.22,WSW,244,0.0,0.0,96,0.00,,---,0.00,134.00,VWS V14.00,2013-11-16 12:53:00,
2013-11-16 07:54:00,35.5,34.5,30.22,WSW,244,0.0,0.0,96,0.00,,---,0.00,134.00,VWS V14.00,2013-11-16 12:54:00,
2013-11-16 07:55:00,35.6,34.6,30.23,WSW,244,0.0,0.0,96,0.00,,---,0.00,134.00,VWS V14.00,2013-11-16 12:55:00,
2013-11-16 07:56:00,35.6,34.6,30.23,WSW,244,0.0,0.0,96,0.00,,---,0.00,135.00,VWS V14.00,2013-11-16 12:56:00,
2013-11-16 07:57:00,35.7,34.7,30.23,WSW,244,0.0,0.0,96,0.00,,---,0.00,134.00,VWS V14.00,2013-11-16 12:57:00,
2013-11-16 07:58:00,35.7,34.7,30.23,WSW,244,0.0,0.0,96,0.00,,---,0.00,121.00,VWS V14.00,2013-11-16 12:58:00,
2013-11-16 07:59:00,35.8,34.8,30.23,WSW,244,0.0,0.0,96,0.00,,---,0.00,118.00,VWS V14.00,2013-11-16 12:59:00,
2013-11-16 08:00:00,35.9,35.1,30.23,WSW,244,0.0,0.0,97,0.00,,---,0.00,158.00,VWS V14.00,2013-11-16 13:00:00,
2013-11-16 08:01:00,35.9,35.1,30.23,WSW,244,0.0,0.0,97,0.00,,---,0.00,160.00,VWS V14.00,2013-11-16 13:01:00,
2013-11-16 08:02:00,36.0,35.2,30.23,WSW,244,0.0,0.0,97,0.00,,---,0.00,165.00,VWS V14.00,2013-11-16 13:02:00,
2013-11-16 08:03:00,36.1,35.3,30.23,WSW,244,0.0,0.0,97,0.00,,---,0.00,174.00,VWS V14.00,2013-11-16 13:03:00,
2013-11-16 08:04:00,36.2,35.4,30.23,WSW,244,0.0,0.0,97,0.00,,---,0.00,200.00,VWS V14.00,2013-11-16 13:04:00,
2013-11-16 08:05:00,36.3,35.5,30.23,WSW,244,0.0,0.0,97,0.00,,---,0.00,218.00,VWS V14.00,2013-11-16 13:05:00,
2013-11-16 08:06:00,36.4,35.6,30.23,WSW,244,0.0,0.0,97,0.00,,---,0.00,232.00,VWS V14.00,2013-11-16 13:06:00,
2013-11-16 08:07:00,36.5,35.7,30.24,WSW,244,0.0,0.0,97,0.00,,---,0.00,243.00,VWS V14.00,2013-11-16 13:07:00,
2013-11-16 08:08:00,36.6,35.8,30.24,WSW,244,0.0,0.0,97,0.00,,---,0.00,253.00,VWS V14.00,2013-11-16 13:08:00,
2013-11-16 08:09:00,36.8,36.0,30.23,WSW,244,0.0,0.0,97,0.00,,---,0.00,255.00,VWS V14.00,2013-11-16 13:09:00,
2013-11-16 08:10:00,36.9,36.1,30.23,WSW,244,0.0,0.0,97,0.00,,---,0.00,158.00,VWS V14.00,2013-11-16 13:10:00,
2013-11-16 08:11:00,37.0,36.2,30.23,WSW,244,0.0,0.0,97,0.00,,---,0.00,109.00,VWS V14.00,2013-11-16 13:11:00,
2013-11-16 08:12:00,37.1,36.3,30.23,WSW,244,0.0,0.0,97,0.00,,---,0.00,107.00,VWS V14.00,2013-11-16 13:12:00,
2013-11-16 08:13:00,37.3,36.5,30.23,WSW,244,0.0,0.0,97,0.00,,---,0.00,107.00,VWS V14.00,2013-11-16 13:13:00,
2013-11-16 08:14:00,37.5,36.7,30.23,WSW,244,0.0,0.0,97,0.00,,---,0.00,107.00,VWS V14.00,2013-11-16 13:14:00,
2013-11-16 08:15:00,37.6,36.8,30.23,WSW,244,0.0,0.0,97,0.00,,---,0.00,109.00,VWS V14.00,2013-11-16 13:15:00,
2013-11-16 08:16:00,37.7,36.9,30.23,WSW,244,0.0,0.0,97,0.00,,---,0.00,125.00,VWS V14.00,2013-11-16 13:16:00,
2013-11-16 08:17:00,37.9,37.1,30.23,WSW,244,0.0,0.0,97,0.00,,---,0.00,128.00,VWS V14.00,2013-11-16 13:17:00,
2013-11-16 08:18:00,38.0,37.2,30.23,WSW,244,0.0,0.0,97,0.00,,---,0.00,167.00,VWS V14.00,2013-11-16 13:18:00,
2013-11-16 08:19:00,38.1,37.6,30.23,WSW,244,0.0,0.0,98,0.00,,---,0.00,118.00,VWS V14.00,2013-11-16 13:19:00,
2013-11-16 08:20:00,38.2,37.7,30.22,WSW,244,0.0,0.0,98,0.00,,---,0.00,118.00,VWS V14.00,2013-11-16 13:20:00,
2013-11-16 08:21:00,38.3,37.8,30.22,WSW,244,0.0,0.0,98,0.00,,---,0.00,118.00,VWS V14.00,2013-11-16 13:21:00,
2013-11-16 08:22:00,38.5,37.7,30.23,WSW,244,0.0,0.0,97,0.00,,---,0.00,190.00,VWS V14.00,2013-11-16 13:22:00,
2013-11-16 08:23:00,38.6,37.8,30.22,WSW,244,0.0,0.0,97,0.00,,---,0.00,225.00,VWS V14.00,2013-11-16 13:23:00,
2013-11-16 08:24:00,38.8,38.0,30.22,WSW,244,0.0,0.0,97,0.00,,---,0.00,236.00,VWS V14.00,2013-11-16 13:24:00,
2013-11-16 08:25:00,39.0,38.5,30.22,WSW,244,0.0,0.0,98,0.00,,---,0.00,232.00,VWS V14.00,2013-11-16 13:25:00,
2013-11-16 08:26:00,39.1,38.6,30.22,WSW,244,0.0,0.0,98,0.00,,---,0.00,230.00,VWS V14.00,2013-11-16 13:26:00,
2013-11-16 08:27:00,39.3,38.8,30.22,WSW,244,0.0,0.0,98,0.00,,---,0.00,227.00,VWS V14.00,2013-11-16 13:27:00,
2013-11-16 08:28:00,39.5,39.0,30.22,WSW,244,0.0,0.0,98,0.00,,---,0.00,232.00,VWS V14.00,2013-11-16 13:28:00,
2013-11-16 08:29:00,39.7,39.2,30.22,WSW,244,0.0,0.0,98,0.00,,---,0.00,225.00,VWS V14.00,2013-11-16 13:29:00,
2013-11-16 08:30:00,39.9,39.4,30.22,WSW,244,0.0,0.0,98,0.00,,---,0.00,236.00,VWS V14.00,2013-11-16 13:30:00,
2013-11-16 08:31:00,40.1,39.6,30.22,WSW,244,0.0,0.0,98,0.00,,---,0.00,236.00,VWS V14.00,2013-11-16 13:31:00,
2013-11-16 08:32:00,40.3,39.8,30.22,WSW,244,0.0,0.0,98,0.00,,---,0.00,236.00,VWS V14.00,2013-11-16 13:32:00,
2013-11-16 08:33:00,40.5,40.0,30.22,WSW,244,0.0,0.0,98,0.00,,---,0.00,243.00,VWS V14.00,2013-11-16 13:33:00,
2013-11-16 08:34:00,40.7,40.2,30.22,WSW,244,0.0,0.0,98,0.00,,---,0.00,244.00,VWS V14.00,2013-11-16 13:34:00,
2013-11-16 08:35:00,40.8,40.3,30.22,WSW,244,0.0,0.0,98,0.00,,---,0.00,214.00,VWS V14.00,2013-11-16 13:35:00,
2013-11-16 08:36:00,41.0,40.5,30.22,WSW,244,0.0,0.0,98,0.00,,---,0.00,202.00,VWS V14.00,2013-11-16 13:36:00,
2013-11-16 08:37:00,41.1,40.6,30.22,WSW,244,0.0,0.0,98,0.00,,---,0.00,204.00,VWS V14.00,2013-11-16 13:37:00,
2013-11-16 08:38:00,41.3,40.8,30.22,WSW,244,0.0,0.0,98,0.00,,---,0.00,220.00,VWS V14.00,2013-11-16 13:38:00,
2013-11-16 08:39:00,41.5,41.0,30.22,WSW,244,0.0,0.0,98,0.00,,---,0.00,257.00,VWS V14.00,2013-11-16 13:39:00,
2013-11-16 08:40:00,41.6,41.1,30.22,WSW,244,0.0,0.0,98,0.00,,---,0.00,274.00,VWS V14.00,2013-11-16 13:40:00,
2013-11-16 08:41:00,41.9,41.4,30.22,WSW,244,0.0,0.0,98,0.00,,---,0.00,223.00,VWS V14.00,2013-11-16 13:41:00,
2013-11-16 08:42:00,42.0,41.5,30.22,WSW,244,0.0,0.0,98,0.00,,---,0.00,225.00,VWS V14.00,2013-11-16 13:42:00,
2013-11-16 08:43:00,42.3,41.8,30.22,WSW,244,0.0,0.0,98,0.00,,---,0.00,278.00,VWS V14.00,2013-11-16 13:43:00,
2013-11-16 08:44:00,42.5,42.0,30.22,WSW,244,0.0,0.0,98,0.00,,---,0.00,260.00,VWS V14.00,2013-11-16 13:44:00,
2013-11-16 08:45:00,42.8,42.3,30.22,WSW,244,0.0,0.0,98,0.00,,---,0.00,269.00,VWS V14.00,2013-11-16 13:45:00,
2013-11-16 08:46:00,43.0,42.5,30.22,WSW,244,0.0,0.0,98,0.00,,---,0.00,297.00,VWS V14.00,2013-11-16 13:46:00,
2013-11-16 08:47:00,43.2,42.7,30.22,WSW,244,0.0,0.0,98,0.00,,---,0.00,218.00,VWS V14.00,2013-11-16 13:47:00,
2013-11-16 08:48:00,43.4,42.9,30.22,WSW,244,0.0,1.0,98,0.00,,---,0.00,283.00,VWS V14.00,2013-11-16 13:48:00,
2013-11-16 08:49:00,43.6,43.1,30.22,WSW,244,0.0,1.0,98,0.00,,---,0.00,306.00,VWS V14.00,2013-11-16 13:49:00,
2013-11-16 08:50:00,43.9,43.4,30.22,WSW,244,0.0,1.0,98,0.00,,---,0.00,257.00,VWS V14.00,2013-11-16 13:50:00,
2013-11-16 08:51:00,44.1,43.6,30.22,WSW,244,0.0,1.0,98,0.00,,---,0.00,301.00,VWS V14.00,2013-11-16 13:51:00,
2013-11-16 08:52:00,44.3,43.5,30.23,WSW,244,0.0,1.0,97,0.00,,---,0.00,237.00,VWS V14.00,2013-11-16 13:52:00,
2013-11-16 08:53:00,44.6,43.8,30.23,WSW,244,0.0,1.0,97,0.00,,---,0.00,183.00,VWS V14.00,2013-11-16 13:53:00,
2013-11-16 08:54:00,44.8,44.0,30.23,WSW,244,0.0,1.0,97,0.00,,---,0.00,102.00,VWS V14.00,2013-11-16 13:54:00,
2013-11-16 08:55:00,45.0,44.2,30.23,WSW,244,0.0,1.0,97,0.00,,---,0.00,102.00,VWS V14.00,2013-11-16 13:55:00,
2013-11-16 08:56:00,45.2,44.1,30.22,WSW,244,0.0,1.0,96,0.00,,---,0.00,262.00,VWS V14.00,2013-11-16 13:56:00,
2013-11-16 08:57:00,45.4,44.0,30.22,WSW,244,0.0,1.0,95,0.00,,---,0.00,248.00,VWS V14.00,2013-11-16 13:57:00,
2013-11-16 08:58:00,45.5,44.2,30.22,WSW,244,0.0,1.0,95,0.00,,---,0.00,209.00,VWS V14.00,2013-11-16 13:58:00,
2013-11-16 08:59:00,45.8,44.2,30.22,WSW,244,0.0,1.0,94,0.00,,---,0.00,295.00,VWS V14.00,2013-11-16 13:59:00,
2013-11-16 09:00:00,46.0,44.1,30.22,WSW,244,0.0,1.0,93,0.00,,---,0.00,302.00,VWS V14.00,2013-11-16 14:00:00,
2013-11-16 09:01:00,46.1,44.2,30.22,WSW,244,0.0,0.0,93,0.00,,---,0.00,318.00,VWS V14.00,2013-11-16 14:01:00,
2013-11-16 09:02:00,46.3,44.1,30.22,WSW,244,0.0,0.0,92,0.00,,---,0.00,318.00,VWS V14.00,2013-11-16 14:02:00,
2013-11-16 09:03:00,46.4,44.2,30.22,WSW,244,0.0,0.0,92,0.00,,---,0.00,325.00,VWS V14.00,2013-11-16 14:03:00,
2013-11-16 09:04:00,46.6,44.4,30.22,WSW,245,0.0,1.0,92,0.00,,---,0.00,329.00,VWS V14.00,2013-11-16 14:04:00,
2013-11-16 09:05:00,46.8,44.3,30.22,WSW,245,0.0,1.0,91,0.00,,---,0.00,315.00,VWS V14.00,2013-11-16 14:05:00,
2013-11-16 09:06:00,46.9,44.4,30.22,WSW,245,0.0,1.0,91,0.00,,---,0.00,323.00,VWS V14.00,2013-11-16 14:06:00,
2013-11-16 09:07:00,47.0,44.2,30.22,WSW,245,0.0,1.0,90,0.00,,---,0.00,336.00,VWS V14.00,2013-11-16 14:07:00,
2013-11-16 09:08:00,47.1,44.3,30.22,WSW,245,0.0,1.0,90,0.00,,---,0.00,322.00,VWS V14.00,2013-11-16 14:08:00,
2013-11-16 09:09:00,47.2,44.4,30.22,WSW,245,0.0,1.0,90,0.00,,---,0.00,322.00,VWS V14.00,2013-11-16 14:09:00,
2013-11-16 09:10:00,47.4,44.6,30.22,WSW,245,0.0,1.0,90,0.00,,---,0.00,345.00,VWS V14.00,2013-11-16 14:10:00,
2013-11-16 09:11:00,47.6,45.1,30.22,WSW,238,0.0,1.0,91,0.00,,---,0.00,315.00,VWS V14.00,2013-11-16 14:11:00,
2013-11-16 09:12:00,47.8,45.3,30.22,WSW,238,0.0,1.0,91,0.00,,---,0.00,355.00,VWS V14.00,2013-11-16 14:12:00,
2013-11-16 09:13:00,48.0,45.2,30.22,WSW,238,0.0,1.0,90,0.00,,---,0.00,362.00,VWS V14.00,2013-11-16 14:13:00,
2013-11-16 09:14:00,48.1,45.0,30.22,WSW,238,0.0,1.0,89,0.00,,---,0.00,297.00,VWS V14.00,2013-11-16 14:14:00,
2013-11-16 09:15:00,48.3,44.9,30.22,WSW,238,0.0,1.0,88,0.00,,---,0.00,285.00,VWS V14.00,2013-11-16 14:15:00,
2013-11-16 09:16:00,48.4,45.0,30.22,WSW,238,0.0,1.0,88,0.00,,---,0.00,264.00,VWS V14.00,2013-11-16 14:16:00,
2013-11-16 09:17:00,48.6,45.2,30.22,WSW,238,0.0,1.0,88,0.00,,---,0.00,355.00,VWS V14.00,2013-11-16 14:17:00,
2013-11-16 09:18:00,48.8,45.4,30.22,WSW,238,0.0,1.0,88,0.00,,---,0.00,367.00,VWS V14.00,2013-11-16 14:18:00,
2013-11-16 09:19:00,49.0,45.6,30.22,WSW,238,0.0,1.0,88,0.00,,---,0.00,360.00,VWS V14.00,2013-11-16 14:19:00,
2013-11-16 09:20:00,49.3,45.6,30.21,WSW,238,0.0,1.0,87,0.00,,---,0.00,362.00,VWS V14.00,2013-11-16 14:20:00,
2013-11-16 09:21:00,49.5,46.1,30.22,WSW,238,0.0,1.0,88,0.00,,---,0.00,357.00,VWS V14.00,2013-11-16 14:21:00,
2013-11-16 09:22:00,49.7,46.3,30.22,WSW,238,0.0,1.0,88,0.00,,---,0.00,364.00,VWS V14.00,2013-11-16 14:22:00,
2013-11-16 09:23:00,49.9,46.2,30.22,WSW,238,0.0,1.0,87,0.00,,---,0.00,364.00,VWS V14.00,2013-11-16 14:23:00,
2013-11-16 09:24:00,50.2,45.9,30.22,WSW,238,0.0,1.0,85,0.00,,---,0.00,380.00,VWS V14.00,2013-11-16 14:24:00,
2013-11-16 09:25:00,50.4,46.1,30.22,WSW,238,0.0,1.0,85,0.00,,---,0.00,394.00,VWS V14.00,2013-11-16 14:25:00,
2013-11-16 09:26:00,50.6,46.3,30.22,WSW,238,0.0,1.0,85,0.00,,---,0.00,406.00,VWS V14.00,2013-11-16 14:26:00,
2013-11-16 09:27:00,50.9,46.6,30.22,WSW,238,0.0,1.0,85,0.00,,---,0.00,387.00,VWS V14.00,2013-11-16 14:27:00,
2013-11-16 09:28:00,51.0,46.7,30.22,WSW,238,0.0,1.0,85,0.00,,---,0.00,297.00,VWS V14.00,2013-11-16 14:28:00,
2013-11-16 09:29:00,51.2,46.5,30.22,WSW,238,0.0,1.0,84,0.00,,---,0.00,297.00,VWS V14.00,2013-11-16 14:29:00,
2013-11-16 09:30:00,51.4,46.4,30.22,WSW,238,0.0,1.0,83,0.00,,---,0.00,492.00,VWS V14.00,2013-11-16 14:30:00,
2013-11-16 09:31:00,51.6,46.6,30.22,SW,236,0.0,1.0,83,0.00,,---,0.00,492.00,VWS V14.00,2013-11-16 14:31:00,
2013-11-16 09:32:00,51.8,46.5,30.22,SW,235,0.0,2.0,82,0.00,,---,0.00,281.00,VWS V14.00,2013-11-16 14:32:00,
2013-11-16 09:33:00,51.9,46.3,30.22,SW,235,0.0,2.0,81,0.00,,---,0.00,362.00,VWS V14.00,2013-11-16 14:33:00,
2013-11-16 09:34:00,52.1,46.5,30.21,SW,234,1.0,2.0,81,0.00,,---,0.00,362.00,VWS V14.00,2013-11-16 14:34:00,
2013-11-16 09:35:00,52.2,46.9,30.21,SW,234,0.0,2.0,82,0.00,,---,0.00,362.00,VWS V14.00,2013-11-16 14:35:00,
2013-11-16 09:36:00,52.3,46.7,30.22,SW,234,0.0,2.0,81,0.00,,---,0.00,336.00,VWS V14.00,2013-11-16 14:36:00,
2013-11-16 09:37:00,52.5,47.2,30.22,SW,234,0.0,2.0,82,0.00,,---,0.00,336.00,VWS V14.00,2013-11-16 14:37:00,
2013-11-16 09:38:00,52.6,47.3,30.22,SW,234,0.0,2.0,82,0.00,,---,0.00,336.00,VWS V14.00,2013-11-16 14:38:00,
2013-11-16 09:39:00,52.8,47.8,30.22,SW,234,0.0,2.0,83,0.00,,---,0.00,492.00,VWS V14.00,2013-11-16 14:39:00,
2013-11-16 09:40:00,53.0,47.7,30.22,SW,234,0.0,2.0,82,0.00,,---,0.00,315.00,VWS V14.00,2013-11-16 14:40:00,
2013-11-16 09:41:00,53.2,47.5,30.22,SW,234,0.0,2.0,81,0.00,,---,0.00,315.00,VWS V14.00,2013-11-16 14:41:00,
2013-11-16 09:42:00,53.3,47.6,30.22,SW,234,0.0,2.0,81,0.00,,---,0.00,459.00,VWS V14.00,2013-11-16 14:42:00,
2013-11-16 09:43:00,53.5,47.5,30.22,SW,234,0.0,2.0,80,0.00,,---,0.00,459.00,VWS V14.00,2013-11-16 14:43:00,
2013-11-16 09:44:00,53.6,47.6,30.22,SW,234,0.0,2.0,80,0.00,,---,0.00,446.00,VWS V14.00,2013-11-16 14:44:00,
2013-11-16 09:45:00,53.8,47.5,30.22,SW,234,0.0,2.0,79,0.00,,---,0.00,446.00,VWS V14.00,2013-11-16 14:45:00,
2013-11-16 09:46:00,54.0,48.0,30.22,SW,234,0.0,2.0,80,0.00,,---,0.00,436.00,VWS V14.00,2013-11-16 14:46:00,
2013-11-16 09:47:00,54.1,47.7,30.22,South,186,2.0,2.0,79,0.00,,---,0.00,410.00,VWS V14.00,2013-11-16 14:47:00,
2013-11-16 09:48:00,54.3,47.6,30.21,South,177,1.0,4.0,78,0.00,,---,0.00,397.00,VWS V14.00,2013-11-16 14:48:00,
2013-11-16 09:49:00,54.4,47.7,30.21,South,175,0.0,4.0,78,0.00,,---,0.00,388.00,VWS V14.00,2013-11-16 14:49:00,
2013-11-16 09:50:00,54.6,47.5,30.21,South,175,0.0,4.0,77,0.00,,---,0.00,394.00,VWS V14.00,2013-11-16 14:50:00,
2013-11-16 09:51:00,54.8,47.7,30.21,South,175,0.0,4.0,77,0.00,,---,0.00,424.00,VWS V14.00,2013-11-16 14:51:00,
2013-11-16 09:52:00,54.9,47.8,30.21,South,175,0.0,4.0,77,0.00,,---,0.00,425.00,VWS V14.00,2013-11-16 14:52:00,
2013-11-16 09:53:00,55.0,48.3,30.21,South,175,0.0,4.0,78,0.00,,---,0.00,432.00,VWS V14.00,2013-11-16 14:53:00,
2013-11-16 09:54:00,55.2,48.1,30.21,South,171,1.0,4.0,77,0.00,,---,0.00,420.00,VWS V14.00,2013-11-16 14:54:00,
2013-11-16 09:55:00,55.3,47.9,30.22,South,171,0.0,4.0,76,0.00,,---,0.00,424.00,VWS V14.00,2013-11-16 14:55:00,
2013-11-16 09:56:00,55.4,48.0,30.22,South,171,0.0,4.0,76,0.00,,---,0.00,441.00,VWS V14.00,2013-11-16 14:56:00,
2013-11-16 09:57:00,55.6,48.5,30.21,South,171,0.0,4.0,77,0.00,,---,0.00,512.00,VWS V14.00,2013-11-16 14:57:00,
2013-11-16 09:58:00,55.6,48.2,30.21,South,171,0.0,4.0,76,0.00,,---,0.00,459.00,VWS V14.00,2013-11-16 14:58:00,
2013-11-16 09:59:00,55.8,48.4,30.21,South,171,0.0,4.0,76,0.00,,---,0.00,459.00,VWS V14.00,2013-11-16 14:59:00,
2013-11-16 10:00:00,55.9,48.5,30.21,South,171,0.0,4.0,76,0.00,,---,0.00,163.00,VWS V14.00,2013-11-16 15:00:00,
2013-11-16 10:01:00,56.0,48.2,30.21,South,171,0.0,0.0,75,0.00,,---,0.00,220.00,VWS V14.00,2013-11-16 15:01:00,
2013-11-16 10:02:00,56.0,48.2,30.21,South,171,0.0,0.0,75,0.00,,---,0.00,220.00,VWS V14.00,2013-11-16 15:02:00,
2013-11-16 10:03:00,56.1,48.7,30.21,South,171,0.0,0.0,76,0.00,,---,0.00,220.00,VWS V14.00,2013-11-16 15:03:00,
2013-11-16 10:04:00,56.2,48.8,30.21,South,171,0.0,0.0,76,0.00,,---,0.00,220.00,VWS V14.00,2013-11-16 15:04:00,
2013-11-16 10:05:00,56.4,48.6,30.21,South,171,0.0,0.0,75,0.00,,---,0.00,220.00,VWS V14.00,2013-11-16 15:05:00,
2013-11-16 10:06:00,56.4,48.9,30.21,South,171,0.0,0.0,76,0.00,,---,0.00,415.00,VWS V14.00,2013-11-16 15:06:00,
2013-11-16 10:07:00,56.6,49.1,30.21,South,171,0.0,0.0,76,0.00,,---,0.00,415.00,VWS V14.00,2013-11-16 15:07:00,
2013-11-16 10:08:00,56.7,48.9,30.21,South,171,0.0,1.0,75,0.00,,---,0.00,246.00,VWS V14.00,2013-11-16 15:08:00,
2013-11-16 10:09:00,56.7,48.9,30.21,South,171,0.0,1.0,75,0.00,,---,0.00,288.00,VWS V14.00,2013-11-16 15:09:00,
2013-11-16 10:10:00,56.8,49.0,30.21,South,171,0.0,1.0,75,0.00,,---,0.00,234.00,VWS V14.00,2013-11-16 15:10:00,
2013-11-16 10:11:00,56.8,49.0,30.21,South,171,0.0,1.0,75,0.00,,---,0.00,193.00,VWS V14.00,2013-11-16 15:11:00,
2013-11-16 10:12:00,56.9,48.7,30.21,South,171,0.0,1.0,74,0.00,,---,0.00,209.00,VWS V14.00,2013-11-16 15:12:00,
2013-11-16 10:13:00,56.9,49.1,30.21,South,171,1.0,1.0,75,0.00,,---,0.00,230.00,VWS V14.00,2013-11-16 15:13:00,
2013-11-16 10:14:00,57.0,48.8,30.21,South,169,0.0,1.0,74,0.00,,---,0.00,236.00,VWS V14.00,2013-11-16 15:14:00,
2013-11-16 10:15:00,57.0,48.8,30.21,South,169,0.0,1.0,74,0.00,,---,0.00,250.00,VWS V14.00,2013-11-16 15:15:00,
2013-11-16 10:16:00,57.1,48.5,30.21,South,169,0.0,1.0,73,0.00,,---,0.00,279.00,VWS V14.00,2013-11-16 15:16:00,
2013-11-16 10:17:00,57.1,48.9,30.21,SSE,165,1.0,1.0,74,0.00,,---,0.00,374.00,VWS V14.00,2013-11-16 15:17:00,
2013-11-16 10:18:00,57.1,48.5,30.21,SSE,165,0.0,1.0,73,0.00,,---,0.00,313.00,VWS V14.00,2013-11-16 15:18:00,
2013-11-16 10:19:00,57.1,48.5,30.21,SSE,165,0.0,1.0,73,0.00,,---,0.00,315.00,VWS V14.00,2013-11-16 15:19:00,
2013-11-16 10:20:00,57.2,49.0,30.21,SSE,165,0.0,1.0,74,0.00,,---,0.00,297.00,VWS V14.00,2013-11-16 15:20:00,
2013-11-16 10:21:00,57.2,49.0,30.21,SSE,151,0.0,2.0,74,0.00,,---,0.00,283.00,VWS V14.00,2013-11-16 15:21:00,
2013-11-16 10:22:00,57.2,48.6,30.21,SSE,150,1.0,2.0,73,0.00,,---,0.00,283.00,VWS V14.00,2013-11-16 15:22:00,
2013-11-16 10:23:00,57.1,48.5,30.21,SSE,150,0.0,2.0,73,0.00,,---,0.00,262.00,VWS V14.00,2013-11-16 15:23:00,
2013-11-16 10:24:00,57.1,48.2,30.21,SSE,150,0.0,2.0,72,0.00,,---,0.00,265.00,VWS V14.00,2013-11-16 15:24:00,
2013-11-16 10:25:00,57.1,48.5,30.21,SSE,150,1.0,2.0,73,0.00,,---,0.00,281.00,VWS V14.00,2013-11-16 15:25:00,
2013-11-16 10:26:00,57.1,48.2,30.21,SE,133,4.0,4.0,72,0.00,,---,0.00,278.00,VWS V14.00,2013-11-16 15:26:00,
2013-11-16 10:27:00,57.0,48.1,30.21,SE,133,2.0,4.0,72,0.00,,---,0.00,267.00,VWS V14.00,2013-11-16 15:27:00,
2013-11-16 10:28:00,56.9,48.0,30.21,SE,133,0.0,4.0,72,0.00,,---,0.00,262.00,VWS V14.00,2013-11-16 15:28:00,
2013-11-16 10:29:00,56.9,48.0,30.21,SE,133,2.0,4.0,72,0.00,,---,0.00,258.00,VWS V14.00,2013-11-16 15:29:00,
2013-11-16 10:30:00,56.8,48.2,30.21,SE,135,0.0,4.0,73,0.00,,---,0.00,260.00,VWS V14.00,2013-11-16 15:30:00,
2013-11-16 10:31:00,56.8,48.2,30.21,SE,136,0.0,1.0,73,0.00,,---,0.00,258.00,VWS V14.00,2013-11-16 15:31:00,
2013-11-16 10:32:00,56.7,48.2,30.21,SE,136,0.0,2.0,73,0.00,,---,0.00,260.00,VWS V14.00,2013-11-16 15:32:00,
2013-11-16 10:33:00,56.7,48.5,30.22,SE,136,0.0,2.0,74,0.00,,---,0.00,264.00,VWS V14.00,2013-11-16 15:33:00,
2013-11-16 10:34:00,56.7,48.2,30.22,SE,136,0.0,2.0,73,0.00,,---,0.00,265.00,VWS V14.00,2013-11-16 15:34:00,
2013-11-16 10:35:00,56.7,48.2,30.22,SE,136,0.0,2.0,73,0.00,,---,0.00,260.00,VWS V14.00,2013-11-16 15:35:00,
2013-11-16 10:36:00,56.7,48.2,30.22,SE,136,1.0,2.0,73,0.00,,---,0.00,253.00,VWS V14.00,2013-11-16 15:36:00,
2013-11-16 10:37:00,56.7,48.2,30.22,SE,137,0.0,2.0,73,0.00,,---,0.00,232.00,VWS V14.00,2013-11-16 15:37:00,
2013-11-16 10:38:00,56.8,48.2,30.21,SE,137,0.0,2.0,73,0.00,,---,0.00,223.00,VWS V14.00,2013-11-16 15:38:00,
2013-11-16 10:39:00,56.8,48.2,30.21,SE,138,1.0,2.0,73,0.00,,---,0.00,218.00,VWS V14.00,2013-11-16 15:39:00,
2013-11-16 10:40:00,56.8,48.2,30.21,SE,138,0.0,2.0,73,0.00,,---,0.00,220.00,VWS V14.00,2013-11-16 15:40:00,
2013-11-16 10:41:00,56.8,48.6,30.21,SE,138,0.0,2.0,74,0.00,,---,0.00,227.00,VWS V14.00,2013-11-16 15:41:00,
2013-11-16 10:42:00,56.9,49.1,30.21,SE,138,0.0,2.0,75,0.00,,---,0.00,236.00,VWS V14.00,2013-11-16 15:42:00,
2013-11-16 10:43:00,56.9,49.1,30.21,SE,138,0.0,2.0,75,0.00,,---,0.00,243.00,VWS V14.00,2013-11-16 15:43:00,
2013-11-16 10:44:00,56.9,48.7,30.21,WSW,243,2.0,4.0,74,0.00,,---,0.00,241.00,VWS V14.00,2013-11-16 15:44:00,
2013-11-16 10:45:00,57.0,49.2,30.22,WSW,242,0.0,4.0,75,0.00,,---,0.00,237.00,VWS V14.00,2013-11-16 15:45:00,
2013-11-16 10:46:00,57.0,49.2,30.22,SSE,164,4.0,4.0,75,0.00,,---,0.00,232.00,VWS V14.00,2013-11-16 15:46:00,
2013-11-16 10:47:00,57.1,48.5,30.22,SSE,165,0.0,4.0,73,0.00,,---,0.00,223.00,VWS V14.00,2013-11-16 15:47:00,
2013-11-16 10:48:00,57.1,48.5,30.22,SSE,165,0.0,4.0,73,0.00,,---,0.00,218.00,VWS V14.00,2013-11-16 15:48:00,
2013-11-16 10:49:00,57.1,48.5,30.22,SSE,165,0.0,4.0,73,0.00,,---,0.00,220.00,VWS V14.00,2013-11-16 15:49:00,
2013-11-16 10:50:00,57.1,48.9,30.21,SSE,165,0.0,4.0,74,0.00,,---,0.00,218.00,VWS V14.00,2013-11-16 15:50:00,
2013-11-16 10:51:00,57.1,48.9,30.21,SSE,165,0.0,4.0,74,0.00,,---,0.00,216.00,VWS V14.00,2013-11-16 15:51:00,
2013-11-16 10:54:00,57.2,49.0,30.21,ESE,122,0.0,6.0,74,0.00,,---,0.00,207.00,VWS V14.00,2013-11-16 15:54:00,
2013-11-16 10:55:00,57.2,48.6,30.21,SSE,153,4.0,6.0,73,0.00,,---,0.00,200.00,VWS V14.00,2013-11-16 15:55:00,
2013-11-16 10:56:00,57.3,48.4,30.21,SE,146,1.0,6.0,72,0.00,,---,0.00,195.00,VWS V14.00,2013-11-16 15:56:00,
2013-11-16 10:57:00,57.2,48.3,30.21,SSW,197,1.0,6.0,72,0.00,,---,0.00,192.00,VWS V14.00,2013-11-16 15:57:00,
2013-11-16 10:58:00,57.2,48.3,30.21,South,191,0.0,6.0,72,0.00,,---,0.00,190.00,VWS V14.00,2013-11-16 15:58:00,
2013-11-16 10:59:00,57.2,48.3,30.21,South,191,0.0,6.0,72,0.00,,---,0.00,188.00,VWS V14.00,2013-11-16 15:59:00,
2013-11-16 11:00:00,57.2,48.6,30.21,South,191,0.0,6.0,73,0.00,,---,0.00,197.00,VWS V14.00,2013-11-16 16:00:00,
2013-11-16 11:01:00,57.3,48.4,30.21,South,183,2.0,2.0,72,0.00,,---,0.00,197.00,VWS V14.00,2013-11-16 16:01:00,
2013-11-16 11:02:00,57.3,48.4,30.21,South,182,0.0,2.0,72,0.00,,---,0.00,199.00,VWS V14.00,2013-11-16 16:02:00,
2013-11-16 11:03:00,57.3,48.4,30.21,South,170,0.0,2.0,72,0.00,,---,0.00,202.00,VWS V14.00,2013-11-16 16:03:00,
2013-11-16 11:04:00,57.3,48.4,30.21,South,169,0.0,2.0,72,0.00,,---,0.00,207.00,VWS V14.00,2013-11-16 16:04:00,
2013-11-16 11:05:00,57.3,48.7,30.21,South,173,0.0,2.0,73,0.00,,---,0.00,214.00,VWS V14.00,2013-11-16 16:05:00,
2013-11-16 11:06:00,57.3,48.4,30.21,SSE,168,0.0,2.0,72,0.00,,---,0.00,216.00,VWS V14.00,2013-11-16 16:06:00,
2013-11-16 11:07:00,57.3,48.4,30.21,SE,145,1.0,4.0,72,0.00,,---,0.00,225.00,VWS V14.00,2013-11-16 16:07:00,
2013-11-16 11:08:00,57.3,48.4,30.21,ESE,117,0.0,5.0,72,0.00,,---,0.00,227.00,VWS V14.00,2013-11-16 16:08:00,
2013-11-16 11:09:00,57.3,48.4,30.21,SE,124,0.0,5.0,72,0.00,,---,0.00,229.00,VWS V14.00,2013-11-16 16:09:00,
2013-11-16 11:10:00,57.3,48.4,30.21,SE,126,0.0,5.0,72,0.00,,---,0.00,230.00,VWS V14.00,2013-11-16 16:10:00,
2013-11-16 11:11:00,57.3,48.4,30.21,SE,127,2.0,5.0,72,0.00,,---,0.00,230.00,VWS V14.00,2013-11-16 16:11:00,
2013-11-16 11:12:00,57.4,48.5,30.21,SE,128,0.0,5.0,72,0.00,,---,0.00,250.00,VWS V14.00,2013-11-16 16:12:00,
2013-11-16 11:13:00,57.4,48.5,30.21,SE,128,0.0,5.0,72,0.00,,---,0.00,258.00,VWS V14.00,2013-11-16 16:13:00,
2013-11-16 11:14:00,57.5,48.6,30.20,SE,128,0.0,5.0,72,0.00,,---,0.00,260.00,VWS V14.00,2013-11-16 16:14:00,
2013-11-16 11:15:00,57.5,48.9,30.20,SE,136,1.0,5.0,73,0.00,,---,0.00,255.00,VWS V14.00,2013-11-16 16:15:00,
2013-11-16 11:16:00,57.6,48.7,30.20,SE,137,0.0,5.0,72,0.00,,---,0.00,253.00,VWS V14.00,2013-11-16 16:16:00,
2013-11-16 11:17:00,57.6,48.7,30.20,SE,137,0.0,5.0,72,0.00,,---,0.00,264.00,VWS V14.00,2013-11-16 16:17:00,
2013-11-16 11:18:00,57.6,48.7,30.20,SE,138,0.0,5.0,72,0.00,,---,0.00,274.00,VWS V14.00,2013-11-16 16:18:00,
2013-11-16 11:19:00,57.7,48.8,30.20,SE,138,0.0,5.0,72,0.00,,---,0.00,274.00,VWS V14.00,2013-11-16 16:19:00,
2013-11-16 11:20:00,57.7,48.8,30.20,SE,138,0.0,5.0,72,0.00,,---,0.00,274.00,VWS V14.00,2013-11-16 16:20:00,
2013-11-16 11:21:00,57.7,48.8,30.19,SE,132,0.0,5.0,72,0.00,,---,0.00,279.00,VWS V14.00,2013-11-16 16:21:00,
2013-11-16 11:22:00,57.8,48.5,30.19,SE,132,0.0,5.0,71,0.00,,---,0.00,285.00,VWS V14.00,2013-11-16 16:22:00,
2013-11-16 11:23:00,57.8,48.5,30.19,SE,132,0.0,5.0,71,0.00,,---,0.00,290.00,VWS V14.00,2013-11-16 16:23:00,
2013-11-16 11:24:00,57.8,48.8,30.19,SE,131,0.0,5.0,72,0.00,,---,0.00,299.00,VWS V14.00,2013-11-16 16:24:00,
2013-11-16 11:25:00,57.9,49.3,30.19,SE,134,4.0,5.0,73,0.00,,---,0.00,301.00,VWS V14.00,2013-11-16 16:25:00,
2013-11-16 11:26:00,57.9,48.9,30.19,SE,145,0.0,5.0,72,0.00,,---,0.00,306.00,VWS V14.00,2013-11-16 16:26:00,
2013-11-16 11:27:00,58.0,49.0,30.19,SE,137,0.0,5.0,72,0.00,,---,0.00,311.00,VWS V14.00,2013-11-16 16:27:00,
2013-11-16 11:28:00,58.0,48.3,30.19,ESE,107,1.0,5.0,70,0.00,,---,0.00,311.00,VWS V14.00,2013-11-16 16:28:00,
2013-11-16 11:29:00,58.1,48.4,30.19,ESE,107,0.0,5.0,70,0.00,,---,0.00,308.00,VWS V14.00,2013-11-16 16:29:00,
2013-11-16 11:30:00,58.1,48.8,30.18,ESE,111,0.0,5.0,71,0.00,,---,0.00,346.00,VWS V14.00,2013-11-16 16:30:00,
2013-11-16 11:31:00,58.1,48.4,30.18,ESE,123,1.0,2.0,70,0.00,,---,0.00,336.00,VWS V14.00,2013-11-16 16:31:00,
2013-11-16 11:32:00,58.2,48.8,30.18,ESE,123,1.0,2.0,71,0.00,,---,0.00,325.00,VWS V14.00,2013-11-16 16:32:00,
2013-11-16 11:33:00,58.3,49.0,30.18,South,180,1.0,6.0,71,0.00,,---,0.00,329.00,VWS V14.00,2013-11-16 16:33:00,
2013-11-16 11:34:00,58.3,49.0,30.18,South,179,1.0,6.0,71,0.00,,---,0.00,322.00,VWS V14.00,2013-11-16 16:34:00,
2013-11-16 11:35:00,58.4,49.0,30.18,South,175,0.0,6.0,71,0.00,,---,0.00,341.00,VWS V14.00,2013-11-16 16:35:00,
2013-11-16 11:36:00,58.4,48.7,30.18,South,175,0.0,6.0,70,0.00,,---,0.00,316.00,VWS V14.00,2013-11-16 16:36:00,
2013-11-16 11:37:00,58.5,48.8,30.18,SSE,167,1.0,6.0,70,0.00,,---,0.00,237.00,VWS V14.00,2013-11-16 16:37:00,
2013-11-16 11:38:00,58.6,48.9,30.18,SSE,167,0.0,6.0,70,0.00,,---,0.00,227.00,VWS V14.00,2013-11-16 16:38:00,
2013-11-16 11:39:00,58.6,49.2,30.18,SSE,161,2.0,6.0,71,0.00,,---,0.00,234.00,VWS V14.00,2013-11-16 16:39:00,
2013-11-16 11:40:00,58.6,48.9,30.18,SSE,149,2.0,6.0,70,0.00,,---,0.00,276.00,VWS V14.00,2013-11-16 16:40:00,
2013-11-16 11:41:00,58.7,49.0,30.18,SSE,153,1.0,6.0,70,0.00,,---,0.00,269.00,VWS V14.00,2013-11-16 16:41:00,
2013-11-16 11:42:00,58.7,48.6,30.17,SSE,153,0.0,6.0,69,0.00,,---,0.00,258.00,VWS V14.00,2013-11-16 16:42:00,
2013-11-16 11:43:00,58.8,49.0,30.17,SSE,150,2.0,6.0,70,0.00,,---,0.00,258.00,VWS V14.00,2013-11-16 16:43:00,
2013-11-16 11:44:00,58.8,49.0,30.17,SSE,150,0.0,6.0,70,0.00,,---,0.00,260.00,VWS V14.00,2013-11-16 16:44:00,
2013-11-16 11:45:00,58.9,49.2,30.17,SSE,150,0.0,6.0,70,0.00,,---,0.00,260.00,VWS V14.00,2013-11-16 16:45:00,
2013-11-16 11:46:00,58.9,49.2,30.17,SSE,154,0.0,6.0,70,0.00,,---,0.00,265.00,VWS V14.00,2013-11-16 16:46:00,
2013-11-16 11:47:00,58.9,49.2,30.17,South,172,2.0,6.0,70,0.00,,---,0.00,260.00,VWS V14.00,2013-11-16 16:47:00,
2013-11-16 11:48:00,59.0,48.9,30.17,South,172,0.0,6.0,69,0.00,,---,0.00,250.00,VWS V14.00,2013-11-16 16:48:00,
2013-11-16 11:49:00,59.0,48.9,30.17,South,173,0.0,6.0,69,0.00,,---,0.00,243.00,VWS V14.00,2013-11-16 16:49:00,
2013-11-16 11:50:00,59.0,49.2,30.17,SSE,152,4.0,6.0,70,0.00,,---,0.00,237.00,VWS V14.00,2013-11-16 16:50:00,
2013-11-16 11:51:00,59.0,48.9,30.17,SSE,157,0.0,6.0,69,0.00,,---,0.00,234.00,VWS V14.00,2013-11-16 16:51:00,
2013-11-16 11:52:00,59.0,48.9,30.17,SSE,155,1.0,6.0,69,0.00,,---,0.00,237.00,VWS V14.00,2013-11-16 16:52:00,
2013-11-16 11:53:00,59.1,49.0,30.17,SSE,155,0.0,6.0,69,0.00,,---,0.00,262.00,VWS V14.00,2013-11-16 16:53:00,
2013-11-16 11:54:00,59.1,49.0,30.17,SSE,155,0.0,6.0,69,0.00,,---,0.00,264.00,VWS V14.00,2013-11-16 16:54:00,
2013-11-16 11:55:00,59.1,49.3,30.17,SSE,155,0.0,6.0,70,0.00,,---,0.00,262.00,VWS V14.00,2013-11-16 16:55:00,
2013-11-16 11:56:00,59.1,49.3,30.17,SSE,155,0.0,6.0,70,0.00,,---,0.00,260.00,VWS V14.00,2013-11-16 16:56:00,
2013-11-16 11:57:00,59.1,49.0,30.16,SSE,155,0.0,6.0,69,0.00,,---,0.00,255.00,VWS V14.00,2013-11-16 16:57:00,
2013-11-16 11:58:00,59.1,49.0,30.16,SSE,155,0.0,6.0,69,0.00,,---,0.00,251.00,VWS V14.00,2013-11-16 16:58:00,
2013-11-16 11:59:00,59.2,49.4,30.16,ESE,115,2.0,6.0,70,0.00,,---,0.00,267.00,VWS V14.00,2013-11-16 16:59:00,
2013-11-16 12:00:00,59.2,49.4,30.16,ESE,115,2.0,6.0,70,0.00,,---,0.00,281.00,VWS V14.00,2013-11-16 17:00:00,
2013-11-16 12:01:00,59.2,49.0,30.16,ESE,115,0.0,1.0,69,0.00,,---,0.00,271.00,VWS V14.00,2013-11-16 17:01:00,
2013-11-16 12:02:00,59.3,49.1,30.16,ESE,118,1.0,1.0,69,0.00,,---,0.00,267.00,VWS V14.00,2013-11-16 17:02:00,
2013-11-16 12:03:00,59.3,49.1,30.16,SSE,157,0.0,5.0,69,0.00,,---,0.00,262.00,VWS V14.00,2013-11-16 17:03:00,
2013-11-16 12:04:00,59.3,49.1,30.16,SSE,157,0.0,5.0,69,0.00,,---,0.00,260.00,VWS V14.00,2013-11-16 17:04:00,
2013-11-16 12:05:00,59.3,49.5,30.16,SSE,157,2.0,5.0,70,0.00,,---,0.00,294.00,VWS V14.00,2013-11-16 17:05:00,
2013-11-16 12:06:00,59.3,49.5,30.16,SSE,164,0.0,5.0,70,0.00,,---,0.00,315.00,VWS V14.00,2013-11-16 17:06:00,
2013-11-16 12:07:00,59.4,50.0,30.16,SSE,164,0.0,5.0,71,0.00,,---,0.00,308.00,VWS V14.00,2013-11-16 17:07:00,
2013-11-16 12:08:00,59.4,49.6,30.16,SSE,164,1.0,5.0,70,0.00,,---,0.00,304.00,VWS V14.00,2013-11-16 17:08:00,
2013-11-16 12:09:00,59.5,49.3,30.16,SSE,164,0.0,5.0,69,0.00,,---,0.00,322.00,VWS V14.00,2013-11-16 17:09:00,
2013-11-16 12:10:00,59.5,49.3,30.16,SSE,165,0.0,5.0,69,0.00,,---,0.00,352.00,VWS V14.00,2013-11-16 17:10:00,
2013-11-16 12:11:00,59.6,49.8,30.16,SSE,165,0.0,5.0,70,0.00,,---,0.00,401.00,VWS V14.00,2013-11-16 17:11:00,
2013-11-16 12:12:00,59.6,50.2,30.16,SSE,166,1.0,5.0,71,0.00,,---,0.00,388.00,VWS V14.00,2013-11-16 17:12:00,
2013-11-16 12:13:00,59.7,49.9,30.16,SSE,158,0.0,5.0,70,0.00,,---,0.00,369.00,VWS V14.00,2013-11-16 17:13:00,
2013-11-16 12:14:00,59.8,49.6,30.16,South,169,1.0,5.0,69,0.00,,---,0.00,334.00,VWS V14.00,2013-11-16 17:14:00,
2013-11-16 12:15:00,59.9,50.1,30.15,SSE,155,0.0,5.0,70,0.00,,---,0.00,327.00,VWS V14.00,2013-11-16 17:15:00,
2013-11-16 12:16:00,59.9,49.7,30.16,SSE,160,0.0,6.0,69,0.00,,---,0.00,338.00,VWS V14.00,2013-11-16 17:16:00,
2013-11-16 12:17:00,60.0,49.8,30.16,WSW,240,0.0,6.0,69,0.00,,---,0.00,374.00,VWS V14.00,2013-11-16 17:17:00,
2013-11-16 12:18:00,60.1,49.9,30.15,WSW,246,0.0,6.0,69,0.00,,---,0.00,369.00,VWS V14.00,2013-11-16 17:18:00,
2013-11-16 12:19:00,60.1,49.9,30.16,East,94,4.0,6.0,69,0.00,,---,0.00,373.00,VWS V14.00,2013-11-16 17:19:00,
2013-11-16 12:20:00,60.1,49.9,30.15,East,101,2.0,7.0,69,0.00,,---,0.00,371.00,VWS V14.00,2013-11-16 17:20:00,
2013-11-16 12:21:00,60.1,50.3,30.15,ESE,103,0.0,7.0,70,0.00,,---,0.00,362.00,VWS V14.00,2013-11-16 17:21:00,
2013-11-16 12:22:00,60.2,50.8,30.15,West,271,2.0,7.0,71,0.00,,---,0.00,357.00,VWS V14.00,2013-11-16 17:22:00,
2013-11-16 12:23:00,60.2,50.8,30.15,WSW,250,2.0,7.0,71,0.00,,---,0.00,339.00,VWS V14.00,2013-11-16 17:23:00,
2013-11-16 12:24:00,60.2,50.4,30.15,South,179,4.0,7.0,70,0.00,,---,0.00,336.00,VWS V14.00,2013-11-16 17:24:00,
2013-11-16 12:25:00,60.2,50.4,30.15,East,80,0.0,7.0,70,0.00,,---,0.00,336.00,VWS V14.00,2013-11-16 17:25:00,
2013-11-16 12:26:00,60.2,50.0,30.15,South,186,3.0,7.0,69,0.00,,---,0.00,338.00,VWS V14.00,2013-11-16 17:26:00,
2013-11-16 12:27:00,60.3,50.1,30.15,ESE,109,2.0,7.0,69,0.00,,---,0.00,346.00,VWS V14.00,2013-11-16 17:27:00,
2013-11-16 12:28:00,60.3,50.1,30.15,SE,136,1.0,7.0,69,0.00,,---,0.00,323.00,VWS V14.00,2013-11-16 17:28:00,
2013-11-16 12:29:00,60.3,50.1,30.15,SE,130,1.0,7.0,69,0.00,,---,0.00,304.00,VWS V14.00,2013-11-16 17:29:00,
2013-11-16 12:30:00,60.4,50.2,30.15,South,186,4.0,7.0,69,0.00,,---,0.00,288.00,VWS V14.00,2013-11-16 17:30:00,
2013-11-16 12:31:00,60.4,50.2,30.15,SE,143,0.0,4.0,69,0.00,,---,0.00,278.00,VWS V14.00,2013-11-16 17:31:00,
2013-11-16 12:32:00,60.4,50.2,30.15,East,98,2.0,4.0,69,0.00,,---,0.00,283.00,VWS V14.00,2013-11-16 17:32:00,
2013-11-16 12:33:00,60.4,50.2,30.15,SE,138,2.0,4.0,69,0.00,,---,0.00,279.00,VWS V14.00,2013-11-16 17:33:00,
2013-11-16 12:34:00,60.5,50.3,30.15,SE,138,0.0,4.0,69,0.00,,---,0.00,287.00,VWS V14.00,2013-11-16 17:34:00,
2013-11-16 12:35:00,60.5,50.7,30.14,SE,144,2.0,4.0,70,0.00,,---,0.00,274.00,VWS V14.00,2013-11-16 17:35:00,
2013-11-16 12:36:00,60.5,50.3,30.14,SE,138,0.0,4.0,69,0.00,,---,0.00,265.00,VWS V14.00,2013-11-16 17:36:00,
2013-11-16 12:37:00,60.6,50.4,30.14,South,169,1.0,6.0,69,0.00,,---,0.00,250.00,VWS V14.00,2013-11-16 17:37:00,
2013-11-16 12:38:00,60.6,50.0,30.14,SSE,151,1.0,6.0,68,0.00,,---,0.00,244.00,VWS V14.00,2013-11-16 17:38:00,
2013-11-16 12:39:00,60.6,50.4,30.14,South,183,0.0,6.0,69,0.00,,---,0.00,243.00,VWS V14.00,2013-11-16 17:39:00,
2013-11-16 12:40:00,60.7,50.5,30.14,South,182,0.0,6.0,69,0.00,,---,0.00,232.00,VWS V14.00,2013-11-16 17:40:00,
2013-11-16 12:41:00,60.7,50.1,30.14,South,182,1.0,6.0,68,0.00,,---,0.00,223.00,VWS V14.00,2013-11-16 17:41:00,
2013-11-16 12:42:00,60.7,50.1,30.14,South,182,0.0,6.0,68,0.00,,---,0.00,223.00,VWS V14.00,2013-11-16 17:42:00,
2013-11-16 12:43:00,60.7,50.1,30.14,South,183,2.0,6.0,68,0.00,,---,0.00,223.00,VWS V14.00,2013-11-16 17:43:00,
2013-11-16 12:44:00,60.7,50.5,30.14,SSW,194,2.0,6.0,69,0.00,,---,0.00,230.00,VWS V14.00,2013-11-16 17:44:00,
2013-11-16 12:45:00,60.7,50.9,30.13,South,185,2.0,6.0,70,0.00,,---,0.00,234.00,VWS V14.00,2013-11-16 17:45:00,
2013-11-16 12:46:00,60.7,50.5,30.13,SE,126,1.0,6.0,69,0.00,,---,0.00,230.00,VWS V14.00,2013-11-16 17:46:00,
2013-11-16 12:47:00,60.8,50.6,30.13,ESE,117,4.0,6.0,69,0.00,,---,0.00,229.00,VWS V14.00,2013-11-16 17:47:00,
2013-11-16 12:48:00,60.8,50.6,30.13,ESE,117,0.0,6.0,69,0.00,,---,0.00,237.00,VWS V14.00,2013-11-16 17:48:00,
2013-11-16 12:49:00,60.8,50.6,30.13,ESE,119,0.0,6.0,69,0.00,,---,0.00,267.00,VWS V14.00,2013-11-16 17:49:00,
2013-11-16 12:50:00,60.8,50.6,30.13,ESE,119,0.0,6.0,69,0.00,,---,0.00,248.00,VWS V14.00,2013-11-16 17:50:00,
2013-11-16 12:51:00,60.9,50.7,30.13,ESE,111,1.0,6.0,69,0.00,,---,0.00,264.00,VWS V14.00,2013-11-16 17:51:00,
2013-11-16 12:52:00,61.0,50.8,30.13,ESE,107,0.0,6.0,69,0.00,,---,0.00,255.00,VWS V14.00,2013-11-16 17:52:00,
2013-11-16 12:53:00,61.0,50.8,30.13,East,96,4.0,6.0,69,0.00,,---,0.00,248.00,VWS V14.00,2013-11-16 17:53:00,
2013-11-16 12:54:00,61.1,50.9,30.13,East,90,9.0,11.0,69,0.00,,---,0.00,248.00,VWS V14.00,2013-11-16 17:54:00,
2013-11-16 12:55:00,61.1,50.5,30.13,East,86,4.0,11.0,68,0.00,,---,0.00,274.00,VWS V14.00,2013-11-16 17:55:00,
2013-11-16 12:56:00,61.1,50.5,30.12,SSE,166,2.0,11.0,68,0.00,,---,0.00,306.00,VWS V14.00,2013-11-16 17:56:00,
2013-11-16 12:57:00,61.1,50.5,30.12,SSE,164,0.0,11.0,68,0.00,,---,0.00,297.00,VWS V14.00,2013-11-16 17:57:00,
2013-11-16 12:58:00,61.1,50.9,30.12,SW,228,4.0,11.0,69,0.00,,---,0.00,343.00,VWS V14.00,2013-11-16 17:58:00,
2013-11-16 12:59:00,61.2,51.0,30.12,SSW,213,1.0,11.0,69,0.00,,---,0.00,411.00,VWS V14.00,2013-11-16 17:59:00,
2013-11-16 13:00:00,61.2,51.0,30.12,SSW,211,0.0,11.0,69,0.00,,---,0.00,468.00,VWS V14.00,2013-11-16 18:00:00,
2013-11-16 13:01:00,61.3,50.7,30.12,SSW,211,0.0,2.0,68,0.00,,---,0.00,475.00,VWS V14.00,2013-11-16 18:01:00,
2013-11-16 13:02:00,61.4,51.2,30.12,SSW,200,3.0,6.0,69,0.00,,---,0.00,455.00,VWS V14.00,2013-11-16 18:02:00,
2013-11-16 13:03:00,61.4,50.8,30.12,SSE,165,1.0,10.0,68,0.00,,---,0.00,436.00,VWS V14.00,2013-11-16 18:03:00,
2013-11-16 13:04:00,61.5,51.2,30.12,ESE,105,1.0,10.0,69,0.00,,---,0.00,445.00,VWS V14.00,2013-11-16 18:04:00,
2013-11-16 13:05:00,61.6,51.0,30.12,SSE,148,1.0,10.0,68,0.00,,---,0.00,404.00,VWS V14.00,2013-11-16 18:05:00,
2013-11-16 13:06:00,61.7,51.0,30.12,SW,216,4.0,10.0,68,0.00,,---,0.00,390.00,VWS V14.00,2013-11-16 18:06:00,
2013-11-16 13:07:00,61.8,51.5,30.12,ESE,111,2.0,10.0,69,0.00,,---,0.00,418.00,VWS V14.00,2013-11-16 18:07:00,
2013-11-16 13:08:00,61.9,51.2,30.12,SSE,165,0.0,10.0,68,0.00,,---,0.00,392.00,VWS V14.00,2013-11-16 18:08:00,
2013-11-16 13:09:00,62.0,51.3,30.12,SSE,160,4.0,10.0,68,0.00,,---,0.00,397.00,VWS V14.00,2013-11-16 18:09:00,
2013-11-16 13:10:00,62.0,51.3,30.12,South,178,0.0,10.0,68,0.00,,---,0.00,406.00,VWS V14.00,2013-11-16 18:10:00,
2013-11-16 13:11:00,62.1,51.4,30.12,East,96,1.0,10.0,68,0.00,,---,0.00,438.00,VWS V14.00,2013-11-16 18:11:00,
2013-11-16 13:12:00,62.2,51.5,30.12,SW,219,0.0,10.0,68,0.00,,---,0.00,522.00,VWS V14.00,2013-11-16 18:12:00,
2013-11-16 13:13:00,62.3,51.6,30.12,SE,146,5.0,10.0,68,0.00,,---,0.00,475.00,VWS V14.00,2013-11-16 18:13:00,
2013-11-16 13:14:00,62.3,51.6,30.12,SSE,153,2.0,10.0,68,0.00,,---,0.00,443.00,VWS V14.00,2013-11-16 18:14:00,
2013-11-16 13:15:00,62.5,51.8,30.12,SSE,157,2.0,10.0,68,0.00,,---,0.00,476.00,VWS V14.00,2013-11-16 18:15:00,
2013-11-16 13:16:00,62.5,51.4,30.12,SE,129,5.0,10.0,67,0.00,,---,0.00,439.00,VWS V14.00,2013-11-16 18:16:00,
2013-11-16 13:17:00,62.5,51.4,30.12,South,174,1.0,10.0,67,0.00,,---,0.00,404.00,VWS V14.00,2013-11-16 18:17:00,
2013-11-16 13:18:00,62.6,51.5,30.12,SE,124,0.0,10.0,67,0.00,,---,0.00,399.00,VWS V14.00,2013-11-16 18:18:00,
2013-11-16 13:19:00,62.7,51.6,30.11,SE,135,2.0,10.0,67,0.00,,---,0.00,390.00,VWS V14.00,2013-11-16 18:19:00,
2013-11-16 13:20:00,62.7,51.6,30.11,SE,146,0.0,10.0,67,0.00,,---,0.00,385.00,VWS V14.00,2013-11-16 18:20:00,
2013-11-16 13:21:00,62.8,51.7,30.11,East,86,3.0,10.0,67,0.00,,---,0.00,320.00,VWS V14.00,2013-11-16 18:21:00,
2013-11-16 13:22:00,62.9,51.8,30.11,SSW,205,5.0,10.0,67,0.00,,---,0.00,364.00,VWS V14.00,2013-11-16 18:22:00,
2013-11-16 13:23:00,62.9,51.8,30.11,WSW,248,1.0,10.0,67,0.00,,---,0.00,301.00,VWS V14.00,2013-11-16 18:23:00,
2013-11-16 13:24:00,62.9,51.8,30.11,SE,139,1.0,10.0,67,0.00,,---,0.00,320.00,VWS V14.00,2013-11-16 18:24:00,
2013-11-16 13:25:00,63.0,51.9,30.11,SW,225,3.0,10.0,67,0.00,,---,0.00,308.00,VWS V14.00,2013-11-16 18:25:00,
2013-11-16 13:26:00,63.0,51.5,30.11,ESE,110,0.0,10.0,66,0.00,,---,0.00,320.00,VWS V14.00,2013-11-16 18:26:00,
2013-11-16 13:27:00,63.0,51.9,30.11,ESE,115,0.0,10.0,67,0.00,,---,0.00,278.00,VWS V14.00,2013-11-16 18:27:00,
2013-11-16 13:28:00,63.0,51.9,30.11,SSE,163,0.0,10.0,67,0.00,,---,0.00,272.00,VWS V14.00,2013-11-16 18:28:00,
2013-11-16 13:29:00,63.0,51.9,30.11,SE,134,1.0,10.0,67,0.00,,---,0.00,262.00,VWS V14.00,2013-11-16 18:29:00,
2013-11-16 13:30:00,63.1,52.0,30.11,SE,138,0.0,10.0,67,0.00,,---,0.00,255.00,VWS V14.00,2013-11-16 18:30:00,
2013-11-16 13:31:00,63.1,52.0,30.11,SSW,210,1.0,4.0,67,0.00,,---,0.00,246.00,VWS V14.00,2013-11-16 18:31:00,
2013-11-16 13:32:00,63.1,52.0,30.10,SSE,153,2.0,5.0,67,0.00,,---,0.00,250.00,VWS V14.00,2013-11-16 18:32:00,
2013-11-16 13:33:00,63.1,51.6,30.10,SSE,164,5.0,6.0,66,0.00,,---,0.00,262.00,VWS V14.00,2013-11-16 18:33:00,
2013-11-16 13:34:00,63.1,51.6,30.10,SE,136,0.0,6.0,66,0.00,,---,0.00,250.00,VWS V14.00,2013-11-16 18:34:00,
2013-11-16 13:35:00,63.1,51.6,30.10,South,181,4.0,8.0,66,0.00,,---,0.00,253.00,VWS V14.00,2013-11-16 18:35:00,
2013-11-16 13:36:00,63.1,51.6,30.10,SE,128,1.0,8.0,66,0.00,,---,0.00,253.00,VWS V14.00,2013-11-16 18:36:00,
2013-11-16 13:37:00,63.1,51.6,30.10,ESE,123,4.0,8.0,66,0.00,,---,0.00,248.00,VWS V14.00,2013-11-16 18:37:00,
2013-11-16 13:38:00,63.1,51.2,30.10,SSE,168,1.0,8.0,65,0.00,,---,0.00,244.00,VWS V14.00,2013-11-16 18:38:00,
2013-11-16 13:39:00,63.0,51.5,30.10,SSE,156,0.0,8.0,66,0.00,,---,0.00,243.00,VWS V14.00,2013-11-16 18:39:00,
2013-11-16 13:40:00,63.0,51.5,30.10,SSE,163,0.0,8.0,66,0.00,,---,0.00,239.00,VWS V14.00,2013-11-16 18:40:00,
2013-11-16 13:41:00,63.0,51.5,30.10,SE,126,0.0,8.0,66,0.00,,---,0.00,236.00,VWS V14.00,2013-11-16 18:41:00,
2013-11-16 13:42:00,63.0,51.9,30.10,SW,214,5.0,8.0,67,0.00,,---,0.00,227.00,VWS V14.00,2013-11-16 18:42:00,
2013-11-16 13:43:00,63.0,51.5,30.10,SSW,192,3.0,8.0,66,0.00,,---,0.00,230.00,VWS V14.00,2013-11-16 18:43:00,
2013-11-16 13:44:00,63.0,51.5,30.10,SSE,161,2.0,8.0,66,0.00,,---,0.00,211.00,VWS V14.00,2013-11-16 18:44:00,
2013-11-16 13:45:00,63.0,51.5,30.10,ENE,61,1.0,8.0,66,0.00,,---,0.00,204.00,VWS V14.00,2013-11-16 18:45:00,
2013-11-16 13:46:00,63.0,51.9,30.10,SSW,199,2.0,8.0,67,0.00,,---,0.00,206.00,VWS V14.00,2013-11-16 18:46:00,
2013-11-16 13:47:00,63.1,52.0,30.10,South,169,2.0,8.0,67,0.00,,---,0.00,206.00,VWS V14.00,2013-11-16 18:47:00,
2013-11-16 13:48:00,63.1,51.6,30.10,South,169,0.0,8.0,66,0.00,,---,0.00,199.00,VWS V14.00,2013-11-16 18:48:00,
2013-11-16 13:49:00,63.1,51.6,30.10,South,188,0.0,8.0,66,0.00,,---,0.00,206.00,VWS V14.00,2013-11-16 18:49:00,
2013-11-16 13:50:00,63.1,52.0,30.10,South,188,0.0,8.0,67,0.00,,---,0.00,207.00,VWS V14.00,2013-11-16 18:50:00,
2013-11-16 13:51:00,63.1,52.0,30.10,South,189,0.0,8.0,67,0.00,,---,0.00,206.00,VWS V14.00,2013-11-16 18:51:00,
2013-11-16 13:52:00,63.2,52.1,30.10,South,189,0.0,8.0,67,0.00,,---,0.00,206.00,VWS V14.00,2013-11-16 18:52:00,
2013-11-16 13:53:00,63.2,52.5,30.10,South,188,1.0,8.0,68,0.00,,---,0.00,204.00,VWS V14.00,2013-11-16 18:53:00,
2013-11-16 13:54:00,63.3,52.2,30.10,South,188,0.0,8.0,67,0.00,,---,0.00,202.00,VWS V14.00,2013-11-16 18:54:00,
2013-11-16 13:55:00,63.4,52.3,30.10,South,190,0.0,8.0,67,0.00,,---,0.00,200.00,VWS V14.00,2013-11-16 18:55:00,
2013-11-16 13:56:00,63.4,51.9,30.10,WNW,303,0.0,8.0,66,0.00,,---,0.00,197.00,VWS V14.00,2013-11-16 18:56:00,
2013-11-16 13:57:00,63.5,52.4,30.10,WNW,303,0.0,8.0,67,0.00,,---,0.00,195.00,VWS V14.00,2013-11-16 18:57:00,
2013-11-16 13:58:00,63.6,52.5,30.10,SW,229,1.0,8.0,67,0.00,,---,0.00,192.00,VWS V14.00,2013-11-16 18:58:00,
2013-11-16 13:59:00,63.6,52.0,30.10,South,170,1.0,8.0,66,0.00,,---,0.00,190.00,VWS V14.00,2013-11-16 18:59:00,
2013-11-16 14:00:00,63.7,52.1,30.10,South,177,0.0,8.0,66,0.00,,---,0.00,186.00,VWS V14.00,2013-11-16 19:00:00,
2013-11-16 14:01:00,63.7,52.1,30.10,South,174,0.0,1.0,66,0.00,,---,0.00,183.00,VWS V14.00,2013-11-16 19:01:00,
2013-11-16 14:02:00,63.7,52.1,30.10,South,178,0.0,2.0,66,0.00,,---,0.00,176.00,VWS V14.00,2013-11-16 19:02:00,
2013-11-16 14:03:00,63.8,52.2,30.10,South,178,0.0,2.0,66,0.00,,---,0.00,174.00,VWS V14.00,2013-11-16 19:03:00,
2013-11-16 14:04:00,63.8,52.2,30.10,South,178,0.0,2.0,66,0.00,,---,0.00,172.00,VWS V14.00,2013-11-16 19:04:00,
2013-11-16 14:05:00,63.8,52.7,30.10,SE,139,1.0,6.0,67,0.00,,---,0.00,172.00,VWS V14.00,2013-11-16 19:05:00,
2013-11-16 14:06:00,63.8,51.8,30.10,ESE,103,5.0,6.0,65,0.00,,---,0.00,171.00,VWS V14.00,2013-11-16 19:06:00,
2013-11-16 14:07:00,63.7,51.7,30.10,SE,130,6.0,6.0,65,0.00,,---,0.00,171.00,VWS V14.00,2013-11-16 19:07:00,
2013-11-16 14:08:00,63.6,51.6,30.10,SSE,148,2.0,7.0,65,0.00,,---,0.00,169.00,VWS V14.00,2013-11-16 19:08:00,
2013-11-16 14:09:00,63.6,51.6,30.10,SSE,165,0.0,7.0,65,0.00,,---,0.00,169.00,VWS V14.00,2013-11-16 19:09:00,
2013-11-16 14:10:00,63.5,52.4,30.10,SSE,157,0.0,7.0,67,0.00,,---,0.00,169.00,VWS V14.00,2013-11-16 19:10:00,
2013-11-16 14:11:00,63.5,52.0,30.10,SE,140,1.0,7.0,66,0.00,,---,0.00,169.00,VWS V14.00,2013-11-16 19:11:00,
2013-11-16 14:12:00,63.4,51.9,30.10,South,179,0.0,7.0,66,0.00,,---,0.00,169.00,VWS V14.00,2013-11-16 19:12:00,
2013-11-16 14:13:00,63.4,51.4,30.10,SE,130,7.0,7.0,65,0.00,,---,0.00,169.00,VWS V14.00,2013-11-16 19:13:00,
2013-11-16 14:14:00,63.3,51.8,30.10,WSW,242,3.0,7.0,66,0.00,,---,0.00,167.00,VWS V14.00,2013-11-16 19:14:00,
2013-11-16 14:15:00,63.3,51.8,30.10,SW,236,0.0,7.0,66,0.00,,---,0.00,167.00,VWS V14.00,2013-11-16 19:15:00,
2013-11-16 14:16:00,63.2,52.1,30.10,SW,235,6.0,8.0,67,0.00,,---,0.00,163.00,VWS V14.00,2013-11-16 19:16:00,
2013-11-16 14:17:00,63.2,51.7,30.10,SSW,194,1.0,8.0,66,0.00,,---,0.00,160.00,VWS V14.00,2013-11-16 19:17:00,
2013-11-16 14:18:00,63.1,52.0,30.10,West,277,4.0,8.0,67,0.00,,---,0.00,160.00,VWS V14.00,2013-11-16 19:18:00,
2013-11-16 14:19:00,63.1,52.0,30.10,West,261,1.0,8.0,67,0.00,,---,0.00,151.00,VWS V14.00,2013-11-16 19:19:00,
2013-11-16 14:20:00,63.1,52.0,30.10,West,261,0.0,8.0,67,0.00,,---,0.00,149.00,VWS V14.00,2013-11-16 19:20:00,
2013-11-16 14:21:00,63.1,52.4,30.10,West,261,0.0,8.0,68,0.00,,---,0.00,149.00,VWS V14.00,2013-11-16 19:21:00,
2013-11-16 14:22:00,63.0,52.3,30.11,WSW,258,1.0,8.0,68,0.00,,---,0.00,151.00,VWS V14.00,2013-11-16 19:22:00,
2013-11-16 14:23:00,63.0,51.9,30.10,WSW,249,1.0,8.0,67,0.00,,---,0.00,153.00,VWS V14.00,2013-11-16 19:23:00,
2013-11-16 14:24:00,63.0,51.9,30.10,WSW,240,2.0,8.0,67,0.00,,---,0.00,155.00,VWS V14.00,2013-11-16 19:24:00,
2013-11-16 14:25:00,63.0,52.3,30.10,WSW,240,0.0,8.0,68,0.00,,---,0.00,155.00,VWS V14.00,2013-11-16 19:25:00,
2013-11-16 14:26:00,62.9,51.8,30.10,SW,223,1.0,8.0,67,0.00,,---,0.00,156.00,VWS V14.00,2013-11-16 19:26:00,
2013-11-16 14:27:00,62.9,51.8,30.10,SW,223,0.0,8.0,67,0.00,,---,0.00,156.00,VWS V14.00,2013-11-16 19:27:00,
2013-11-16 14:28:00,62.9,51.8,30.10,SW,230,0.0,8.0,67,0.00,,---,0.00,158.00,VWS V14.00,2013-11-16 19:28:00,
2013-11-16 14:29:00,62.9,51.8,30.10,SW,222,2.0,8.0,67,0.00,,---,0.00,158.00,VWS V14.00,2013-11-16 19:29:00,
2013-11-16 14:30:00,62.9,51.8,30.10,SW,223,0.0,8.0,67,0.00,,---,0.00,158.00,VWS V14.00,2013-11-16 19:30:00,
2013-11-16 14:31:00,62.9,52.2,30.10,WSW,250,0.0,4.0,68,0.00,,---,0.00,160.00,VWS V14.00,2013-11-16 19:31:00,
2013-11-16 14:32:00,62.9,52.2,30.10,WSW,250,0.0,4.0,68,0.00,,---,0.00,160.00,VWS V14.00,2013-11-16 19:32:00,
2013-11-16 14:33:00,62.8,52.5,30.10,WSW,251,1.0,4.0,69,0.00,,---,0.00,158.00,VWS V14.00,2013-11-16 19:33:00,
2013-11-16 14:34:00,62.8,52.1,30.10,WSW,252,2.0,4.0,68,0.00,,---,0.00,158.00,VWS V14.00,2013-11-16 19:34:00,
2013-11-16 14:35:00,62.8,52.5,30.10,WSW,252,0.0,4.0,69,0.00,,---,0.00,158.00,VWS V14.00,2013-11-16 19:35:00,
2013-11-16 14:36:00,62.8,52.5,30.10,WSW,252,0.0,4.0,69,0.00,,---,0.00,158.00,VWS V14.00,2013-11-16 19:36:00,
2013-11-16 14:37:00,62.8,52.1,30.10,WSW,252,0.0,4.0,68,0.00,,---,0.00,156.00,VWS V14.00,2013-11-16 19:37:00,
2013-11-16 14:38:00,62.8,52.1,30.10,WSW,253,1.0,4.0,68,0.00,,---,0.00,158.00,VWS V14.00,2013-11-16 19:38:00,
2013-11-16 14:39:00,62.7,52.0,30.10,WSW,257,0.0,4.0,68,0.00,,---,0.00,160.00,VWS V14.00,2013-11-16 19:39:00,
2013-11-16 14:40:00,62.7,52.0,30.10,WSW,257,0.0,4.0,68,0.00,,---,0.00,163.00,VWS V14.00,2013-11-16 19:40:00,
2013-11-16 14:41:00,62.8,52.1,30.09,WSW,257,0.0,4.0,68,0.00,,---,0.00,167.00,VWS V14.00,2013-11-16 19:41:00,
2013-11-16 14:42:00,62.8,52.1,30.10,SW,233,2.0,4.0,68,0.00,,---,0.00,169.00,VWS V14.00,2013-11-16 19:42:00,
2013-11-16 14:43:00,62.8,52.1,30.10,SW,233,1.0,4.0,68,0.00,,---,0.00,167.00,VWS V14.00,2013-11-16 19:43:00,
2013-11-16 14:44:00,62.9,51.8,30.09,SW,219,2.0,4.0,67,0.00,,---,0.00,167.00,VWS V14.00,2013-11-16 19:44:00,
2013-11-16 14:45:00,62.9,51.8,30.09,SW,214,0.0,4.0,67,0.00,,---,0.00,165.00,VWS V14.00,2013-11-16 19:45:00,
2013-11-16 14:46:00,62.9,51.8,30.10,SW,217,0.0,4.0,67,0.00,,---,0.00,162.00,VWS V14.00,2013-11-16 19:46:00,
2013-11-16 14:47:00,63.0,52.3,30.10,SW,215,0.0,4.0,68,0.00,,---,0.00,158.00,VWS V14.00,2013-11-16 19:47:00,
2013-11-16 14:48:00,63.0,52.3,30.09,SSW,213,0.0,4.0,68,0.00,,---,0.00,156.00,VWS V14.00,2013-11-16 19:48:00,
2013-11-16 14:49:00,63.1,52.0,30.10,SSW,207,3.0,4.0,67,0.00,,---,0.00,151.00,VWS V14.00,2013-11-16 19:49:00,
2013-11-16 14:50:00,63.1,52.0,30.10,SSW,207,1.0,4.0,67,0.00,,---,0.00,148.00,VWS V14.00,2013-11-16 19:50:00,
2013-11-16 14:51:00,63.1,52.0,30.10,South,187,0.0,4.0,67,0.00,,---,0.00,144.00,VWS V14.00,2013-11-16 19:51:00,
2013-11-16 14:52:00,63.1,52.0,30.10,South,169,2.0,6.0,67,0.00,,---,0.00,139.00,VWS V14.00,2013-11-16 19:52:00,
2013-11-16 14:53:00,63.1,52.0,30.09,SSW,193,2.0,6.0,67,0.00,,---,0.00,135.00,VWS V14.00,2013-11-16 19:53:00,
2013-11-16 14:54:00,63.1,52.0,30.09,SSW,209,1.0,6.0,67,0.00,,---,0.00,135.00,VWS V14.00,2013-11-16 19:54:00,
2013-11-16 14:55:00,63.1,52.0,30.10,South,187,1.0,6.0,67,0.00,,---,0.00,125.00,VWS V14.00,2013-11-16 19:55:00,
2013-11-16 14:56:00,63.1,52.0,30.10,East,96,0.0,6.0,67,0.00,,---,0.00,121.00,VWS V14.00,2013-11-16 19:56:00,
2013-11-16 14:57:00,63.1,52.0,30.10,SE,127,4.0,6.0,67,0.00,,---,0.00,118.00,VWS V14.00,2013-11-16 19:57:00,
2013-11-16 14:58:00,63.1,52.0,30.10,SE,128,0.0,6.0,67,0.00,,---,0.00,111.00,VWS V14.00,2013-11-16 19:58:00,
2013-11-16 14:59:00,63.1,52.0,30.10,SE,138,1.0,6.0,67,0.00,,---,0.00,109.00,VWS V14.00,2013-11-16 19:59:00,
2013-11-16 15:00:00,63.1,52.0,30.10,SSE,152,2.0,6.0,67,0.00,,---,0.00,107.00,VWS V14.00,2013-11-16 20:00:00,
2013-11-16 15:01:00,63.1,52.0,30.10,South,190,3.0,7.0,67,0.00,,---,0.00,111.00,VWS V14.00,2013-11-16 20:01:00,
2013-11-16 15:02:00,63.1,52.0,30.10,South,190,3.0,7.0,67,0.00,,---,0.00,111.00,VWS V14.00,2013-11-16 20:02:00,
2013-11-16 15:03:00,63.1,52.0,30.10,South,180,0.0,7.0,67,0.00,,---,0.00,114.00,VWS V14.00,2013-11-16 20:03:00,
2013-11-16 15:04:00,63.1,52.0,30.10,SSW,193,3.0,7.0,67,0.00,,---,0.00,116.00,VWS V14.00,2013-11-16 20:04:00,
2013-11-16 15:05:00,63.1,52.0,30.10,South,175,0.0,7.0,67,0.00,,---,0.00,120.00,VWS V14.00,2013-11-16 20:05:00,
2013-11-16 15:06:00,63.1,52.0,30.10,South,175,0.0,7.0,67,0.00,,---,0.00,121.00,VWS V14.00,2013-11-16 20:06:00,
2013-11-16 15:07:00,63.1,52.0,30.10,SSW,201,1.0,7.0,67,0.00,,---,0.00,121.00,VWS V14.00,2013-11-16 20:07:00,
2013-11-16 15:08:00,63.1,52.0,30.09,SSW,198,0.0,7.0,67,0.00,,---,0.00,120.00,VWS V14.00,2013-11-16 20:08:00,
2013-11-16 15:09:00,63.0,51.9,30.09,SSW,199,0.0,7.0,67,0.00,,---,0.00,120.00,VWS V14.00,2013-11-16 20:09:00,
2013-11-16 15:10:00,63.0,51.9,30.09,SSW,198,0.0,7.0,67,0.00,,---,0.00,113.00,VWS V14.00,2013-11-16 20:10:00,
2013-11-16 15:11:00,63.0,51.9,30.09,SSW,198,1.0,7.0,67,0.00,,---,0.00,109.00,VWS V14.00,2013-11-16 20:11:00,
2013-11-16 15:12:00,63.0,51.9,30.09,SSW,197,0.0,7.0,67,0.00,,---,0.00,107.00,VWS V14.00,2013-11-16 20:12:00,
2013-11-16 15:13:00,63.0,52.3,30.09,SSW,197,0.0,7.0,68,0.00,,---,0.00,107.00,VWS V14.00,2013-11-16 20:13:00,
2013-11-16 15:14:00,63.0,51.9,30.09,South,175,0.0,7.0,67,0.00,,---,0.00,111.00,VWS V14.00,2013-11-16 20:14:00,
2013-11-16 15:15:00,63.0,51.9,30.09,South,187,3.0,7.0,67,0.00,,---,0.00,113.00,VWS V14.00,2013-11-16 20:15:00,
2013-11-16 15:16:00,63.0,51.9,30.09,South,186,2.0,7.0,67,0.00,,---,0.00,111.00,VWS V14.00,2013-11-16 20:16:00,
2013-11-16 15:17:00,63.0,52.3,30.10,South,186,0.0,7.0,68,0.00,,---,0.00,105.00,VWS V14.00,2013-11-16 20:17:00,
2013-11-16 15:18:00,62.9,52.2,30.10,South,186,0.0,7.0,68,0.00,,---,0.00,100.00,VWS V14.00,2013-11-16 20:18:00,
2013-11-16 15:19:00,62.9,52.6,30.10,South,186,0.0,7.0,69,0.00,,---,0.00,97.00,VWS V14.00,2013-11-16 20:19:00,
2013-11-16 15:20:00,62.9,52.6,30.10,South,186,0.0,7.0,69,0.00,,---,0.00,97.00,VWS V14.00,2013-11-16 20:20:00,
2013-11-16 15:21:00,62.9,52.2,30.10,South,186,0.0,7.0,68,0.00,,---,0.00,97.00,VWS V14.00,2013-11-16 20:21:00,
2013-11-16 15:22:00,62.9,52.2,30.10,South,186,0.0,7.0,68,0.00,,---,0.00,93.00,VWS V14.00,2013-11-16 20:22:00,
2013-11-16 15:23:00,62.9,52.2,30.10,South,186,0.0,7.0,68,0.00,,---,0.00,90.00,VWS V14.00,2013-11-16 20:23:00,
2013-11-16 15:24:00,62.8,52.1,30.09,South,186,0.0,7.0,68,0.00,,---,0.00,81.00,VWS V14.00,2013-11-16 20:24:00,
2013-11-16 15:25:00,62.9,52.2,30.10,South,170,2.0,7.0,68,0.00,,---,0.00,79.00,VWS V14.00,2013-11-16 20:25:00,
2013-11-16 15:26:00,62.9,52.2,30.10,South,170,0.0,7.0,68,0.00,,---,0.00,76.00,VWS V14.00,2013-11-16 20:26:00,
2013-11-16 15:27:00,62.8,52.1,30.09,South,169,0.0,7.0,68,0.00,,---,0.00,74.00,VWS V14.00,2013-11-16 20:27:00,
2013-11-16 15:28:00,62.8,52.1,30.09,ENE,76,4.0,7.0,68,0.00,,---,0.00,72.00,VWS V14.00,2013-11-16 20:28:00,
2013-11-16 15:29:00,62.8,52.1,30.09,ESE,123,0.0,7.0,68,0.00,,---,0.00,72.00,VWS V14.00,2013-11-16 20:29:00,
2013-11-16 15:30:00,62.8,52.1,30.09,SSE,159,1.0,7.0,68,0.00,,---,0.00,72.00,VWS V14.00,2013-11-16 20:30:00,
2013-11-16 15:31:00,62.7,52.0,30.09,SSE,159,0.0,1.0,68,0.00,,---,0.00,70.00,VWS V14.00,2013-11-16 20:31:00,
2013-11-16 15:32:00,62.7,52.0,30.09,SSE,161,1.0,1.0,68,0.00,,---,0.00,70.00,VWS V14.00,2013-11-16 20:32:00,
2013-11-16 15:33:00,62.7,52.0,30.09,SSW,193,0.0,3.0,68,0.00,,---,0.00,70.00,VWS V14.00,2013-11-16 20:33:00,
2013-11-16 15:34:00,62.7,52.0,30.09,SSW,193,0.0,3.0,68,0.00,,---,0.00,70.00,VWS V14.00,2013-11-16 20:34:00,
2013-11-16 15:35:00,62.7,52.0,30.09,West,266,5.0,6.0,68,0.00,,---,0.00,69.00,VWS V14.00,2013-11-16 20:35:00,
2013-11-16 15:36:00,62.7,52.0,30.09,SSW,202,1.0,7.0,68,0.00,,---,0.00,65.00,VWS V14.00,2013-11-16 20:36:00,
2013-11-16 15:37:00,62.6,52.3,30.09,ESE,123,0.0,7.0,69,0.00,,---,0.00,62.00,VWS V14.00,2013-11-16 20:37:00,
2013-11-16 15:38:00,62.6,52.3,30.09,SE,124,0.0,7.0,69,0.00,,---,0.00,56.00,VWS V14.00,2013-11-16 20:38:00,
2013-11-16 15:39:00,62.5,51.8,30.09,ESE,123,0.0,7.0,68,0.00,,---,0.00,53.00,VWS V14.00,2013-11-16 20:39:00,
2013-11-16 15:40:00,62.5,51.8,30.09,SE,124,0.0,7.0,68,0.00,,---,0.00,49.00,VWS V14.00,2013-11-16 20:40:00,
2013-11-16 15:41:00,62.5,51.8,30.09,SE,126,0.0,7.0,68,0.00,,---,0.00,46.00,VWS V14.00,2013-11-16 20:41:00,
2013-11-16 15:42:00,62.5,51.8,30.09,ESE,120,2.0,7.0,68,0.00,,---,0.00,46.00,VWS V14.00,2013-11-16 20:42:00,
2013-11-16 15:43:00,62.5,51.8,30.09,SE,130,1.0,7.0,68,0.00,,---,0.00,47.00,VWS V14.00,2013-11-16 20:43:00,
2013-11-16 15:44:00,62.4,51.7,30.09,SE,134,1.0,7.0,68,0.00,,---,0.00,51.00,VWS V14.00,2013-11-16 20:44:00,
2013-11-16 15:45:00,62.4,51.7,30.09,SE,134,0.0,7.0,68,0.00,,---,0.00,53.00,VWS V14.00,2013-11-16 20:45:00,
2013-11-16 15:46:00,62.4,52.1,30.09,SE,134,0.0,7.0,69,0.00,,---,0.00,56.00,VWS V14.00,2013-11-16 20:46:00,
2013-11-16 15:47:00,62.3,52.0,30.09,SE,134,0.0,7.0,69,0.00,,---,0.00,58.00,VWS V14.00,2013-11-16 20:47:00,
2013-11-16 15:48:00,62.3,52.0,30.09,SE,136,0.0,7.0,69,0.00,,---,0.00,58.00,VWS V14.00,2013-11-16 20:48:00,
2013-11-16 15:49:00,62.3,52.0,30.09,SE,138,1.0,7.0,69,0.00,,---,0.00,56.00,VWS V14.00,2013-11-16 20:49:00,
2013-11-16 15:50:00,62.3,52.0,30.09,SE,138,0.0,7.0,69,0.00,,---,0.00,54.00,VWS V14.00,2013-11-16 20:50:00,
2013-11-16 15:51:00,62.3,52.0,30.09,SSE,158,0.0,7.0,69,0.00,,---,0.00,51.00,VWS V14.00,2013-11-16 20:51:00,
2013-11-16 15:52:00,62.2,51.9,30.09,SSE,168,2.0,7.0,69,0.00,,---,0.00,47.00,VWS V14.00,2013-11-16 20:52:00,
2013-11-16 15:53:00,62.2,51.9,30.08,South,172,0.0,7.0,69,0.00,,---,0.00,39.00,VWS V14.00,2013-11-16 20:53:00,
2013-11-16 15:54:00,62.1,51.8,30.08,South,172,0.0,7.0,69,0.00,,---,0.00,35.00,VWS V14.00,2013-11-16 20:54:00,
2013-11-16 15:55:00,62.1,51.8,30.08,South,173,0.0,7.0,69,0.00,,---,0.00,33.00,VWS V14.00,2013-11-16 20:55:00,
2013-11-16 15:56:00,62.1,51.8,30.08,ENE,75,5.0,7.0,69,0.00,,---,0.00,30.00,VWS V14.00,2013-11-16 20:56:00,
2013-11-16 15:57:00,62.0,51.7,30.08,SSE,148,0.0,7.0,69,0.00,,---,0.00,28.00,VWS V14.00,2013-11-16 20:57:00,
2013-11-16 15:58:00,62.0,51.7,30.08,SE,136,1.0,7.0,69,0.00,,---,0.00,26.00,VWS V14.00,2013-11-16 20:58:00,
2013-11-16 15:59:00,62.0,51.7,30.08,SE,144,1.0,7.0,69,0.00,,---,0.00,26.00,VWS V14.00,2013-11-16 20:59:00,
2013-11-16 16:00:00,61.9,51.6,30.08,South,173,2.0,7.0,69,0.00,,---,0.00,26.00,VWS V14.00,2013-11-16 21:00:00,
2013-11-16 16:01:00,61.9,51.6,30.08,SSW,194,0.0,4.0,69,0.00,,---,0.00,26.00,VWS V14.00,2013-11-16 21:01:00,
2013-11-16 16:02:00,61.9,51.6,30.08,SSW,194,0.0,4.0,69,0.00,,---,0.00,25.00,VWS V14.00,2013-11-16 21:02:00,
2013-11-16 16:03:00,61.9,51.6,30.08,SSW,194,0.0,4.0,69,0.00,,---,0.00,25.00,VWS V14.00,2013-11-16 21:03:00,
2013-11-16 16:04:00,61.8,51.5,30.08,SSW,195,0.0,4.0,69,0.00,,---,0.00,25.00,VWS V14.00,2013-11-16 21:04:00,
2013-11-16 16:05:00,61.8,51.5,30.08,SSW,195,0.0,4.0,69,0.00,,---,0.00,25.00,VWS V14.00,2013-11-16 21:05:00,
2013-11-16 16:06:00,61.7,51.8,30.08,South,190,0.0,4.0,70,0.00,,---,0.00,25.00,VWS V14.00,2013-11-16 21:06:00,
2013-11-16 16:07:00,61.7,51.8,30.08,South,188,0.0,4.0,70,0.00,,---,0.00,25.00,VWS V14.00,2013-11-16 21:07:00,
2013-11-16 16:08:00,61.7,51.8,30.08,South,188,0.0,4.0,70,0.00,,---,0.00,25.00,VWS V14.00,2013-11-16 21:08:00,
2013-11-16 16:09:00,61.6,51.7,30.08,South,185,1.0,4.0,70,0.00,,---,0.00,25.00,VWS V14.00,2013-11-16 21:09:00,
2013-11-16 16:10:00,61.6,51.7,30.08,South,173,0.0,4.0,70,0.00,,---,0.00,25.00,VWS V14.00,2013-11-16 21:10:00,
2013-11-16 16:11:00,61.6,51.7,30.08,South,173,0.0,4.0,70,0.00,,---,0.00,23.00,VWS V14.00,2013-11-16 21:11:00,
2013-11-16 16:12:00,61.6,51.7,30.08,SSE,163,1.0,4.0,70,0.00,,---,0.00,23.00,VWS V14.00,2013-11-16 21:12:00,
2013-11-16 16:13:00,61.6,51.7,30.08,SSE,167,2.0,4.0,70,0.00,,---,0.00,21.00,VWS V14.00,2013-11-16 21:13:00,
2013-11-16 16:14:00,61.5,51.6,30.08,SSE,164,2.0,4.0,70,0.00,,---,0.00,21.00,VWS V14.00,2013-11-16 21:14:00,
2013-11-16 16:15:00,61.5,51.6,30.08,SSE,164,0.0,4.0,70,0.00,,---,0.00,21.00,VWS V14.00,2013-11-16 21:15:00,
2013-11-16 16:16:00,61.4,51.5,30.08,SSE,164,0.0,4.0,70,0.00,,---,0.00,19.00,VWS V14.00,2013-11-16 21:16:00,
2013-11-16 16:17:00,61.4,51.5,30.08,SSW,208,2.0,4.0,70,0.00,,---,0.00,18.00,VWS V14.00,2013-11-16 21:17:00,
2013-11-16 16:18:00,61.4,51.5,30.09,SSW,208,2.0,4.0,70,0.00,,---,0.00,18.00,VWS V14.00,2013-11-16 21:18:00,
2013-11-16 16:19:00,61.3,51.5,30.09,SE,134,1.0,4.0,70,0.00,,---,0.00,18.00,VWS V14.00,2013-11-16 21:19:00,
2013-11-16 16:20:00,61.3,51.5,30.09,SE,137,0.0,4.0,70,0.00,,---,0.00,16.00,VWS V14.00,2013-11-16 21:20:00,
2013-11-16 16:21:00,61.3,51.5,30.09,SE,133,1.0,4.0,70,0.00,,---,0.00,16.00,VWS V14.00,2013-11-16 21:21:00,
2013-11-16 16:22:00,61.2,51.3,30.09,SSW,198,2.0,4.0,70,0.00,,---,0.00,14.00,VWS V14.00,2013-11-16 21:22:00,
2013-11-16 16:23:00,61.2,51.7,30.09,SSW,196,1.0,5.0,71,0.00,,---,0.00,12.00,VWS V14.00,2013-11-16 21:23:00,
2013-11-16 16:24:00,61.2,51.7,30.09,SSW,196,0.0,5.0,71,0.00,,---,0.00,12.00,VWS V14.00,2013-11-16 21:24:00,
2013-11-16 16:25:00,61.2,51.7,30.08,South,176,0.0,5.0,71,0.00,,---,0.00,11.00,VWS V14.00,2013-11-16 21:25:00,
2013-11-16 16:26:00,61.1,51.6,30.08,South,175,0.0,5.0,71,0.00,,---,0.00,11.00,VWS V14.00,2013-11-16 21:26:00,
2013-11-16 16:27:00,61.1,51.6,30.09,South,175,0.0,5.0,71,0.00,,---,0.00,9.00,VWS V14.00,2013-11-16 21:27:00,
2013-11-16 16:28:00,61.1,51.6,30.09,South,175,0.0,5.0,71,0.00,,---,0.00,7.00,VWS V14.00,2013-11-16 21:28:00,
2013-11-16 16:29:00,61.1,51.6,30.09,South,175,0.0,5.0,71,0.00,,---,0.00,7.00,VWS V14.00,2013-11-16 21:29:00,
2013-11-16 16:30:00,61.0,51.5,30.09,South,175,0.0,5.0,71,0.00,,---,0.00,5.00,VWS V14.00,2013-11-16 21:30:00,
2013-11-16 16:31:00,61.0,51.5,30.09,South,175,0.0,0.0,71,0.00,,---,0.00,5.00,VWS V14.00,2013-11-16 21:31:00,
2013-11-16 16:32:00,60.9,51.5,30.09,South,175,0.0,0.0,71,0.00,,---,0.00,5.00,VWS V14.00,2013-11-16 21:32:00,
2013-11-16 16:33:00,60.9,51.5,30.09,South,175,0.0,0.0,71,0.00,,---,0.00,0.00,VWS V14.00,2013-11-16 21:33:00,
2013-11-16 16:34:00,60.8,51.3,30.09,South,175,0.0,0.0,71,0.00,,---,0.00,0.00,VWS V14.00,2013-11-16 21:34:00,
2013-11-16 16:35:00,60.8,51.3,30.09,SSW,210,1.0,2.0,71,0.00,,---,0.00,0.00,VWS V14.00,2013-11-16 21:35:00,
2013-11-16 16:36:00,60.7,51.2,30.09,SSW,210,0.0,2.0,71,0.00,,---,0.00,0.00,VWS V14.00,2013-11-16 21:36:00,
2013-11-16 16:37:00,60.7,51.2,30.10,SSW,210,0.0,2.0,71,0.00,,---,0.00,0.00,VWS V14.00,2013-11-16 21:37:00,
2013-11-16 16:38:00,60.6,51.5,30.10,SSW,210,0.0,2.0,72,0.00,,---,0.00,0.00,VWS V14.00,2013-11-16 21:38:00,
2013-11-16 16:39:00,60.5,51.4,30.10,SSW,210,0.0,2.0,72,0.00,,---,0.00,0.00,VWS V14.00,2013-11-16 21:39:00,
2013-11-16 16:40:00,60.4,51.3,30.10,SSW,210,0.0,2.0,72,0.00,,---,0.00,0.00,VWS V14.00,2013-11-16 21:40:00,
2013-11-16 16:41:00,60.3,51.2,30.10,SSW,210,0.0,2.0,72,0.00,,---,0.00,0.00,VWS V14.00,2013-11-16 21:41:00,
2013-11-16 16:42:00,60.2,51.2,30.10,SSW,210,0.0,2.0,72,0.00,,---,0.00,0.00,VWS V14.00,2013-11-16 21:42:00,
2013-11-16 16:43:00,60.1,51.1,30.10,SSW,210,0.0,2.0,72,0.00,,---,0.00,0.00,VWS V14.00,2013-11-16 21:43:00,
2013-11-16 16:44:00,60.0,51.3,30.10,SSW,210,0.0,2.0,73,0.00,,---,0.00,0.00,VWS V14.00,2013-11-16 21:44:00,
2013-11-16 16:45:00,60.0,51.3,30.10,SSW,210,0.0,2.0,73,0.00,,---,0.00,0.00,VWS V14.00,2013-11-16 21:45:00,
2013-11-16 16:46:00,59.9,51.2,30.10,SSW,210,0.0,2.0,73,0.00,,---,0.00,0.00,VWS V14.00,2013-11-16 21:46:00,
2013-11-16 16:47:00,59.9,51.2,30.10,SSW,207,0.0,2.0,73,0.00,,---,0.00,0.00,VWS V14.00,2013-11-16 21:47:00,
2013-11-16 16:48:00,59.8,51.1,30.10,SSW,207,0.0,2.0,73,0.00,,---,0.00,0.00,VWS V14.00,2013-11-16 21:48:00,
2013-11-16 16:49:00,59.8,51.1,30.10,SSW,207,0.0,2.0,73,0.00,,---,0.00,0.00,VWS V14.00,2013-11-16 21:49:00,
2013-11-16 16:50:00,59.7,51.0,30.10,SSW,207,0.0,2.0,73,0.00,,---,0.00,0.00,VWS V14.00,2013-11-16 21:50:00,
2013-11-16 16:51:00,59.7,51.0,30.10,SSW,207,0.0,2.0,73,0.00,,---,0.00,0.00,VWS V14.00,2013-11-16 21:51:00,
2013-11-16 16:52:00,59.6,51.0,30.10,SSW,207,0.0,2.0,73,0.00,,---,0.00,0.00,VWS V14.00,2013-11-16 21:52:00,
2013-11-16 16:53:00,59.6,51.0,30.10,SSW,207,0.0,2.0,73,0.00,,---,0.00,0.00,VWS V14.00,2013-11-16 21:53:00,
2013-11-16 16:54:00,59.5,51.2,30.10,SSW,207,0.0,2.0,74,0.00,,---,0.00,0.00,VWS V14.00,2013-11-16 21:54:00,
2013-11-16 16:55:00,59.5,51.2,30.10,SSW,207,0.0,2.0,74,0.00,,---,0.00,0.00,VWS V14.00,2013-11-16 21:55:00,
2013-11-16 16:56:00,59.4,51.1,30.10,SSW,207,0.0,2.0,74,0.00,,---,0.00,0.00,VWS V14.00,2013-11-16 21:56:00,
2013-11-16 16:57:00,59.4,51.1,30.10,SSW,207,0.0,2.0,74,0.00,,---,0.00,0.00,VWS V14.00,2013-11-16 21:57:00,
2013-11-16 16:58:00,59.3,51.0,30.10,SSW,207,0.0,2.0,74,0.00,,---,0.00,0.00,VWS V14.00,2013-11-16 21:58:00,
2013-11-16 16:59:00,59.3,51.0,30.10,SSW,207,0.0,2.0,74,0.00,,---,0.00,0.00,VWS V14.00,2013-11-16 21:59:00,
2013-11-16 17:00:00,59.3,51.0,30.10,SSW,207,0.0,2.0,74,0.00,,---,0.00,0.00,VWS V14.00,2013-11-16 22:00:00,
2013-11-16 17:01:00,59.2,50.9,30.10,SSW,207,0.0,0.0,74,0.00,,---,0.00,0.00,VWS V14.00,2013-11-16 22:01:00,
2013-11-16 17:02:00,59.2,50.9,30.10,SSW,207,0.0,0.0,74,0.00,,---,0.00,0.00,VWS V14.00,2013-11-16 22:02:00,
2013-11-16 17:03:00,59.1,50.8,30.10,SSW,207,0.0,0.0,74,0.00,,---,0.00,0.00,VWS V14.00,2013-11-16 22:03:00,
2013-11-16 17:04:00,59.1,50.8,30.10,SSW,207,0.0,0.0,74,0.00,,---,0.00,0.00,VWS V14.00,2013-11-16 22:04:00,
2013-11-16 17:05:00,59.1,51.2,30.10,SSW,207,0.0,0.0,75,0.00,,---,0.00,0.00,VWS V14.00,2013-11-16 22:05:00,
2013-11-16 17:06:00,59.1,51.2,30.10,SSW,207,0.0,0.0,75,0.00,,---,0.00,0.00,VWS V14.00,2013-11-16 22:06:00,
2013-11-16 17:07:00,59.0,51.1,30.10,SSW,207,0.0,0.0,75,0.00,,---,0.00,0.00,VWS V14.00,2013-11-16 22:07:00,
2013-11-16 17:08:00,59.0,51.1,30.10,SSW,207,0.0,0.0,75,0.00,,---,0.00,0.00,VWS V14.00,2013-11-16 22:08:00,
2013-11-16 17:09:00,59.0,51.1,30.10,SSW,207,0.0,0.0,75,0.00,,---,0.00,0.00,VWS V14.00,2013-11-16 22:09:00,
2013-11-16 17:10:00,58.9,51.0,30.09,SSW,207,0.0,0.0,75,0.00,,---,0.00,0.00,VWS V14.00,2013-11-16 22:10:00,
2013-11-16 17:11:00,58.9,51.0,30.09,SSW,207,0.0,0.0,75,0.00,,---,0.00,0.00,VWS V14.00,2013-11-16 22:11:00,
2013-11-16 17:12:00,58.9,51.0,30.10,SSW,207,0.0,0.0,75,0.00,,---,0.00,0.00,VWS V14.00,2013-11-16 22:12:00,
2013-11-16 17:13:00,58.9,51.0,30.09,SSW,207,0.0,0.0,75,0.00,,---,0.00,0.00,VWS V14.00,2013-11-16 22:13:00,
2013-11-16 17:14:00,58.9,51.0,30.09,SSW,207,0.0,0.0,75,0.00,,---,0.00,0.00,VWS V14.00,2013-11-16 22:14:00,
2013-11-16 17:15:00,58.9,51.0,30.09,SSW,207,0.0,0.0,75,0.00,,---,0.00,0.00,VWS V14.00,2013-11-16 22:15:00,
2013-11-16 17:16:00,58.8,50.9,30.09,SSW,207,0.0,0.0,75,0.00,,---,0.00,0.00,VWS V14.00,2013-11-16 22:16:00,
2013-11-16 17:17:00,58.8,50.9,30.09,SSW,207,0.0,0.0,75,0.00,,---,0.00,0.00,VWS V14.00,2013-11-16 22:17:00,
2013-11-16 17:18:00,58.8,50.9,30.09,SSW,207,0.0,0.0,75,0.00,,---,0.00,0.00,VWS V14.00,2013-11-16 22:18:00,
2013-11-16 17:19:00,58.7,50.8,30.09,SSW,207,0.0,0.0,75,0.00,,---,0.00,0.00,VWS V14.00,2013-11-16 22:19:00,
2013-11-16 17:20:00,58.7,50.8,30.09,SSW,207,0.0,0.0,75,0.00,,---,0.00,0.00,VWS V14.00,2013-11-16 22:20:00,
2013-11-16 17:21:00,58.7,50.8,30.09,SSW,207,0.0,0.0,75,0.00,,---,0.00,0.00,VWS V14.00,2013-11-16 22:21:00,
2013-11-16 17:22:00,58.6,51.1,30.09,SSW,207,0.0,0.0,76,0.00,,---,0.00,0.00,VWS V14.00,2013-11-16 22:22:00,
2013-11-16 17:23:00,58.6,51.1,30.09,SSW,207,0.0,0.0,76,0.00,,---,0.00,0.00,VWS V14.00,2013-11-16 22:23:00,
2013-11-16 17:24:00,58.6,51.1,30.09,SSW,207,0.0,0.0,76,0.00,,---,0.00,0.00,VWS V14.00,2013-11-16 22:24:00,
2013-11-16 17:25:00,58.6,51.1,30.09,SSW,207,0.0,0.0,76,0.00,,---,0.00,0.00,VWS V14.00,2013-11-16 22:25:00,
2013-11-16 17:26:00,58.5,51.0,30.09,SSW,207,0.0,0.0,76,0.00,,---,0.00,0.00,VWS V14.00,2013-11-16 22:26:00,
2013-11-16 17:27:00,58.5,51.0,30.09,SSW,207,0.0,0.0,76,0.00,,---,0.00,0.00,VWS V14.00,2013-11-16 22:27:00,
2013-11-16 17:28:00,58.5,51.0,30.09,SSW,207,0.0,0.0,76,0.00,,---,0.00,0.00,VWS V14.00,2013-11-16 22:28:00,
2013-11-16 17:29:00,58.4,50.9,30.09,SSW,207,0.0,0.0,76,0.00,,---,0.00,0.00,VWS V14.00,2013-11-16 22:29:00,
2013-11-16 17:30:00,58.4,50.5,30.09,SSW,207,0.0,0.0,75,0.00,,---,0.00,0.00,VWS V14.00,2013-11-16 22:30:00,
2013-11-16 17:31:00,58.3,50.8,30.09,SSW,207,0.0,0.0,76,0.00,,---,0.00,0.00,VWS V14.00,2013-11-16 22:31:00,
2013-11-16 17:32:00,58.2,50.7,30.09,SSW,207,0.0,0.0,76,0.00,,---,0.00,0.00,VWS V14.00,2013-11-16 22:32:00,
2013-11-16 17:33:00,58.2,50.7,30.09,SSW,207,0.0,0.0,76,0.00,,---,0.00,0.00,VWS V14.00,2013-11-16 22:33:00,
2013-11-16 17:34:00,58.2,50.7,30.09,SSW,207,0.0,0.0,76,0.00,,---,0.00,0.00,VWS V14.00,2013-11-16 22:34:00,
2013-11-16 17:35:00,58.1,50.6,30.09,SSW,207,0.0,0.0,76,0.00,,---,0.00,0.00,VWS V14.00,2013-11-16 22:35:00,
2013-11-16 17:36:00,58.1,50.6,30.09,SSW,207,0.0,0.0,76,0.00,,---,0.00,0.00,VWS V14.00,2013-11-16 22:36:00,
2013-11-16 17:37:00,58.0,50.8,30.08,SSW,207,0.0,0.0,77,0.00,,---,0.00,0.00,VWS V14.00,2013-11-16 22:37:00,
2013-11-16 17:38:00,58.0,50.8,30.08,SSW,207,0.0,0.0,77,0.00,,---,0.00,0.00,VWS V14.00,2013-11-16 22:38:00,
2013-11-16 17:39:00,58.0,50.8,30.08,SSW,207,0.0,0.0,77,0.00,,---,0.00,0.00,VWS V14.00,2013-11-16 22:39:00,
2013-11-16 17:40:00,57.9,50.7,30.09,SSW,207,0.0,0.0,77,0.00,,---,0.00,0.00,VWS V14.00,2013-11-16 22:40:00,
2013-11-16 17:41:00,57.9,50.7,30.09,SSW,207,0.0,0.0,77,0.00,,---,0.00,0.00,VWS V14.00,2013-11-16 22:41:00,
2013-11-16 17:42:00,57.9,50.7,30.09,SSW,207,0.0,0.0,77,0.00,,---,0.00,0.00,VWS V14.00,2013-11-16 22:42:00,
2013-11-16 17:43:00,57.8,50.7,30.09,SSW,207,0.0,0.0,77,0.00,,---,0.00,0.00,VWS V14.00,2013-11-16 22:43:00,
2013-11-16 17:44:00,57.8,50.7,30.09,SSW,207,0.0,0.0,77,0.00,,---,0.00,0.00,VWS V14.00,2013-11-16 22:44:00,
2013-11-16 17:45:00,57.8,50.7,30.09,SSW,207,0.0,0.0,77,0.00,,---,0.00,0.00,VWS V14.00,2013-11-16 22:45:00,
2013-11-16 17:46:00,57.7,50.5,30.09,SSW,207,0.0,0.0,77,0.00,,---,0.00,0.00,VWS V14.00,2013-11-16 22:46:00,
2013-11-16 17:47:00,57.7,50.5,30.09,SSW,207,0.0,0.0,77,0.00,,---,0.00,0.00,VWS V14.00,2013-11-16 22:47:00,
2013-11-16 17:48:00,57.7,50.5,30.09,SSW,207,0.0,0.0,77,0.00,,---,0.00,0.00,VWS V14.00,2013-11-16 22:48:00,
2013-11-16 17:49:00,57.7,50.5,30.09,SSW,207,0.0,0.0,77,0.00,,---,0.00,0.00,VWS V14.00,2013-11-16 22:49:00,
2013-11-16 17:50:00,57.7,50.5,30.09,SSW,207,0.0,0.0,77,0.00,,---,0.00,0.00,VWS V14.00,2013-11-16 22:50:00,
2013-11-16 17:51:00,57.7,50.5,30.09,SSW,207,0.0,0.0,77,0.00,,---,0.00,0.00,VWS V14.00,2013-11-16 22:51:00,
2013-11-16 17:52:00,57.6,50.5,30.09,SSW,207,0.0,0.0,77,0.00,,---,0.00,0.00,VWS V14.00,2013-11-16 22:52:00,
2013-11-16 17:53:00,57.6,50.5,30.08,SSW,207,0.0,0.0,77,0.00,,---,0.00,0.00,VWS V14.00,2013-11-16 22:53:00,
2013-11-16 17:54:00,57.5,50.4,30.08,SSW,207,0.0,0.0,77,0.00,,---,0.00,0.00,VWS V14.00,2013-11-16 22:54:00,
2013-11-16 17:55:00,57.5,50.4,30.08,SSW,207,0.0,0.0,77,0.00,,---,0.00,0.00,VWS V14.00,2013-11-16 22:55:00,
2013-11-16 17:56:00,57.5,50.4,30.08,SSW,207,0.0,0.0,77,0.00,,---,0.00,0.00,VWS V14.00,2013-11-16 22:56:00,
2013-11-16 17:57:00,57.4,50.3,30.08,SSW,207,0.0,0.0,77,0.00,,---,0.00,0.00,VWS V14.00,2013-11-16 22:57:00,
2013-11-16 17:58:00,57.3,50.5,30.08,SSW,207,0.0,0.0,78,0.00,,---,0.00,0.00,VWS V14.00,2013-11-16 22:58:00,
2013-11-16 17:59:00,57.2,50.4,30.09,SSW,207,0.0,0.0,78,0.00,,---,0.00,0.00,VWS V14.00,2013-11-16 22:59:00,
2013-11-16 18:00:00,57.2,50.4,30.09,SSW,207,0.0,0.0,78,0.00,,---,0.00,0.00,VWS V14.00,2013-11-16 23:00:00,
2013-11-16 18:01:00,57.1,50.3,30.09,SSW,207,0.0,0.0,78,0.00,,---,0.00,0.00,VWS V14.00,2013-11-16 23:01:00,
2013-11-16 18:02:00,57.0,50.2,30.09,SSW,207,0.0,0.0,78,0.00,,---,0.00,0.00,VWS V14.00,2013-11-16 23:02:00,
2013-11-16 18:03:00,56.9,50.1,30.09,SSW,207,0.0,0.0,78,0.00,,---,0.00,0.00,VWS V14.00,2013-11-16 23:03:00,
2013-11-16 18:04:00,56.8,50.0,30.08,SSW,207,0.0,0.0,78,0.00,,---,0.00,0.00,VWS V14.00,2013-11-16 23:04:00,
2013-11-16 18:05:00,56.8,50.0,30.08,SSW,207,0.0,0.0,78,0.00,,---,0.00,0.00,VWS V14.00,2013-11-16 23:05:00,
2013-11-16 18:06:00,56.7,49.9,30.08,SSW,207,0.0,0.0,78,0.00,,---,0.00,0.00,VWS V14.00,2013-11-16 23:06:00,
2013-11-16 18:07:00,56.6,50.2,30.08,SSW,207,0.0,0.0,79,0.00,,---,0.00,0.00,VWS V14.00,2013-11-16 23:07:00,
2013-11-16 18:08:00,56.5,50.1,30.09,SSW,207,0.0,0.0,79,0.00,,---,0.00,0.00,VWS V14.00,2013-11-16 23:08:00,
2013-11-16 18:09:00,56.4,50.0,30.08,SSW,207,0.0,0.0,79,0.00,,---,0.00,0.00,VWS V14.00,2013-11-16 23:09:00,
2013-11-16 18:10:00,56.3,50.2,30.08,SSW,207,0.0,0.0,80,0.00,,---,0.00,0.00,VWS V14.00,2013-11-16 23:10:00,
2013-11-16 18:11:00,56.3,50.2,30.08,SSW,207,0.0,0.0,80,0.00,,---,0.00,0.00,VWS V14.00,2013-11-16 23:11:00,
2013-11-16 18:12:00,56.2,50.1,30.08,SSW,207,0.0,0.0,80,0.00,,---,0.00,0.00,VWS V14.00,2013-11-16 23:12:00,
2013-11-16 18:13:00,56.2,50.1,30.08,SSW,207,0.0,0.0,80,0.00,,---,0.00,0.00,VWS V14.00,2013-11-16 23:13:00,
2013-11-16 18:14:00,56.1,50.0,30.08,SSW,207,0.0,0.0,80,0.00,,---,0.00,0.00,VWS V14.00,2013-11-16 23:14:00,
2013-11-16 18:15:00,56.1,50.0,30.08,SSW,207,0.0,0.0,80,0.00,,---,0.00,0.00,VWS V14.00,2013-11-16 23:15:00,
2013-11-16 18:16:00,56.1,50.0,30.08,SSW,207,0.0,0.0,80,0.00,,---,0.00,0.00,VWS V14.00,2013-11-16 23:16:00,
2013-11-16 18:17:00,56.0,49.9,30.08,SSW,207,0.0,0.0,80,0.00,,---,0.00,0.00,VWS V14.00,2013-11-16 23:17:00,
2013-11-16 18:18:00,56.0,49.9,30.08,SSW,207,0.0,0.0,80,0.00,,---,0.00,0.00,VWS V14.00,2013-11-16 23:18:00,
2013-11-16 18:19:00,56.0,49.9,30.08,SSW,207,0.0,0.0,80,0.00,,---,0.00,0.00,VWS V14.00,2013-11-16 23:19:00,
2013-11-16 18:20:00,56.0,50.3,30.09,SSW,207,0.0,0.0,81,0.00,,---,0.00,0.00,VWS V14.00,2013-11-16 23:20:00,
2013-11-16 18:21:00,56.0,50.3,30.09,SSW,207,0.0,0.0,81,0.00,,---,0.00,0.00,VWS V14.00,2013-11-16 23:21:00,
2013-11-16 18:22:00,55.9,50.2,30.09,SSW,207,0.0,0.0,81,0.00,,---,0.00,0.00,VWS V14.00,2013-11-16 23:22:00,
2013-11-16 18:23:00,55.9,50.2,30.08,SSW,207,0.0,0.0,81,0.00,,---,0.00,0.00,VWS V14.00,2013-11-16 23:23:00,
2013-11-16 18:24:00,55.9,50.2,30.09,SSW,207,0.0,0.0,81,0.00,,---,0.00,0.00,VWS V14.00,2013-11-16 23:24:00,
2013-11-16 18:25:00,55.9,50.2,30.09,SSW,207,0.0,0.0,81,0.00,,---,0.00,0.00,VWS V14.00,2013-11-16 23:25:00,
2013-11-16 18:26:00,55.9,50.2,30.09,SSW,207,0.0,0.0,81,0.00,,---,0.00,0.00,VWS V14.00,2013-11-16 23:26:00,
2013-11-16 18:27:00,55.8,50.1,30.08,SSW,207,0.0,0.0,81,0.00,,---,0.00,0.00,VWS V14.00,2013-11-16 23:27:00,
2013-11-16 18:28:00,55.8,50.1,30.09,SSW,207,0.0,0.0,81,0.00,,---,0.00,0.00,VWS V14.00,2013-11-16 23:28:00,
2013-11-16 18:29:00,55.7,50.0,30.09,SSW,207,0.0,0.0,81,0.00,,---,0.00,0.00,VWS V14.00,2013-11-16 23:29:00,
2013-11-16 18:30:00,55.7,49.6,30.09,SSW,207,0.0,0.0,80,0.00,,---,0.00,0.00,VWS V14.00,2013-11-16 23:30:00,
2013-11-16 18:31:00,55.6,49.9,30.09,SSW,207,0.0,0.0,81,0.00,,---,0.00,0.00,VWS V14.00,2013-11-16 23:31:00,
2013-11-16 18:32:00,55.6,49.9,30.09,SSW,207,0.0,0.0,81,0.00,,---,0.00,0.00,VWS V14.00,2013-11-16 23:32:00,
2013-11-16 18:33:00,55.5,49.8,30.09,SSW,207,0.0,0.0,81,0.00,,---,0.00,0.00,VWS V14.00,2013-11-16 23:33:00,
2013-11-16 18:34:00,55.5,49.8,30.09,SSW,207,0.0,0.0,81,0.00,,---,0.00,0.00,VWS V14.00,2013-11-16 23:34:00,
2013-11-16 18:35:00,55.4,49.7,30.09,SSW,207,0.0,0.0,81,0.00,,---,0.00,0.00,VWS V14.00,2013-11-16 23:35:00,
2013-11-16 18:36:00,55.4,49.7,30.09,SSW,207,0.0,0.0,81,0.00,,---,0.00,0.00,VWS V14.00,2013-11-16 23:36:00,
2013-11-16 18:37:00,55.3,49.6,30.09,SSW,207,0.0,0.0,81,0.00,,---,0.00,0.00,VWS V14.00,2013-11-16 23:37:00,
2013-11-16 18:38:00,55.2,49.5,30.09,SSW,207,0.0,0.0,81,0.00,,---,0.00,0.00,VWS V14.00,2013-11-16 23:38:00,
2013-11-16 18:39:00,55.1,49.4,30.09,SSW,207,0.0,0.0,81,0.00,,---,0.00,0.00,VWS V14.00,2013-11-16 23:39:00,
2013-11-16 18:40:00,55.0,49.3,30.08,SSW,207,0.0,0.0,81,0.00,,---,0.00,0.00,VWS V14.00,2013-11-16 23:40:00,
2013-11-16 18:41:00,55.0,49.3,30.08,SSW,207,0.0,0.0,81,0.00,,---,0.00,0.00,VWS V14.00,2013-11-16 23:41:00,
2013-11-16 18:42:00,54.8,49.4,30.08,SSW,207,0.0,0.0,82,0.00,,---,0.00,0.00,VWS V14.00,2013-11-16 23:42:00,
2013-11-16 18:43:00,54.7,49.3,30.08,SSW,207,0.0,0.0,82,0.00,,---,0.00,0.00,VWS V14.00,2013-11-16 23:43:00,
2013-11-16 18:44:00,54.6,49.2,30.08,SSW,207,0.0,0.0,82,0.00,,---,0.00,0.00,VWS V14.00,2013-11-16 23:44:00,
2013-11-16 18:45:00,54.5,49.5,30.08,SSW,207,0.0,0.0,83,0.00,,---,0.00,0.00,VWS V14.00,2013-11-16 23:45:00,
2013-11-16 18:46:00,54.4,49.3,30.08,SSW,207,0.0,0.0,83,0.00,,---,0.00,0.00,VWS V14.00,2013-11-16 23:46:00,
2013-11-16 18:47:00,54.3,49.3,30.08,SSW,207,0.0,0.0,83,0.00,,---,0.00,0.00,VWS V14.00,2013-11-16 23:47:00,
2013-11-16 18:48:00,54.2,49.2,30.08,SSW,207,0.0,0.0,83,0.00,,---,0.00,0.00,VWS V14.00,2013-11-16 23:48:00,
2013-11-16 18:49:00,54.2,49.2,30.08,SSW,207,0.0,0.0,83,0.00,,---,0.00,0.00,VWS V14.00,2013-11-16 23:49:00,
2013-11-16 18:50:00,54.1,49.4,30.08,SSW,207,0.0,0.0,84,0.00,,---,0.00,0.00,VWS V14.00,2013-11-16 23:50:00,
2013-11-16 18:51:00,54.1,49.4,30.08,SSW,207,0.0,0.0,84,0.00,,---,0.00,0.00,VWS V14.00,2013-11-16 23:51:00,
2013-11-16 18:52:00,54.1,49.4,30.08,SSW,207,0.0,0.0,84,0.00,,---,0.00,0.00,VWS V14.00,2013-11-16 23:52:00,
2013-11-16 18:53:00,54.0,49.3,30.08,SSW,207,0.0,0.0,84,0.00,,---,0.00,0.00,VWS V14.00,2013-11-16 23:53:00,
2013-11-16 18:54:00,54.0,49.3,30.08,SSW,206,0.0,0.0,84,0.00,,---,0.00,0.00,VWS V14.00,2013-11-16 23:54:00,
2013-11-16 18:55:00,54.0,49.3,30.08,SSW,206,0.0,0.0,84,0.00,,---,0.00,0.00,VWS V14.00,2013-11-16 23:55:00,
2013-11-16 18:56:00,54.0,49.3,30.08,SSW,207,0.0,0.0,84,0.00,,---,0.00,0.00,VWS V14.00,2013-11-16 23:56:00,
2013-11-16 18:57:00,54.0,49.3,30.08,SSW,207,0.0,0.0,84,0.00,,---,0.00,0.00,VWS V14.00,2013-11-16 23:57:00,
2013-11-16 18:58:00,53.9,49.5,30.08,SSW,207,0.0,0.0,85,0.00,,---,0.00,0.00,VWS V14.00,2013-11-16 23:58:00,
2013-11-16 18:59:00,53.9,49.5,30.07,SSW,207,0.0,0.0,85,0.00,,---,0.00,0.00,VWS V14.00,2013-11-16 23:59:00,
2013-11-16 19:00:00,53.9,49.5,30.07,SSW,205,0.0,1.0,85,0.00,,---,0.00,0.00,VWS V14.00,2013-11-17 00:00:00,
2013-11-16 19:01:00,54.0,49.6,30.07,SSW,205,0.0,1.0,85,0.00,,---,0.00,0.00,VWS V14.00,2013-11-17 00:01:00,
2013-11-16 19:02:00,54.0,49.6,30.07,SSW,201,1.0,1.0,85,0.00,,---,0.00,0.00,VWS V14.00,2013-11-17 00:02:00,
2013-11-16 19:03:00,54.1,49.7,30.07,SSW,200,0.0,2.0,85,0.00,,---,0.00,0.00,VWS V14.00,2013-11-17 00:03:00,
2013-11-16 19:04:00,54.2,49.8,30.07,SSW,198,0.0,2.0,85,0.00,,---,0.00,0.00,VWS V14.00,2013-11-17 00:04:00,
2013-11-16 19:05:00,54.3,49.9,30.07,SSW,198,0.0,2.0,85,0.00,,---,0.00,0.00,VWS V14.00,2013-11-17 00:05:00,
2013-11-16 19:06:00,54.4,50.0,30.07,South,186,0.0,2.0,85,0.00,,---,0.00,0.00,VWS V14.00,2013-11-17 00:06:00,
2013-11-16 19:07:00,54.5,50.1,30.07,South,186,0.0,2.0,85,0.00,,---,0.00,0.00,VWS V14.00,2013-11-17 00:07:00,
2013-11-16 19:08:00,54.6,49.9,30.07,South,181,0.0,2.0,84,0.00,,---,0.00,0.00,VWS V14.00,2013-11-17 00:08:00,
2013-11-16 19:09:00,54.6,49.9,30.07,South,178,0.0,2.0,84,0.00,,---,0.00,0.00,VWS V14.00,2013-11-17 00:09:00,
2013-11-16 19:10:00,54.7,50.0,30.07,South,178,0.0,2.0,84,0.00,,---,0.00,0.00,VWS V14.00,2013-11-17 00:10:00,
2013-11-16 19:11:00,54.7,50.0,30.06,South,172,1.0,2.0,84,0.00,,---,0.00,0.00,VWS V14.00,2013-11-17 00:11:00,
2013-11-16 19:12:00,54.8,50.1,30.06,East,83,1.0,2.0,84,0.00,,---,0.00,0.00,VWS V14.00,2013-11-17 00:12:00,
2013-11-16 19:13:00,54.8,50.1,30.06,East,96,0.0,2.0,84,0.00,,---,0.00,0.00,VWS V14.00,2013-11-17 00:13:00,
2013-11-16 19:14:00,54.9,50.2,30.06,ESE,108,0.0,2.0,84,0.00,,---,0.00,0.00,VWS V14.00,2013-11-17 00:14:00,
2013-11-16 19:15:00,54.9,50.2,30.06,East,96,0.0,2.0,84,0.00,,---,0.00,0.00,VWS V14.00,2013-11-17 00:15:00,
2013-11-16 19:16:00,55.0,50.3,30.06,East,97,0.0,2.0,84,0.00,,---,0.00,0.00,VWS V14.00,2013-11-17 00:16:00,
2013-11-16 19:17:00,55.1,50.4,30.06,East,97,0.0,2.0,84,0.00,,---,0.00,0.00,VWS V14.00,2013-11-17 00:17:00,
2013-11-16 19:18:00,55.1,50.4,30.06,ESE,107,2.0,2.0,84,0.00,,---,0.00,0.00,VWS V14.00,2013-11-17 00:18:00,
2013-11-16 19:19:00,55.2,50.1,30.06,ESE,107,1.0,4.0,83,0.00,,---,0.00,0.00,VWS V14.00,2013-11-17 00:19:00,
2013-11-16 19:20:00,55.3,50.2,30.06,ESE,115,0.0,4.0,83,0.00,,---,0.00,0.00,VWS V14.00,2013-11-17 00:20:00,
2013-11-16 19:21:00,55.3,50.2,30.06,SE,132,0.0,4.0,83,0.00,,---,0.00,0.00,VWS V14.00,2013-11-17 00:21:00,
2013-11-16 19:22:00,55.4,50.3,30.06,SE,131,0.0,4.0,83,0.00,,---,0.00,0.00,VWS V14.00,2013-11-17 00:22:00,
2013-11-16 19:23:00,55.4,50.3,30.06,SSW,212,4.0,4.0,83,0.00,,---,0.00,0.00,VWS V14.00,2013-11-17 00:23:00,
2013-11-16 19:24:00,55.5,50.4,30.06,South,173,1.0,8.0,83,0.00,,---,0.00,0.00,VWS V14.00,2013-11-17 00:24:00,
2013-11-16 19:25:00,55.7,50.6,30.06,SSE,166,2.0,8.0,83,0.00,,---,0.00,0.00,VWS V14.00,2013-11-17 00:25:00,
2013-11-16 19:26:00,55.8,50.7,30.06,ESE,107,4.0,8.0,83,0.00,,---,0.00,0.00,VWS V14.00,2013-11-17 00:26:00,
2013-11-16 19:27:00,55.9,50.5,30.06,ESE,119,4.0,8.0,82,0.00,,---,0.00,0.00,VWS V14.00,2013-11-17 00:27:00,
2013-11-16 19:28:00,56.0,50.6,30.06,ESE,123,1.0,8.0,82,0.00,,---,0.00,0.00,VWS V14.00,2013-11-17 00:28:00,
2013-11-16 19:29:00,56.1,50.4,30.06,South,183,2.0,8.0,81,0.00,,---,0.00,0.00,VWS V14.00,2013-11-17 00:29:00,
2013-11-16 19:30:00,56.2,50.5,30.06,South,169,6.0,8.0,81,0.00,,---,0.00,0.00,VWS V14.00,2013-11-17 00:30:00,
2013-11-16 19:31:00,56.3,50.5,30.06,South,189,0.0,6.0,81,0.00,,---,0.00,0.00,VWS V14.00,2013-11-17 00:31:00,
2013-11-16 19:32:00,56.3,50.5,30.06,South,182,0.0,6.0,81,0.00,,---,0.00,0.00,VWS V14.00,2013-11-17 00:32:00,
2013-11-16 19:33:00,56.4,50.7,30.07,SE,141,0.0,6.0,81,0.00,,---,0.00,0.00,VWS V14.00,2013-11-17 00:33:00,
2013-11-16 19:34:00,56.6,50.8,30.06,South,182,0.0,6.0,81,0.00,,---,0.00,0.00,VWS V14.00,2013-11-17 00:34:00,
2013-11-16 19:35:00,56.6,50.8,30.06,SE,131,0.0,6.0,81,0.00,,---,0.00,0.00,VWS V14.00,2013-11-17 00:35:00,
2013-11-16 19:36:00,56.7,50.9,30.07,SE,134,1.0,6.0,81,0.00,,---,0.00,0.00,VWS V14.00,2013-11-17 00:36:00,
2013-11-16 19:37:00,56.8,51.0,30.07,SE,131,1.0,6.0,81,0.00,,---,0.00,0.00,VWS V14.00,2013-11-17 00:37:00,
2013-11-16 19:38:00,56.9,50.8,30.07,South,175,0.0,6.0,80,0.00,,---,0.00,0.00,VWS V14.00,2013-11-17 00:38:00,
2013-11-16 19:39:00,56.9,50.8,30.07,South,175,1.0,6.0,80,0.00,,---,0.00,0.00,VWS V14.00,2013-11-17 00:39:00,
2013-11-16 19:40:00,57.0,50.9,30.07,South,174,0.0,6.0,80,0.00,,---,0.00,0.00,VWS V14.00,2013-11-17 00:40:00,
2013-11-16 19:41:00,57.0,50.9,30.07,South,174,0.0,6.0,80,0.00,,---,0.00,0.00,VWS V14.00,2013-11-17 00:41:00,
2013-11-16 19:42:00,57.0,50.9,30.07,South,174,0.0,6.0,80,0.00,,---,0.00,0.00,VWS V14.00,2013-11-17 00:42:00,
2013-11-16 19:43:00,57.1,51.0,30.07,South,174,0.0,6.0,80,0.00,,---,0.00,0.00,VWS V14.00,2013-11-17 00:43:00,
2013-11-16 19:44:00,57.1,51.0,30.06,South,174,0.0,6.0,80,0.00,,---,0.00,0.00,VWS V14.00,2013-11-17 00:44:00,
2013-11-16 19:45:00,57.1,50.7,30.06,South,174,0.0,6.0,79,0.00,,---,0.00,0.00,VWS V14.00,2013-11-17 00:45:00,
2013-11-16 19:46:00,57.1,50.7,30.06,SSE,161,0.0,6.0,79,0.00,,---,0.00,0.00,VWS V14.00,2013-11-17 00:46:00,
2013-11-16 19:47:00,57.1,50.7,30.06,SSE,163,2.0,6.0,79,0.00,,---,0.00,0.00,VWS V14.00,2013-11-17 00:47:00,
2013-11-16 19:48:00,57.1,50.7,30.06,SE,146,1.0,6.0,79,0.00,,---,0.00,0.00,VWS V14.00,2013-11-17 00:48:00,
2013-11-16 19:49:00,57.1,50.7,30.06,SSE,152,2.0,6.0,79,0.00,,---,0.00,0.00,VWS V14.00,2013-11-17 00:49:00,
2013-11-16 19:50:00,57.2,50.8,30.06,SSE,152,0.0,6.0,79,0.00,,---,0.00,0.00,VWS V14.00,2013-11-17 00:50:00,
2013-11-16 19:51:00,57.1,50.7,30.06,SSE,150,0.0,6.0,79,0.00,,---,0.00,0.00,VWS V14.00,2013-11-17 00:51:00,
2013-11-16 19:52:00,57.1,50.7,30.06,SSE,154,0.0,6.0,79,0.00,,---,0.00,0.00,VWS V14.00,2013-11-17 00:52:00,
2013-11-16 19:53:00,57.1,50.7,30.06,SSE,155,0.0,6.0,79,0.00,,---,0.00,0.00,VWS V14.00,2013-11-17 00:53:00,
2013-11-16 19:54:00,57.1,50.7,30.07,SSE,155,0.0,6.0,79,0.00,,---,0.00,0.00,VWS V14.00,2013-11-17 00:54:00,
2013-11-16 19:55:00,57.1,50.7,30.07,SSE,155,0.0,6.0,79,0.00,,---,0.00,0.00,VWS V14.00,2013-11-17 00:55:00,
2013-11-16 19:56:00,57.1,50.7,30.06,ESE,112,4.0,6.0,79,0.00,,---,0.00,0.00,VWS V14.00,2013-11-17 00:56:00,
2013-11-16 19:57:00,57.1,50.7,30.06,East,87,2.0,6.0,79,0.00,,---,0.00,0.00,VWS V14.00,2013-11-17 00:57:00,
2013-11-16 19:58:00,57.1,50.7,30.06,East,95,1.0,6.0,79,0.00,,---,0.00,0.00,VWS V14.00,2013-11-17 00:58:00,
2013-11-16 19:59:00,57.1,50.7,30.06,East,101,2.0,6.0,79,0.00,,---,0.00,0.00,VWS V14.00,2013-11-17 00:59:00,
2013-11-16 20:00:00,57.1,50.3,30.06,East,101,0.0,6.0,78,0.00,,---,0.00,0.00,VWS V14.00,2013-11-17 01:00:00,
2013-11-16 20:01:00,57.1,50.3,30.06,ESE,105,0.0,2.0,78,0.00,,---,0.00,0.00,VWS V14.00,2013-11-17 01:01:00,
2013-11-16 20:02:00,57.1,50.3,30.06,East,100,4.0,4.0,78,0.00,,---,0.00,0.00,VWS V14.00,2013-11-17 01:02:00,
2013-11-16 20:03:00,57.1,50.3,30.06,ESE,104,4.0,6.0,78,0.00,,---,0.00,0.00,VWS V14.00,2013-11-17 01:03:00,
2013-11-16 20:04:00,57.0,50.2,30.06,East,94,1.0,6.0,78,0.00,,---,0.00,0.00,VWS V14.00,2013-11-17 01:04:00,
2013-11-16 20:05:00,57.0,50.2,30.06,East,89,1.0,6.0,78,0.00,,---,0.00,0.00,VWS V14.00,2013-11-17 01:05:00,
2013-11-16 20:06:00,57.1,50.3,30.06,SE,141,1.0,6.0,78,0.00,,---,0.00,0.00,VWS V14.00,2013-11-17 01:06:00,
2013-11-16 20:07:00,57.0,50.2,30.06,SSE,163,4.0,6.0,78,0.00,,---,0.00,0.00,VWS V14.00,2013-11-17 01:07:00,
2013-11-16 20:08:00,57.0,50.2,30.06,SSE,161,0.0,6.0,78,0.00,,---,0.00,0.00,VWS V14.00,2013-11-17 01:08:00,
2013-11-16 20:09:00,57.0,50.2,30.06,SSE,162,0.0,6.0,78,0.00,,---,0.00,0.00,VWS V14.00,2013-11-17 01:09:00,
2013-11-16 20:10:00,57.0,50.2,30.06,SSE,162,0.0,6.0,78,0.00,,---,0.00,0.00,VWS V14.00,2013-11-17 01:10:00,
2013-11-16 20:11:00,57.0,50.2,30.06,SSE,159,1.0,6.0,78,0.00,,---,0.00,0.00,VWS V14.00,2013-11-17 01:11:00,
2013-11-16 20:12:00,57.0,50.2,30.06,SSE,159,0.0,6.0,78,0.00,,---,0.00,0.00,VWS V14.00,2013-11-17 01:12:00,
2013-11-16 20:13:00,57.0,50.2,30.06,SSE,158,0.0,6.0,78,0.00,,---,0.00,0.00,VWS V14.00,2013-11-17 01:13:00,
2013-11-16 20:14:00,57.0,50.2,30.06,SSE,159,0.0,6.0,78,0.00,,---,0.00,0.00,VWS V14.00,2013-11-17 01:14:00,
2013-11-16 20:15:00,57.0,50.2,30.06,SSE,159,0.0,6.0,78,0.00,,---,0.00,0.00,VWS V14.00,2013-11-17 01:15:00,
2013-11-16 20:16:00,57.0,50.2,30.06,SSE,159,0.0,6.0,78,0.00,,---,0.00,0.00,VWS V14.00,2013-11-17 01:16:00,
2013-11-16 20:17:00,57.0,50.2,30.06,SSE,157,0.0,6.0,78,0.00,,---,0.00,0.00,VWS V14.00,2013-11-17 01:17:00,
2013-11-16 20:18:00,57.0,50.2,30.05,SSE,157,0.0,6.0,78,0.00,,---,0.00,0.00,VWS V14.00,2013-11-17 01:18:00,
2013-11-16 20:19:00,57.0,50.2,30.05,SSE,157,0.0,6.0,78,0.00,,---,0.00,0.00,VWS V14.00,2013-11-17 01:19:00,
2013-11-16 20:20:00,57.0,50.2,30.05,SSE,157,0.0,6.0,78,0.00,,---,0.00,0.00,VWS V14.00,2013-11-17 01:20:00,
2013-11-16 20:21:00,56.9,50.1,30.05,East,101,1.0,6.0,78,0.00,,---,0.00,0.00,VWS V14.00,2013-11-17 01:21:00,
2013-11-16 20:22:00,56.9,50.1,30.05,ESE,104,0.0,6.0,78,0.00,,---,0.00,0.00,VWS V14.00,2013-11-17 01:22:00,
2013-11-16 20:23:00,56.8,50.0,30.05,ESE,104,1.0,6.0,78,0.00,,---,0.00,0.00,VWS V14.00,2013-11-17 01:23:00,
2013-11-16 20:24:00,56.8,50.0,30.05,ESE,104,1.0,6.0,78,0.00,,---,0.00,0.00,VWS V14.00,2013-11-17 01:24:00,
2013-11-16 20:25:00,56.7,49.9,30.05,ESE,104,0.0,6.0,78,0.00,,---,0.00,0.00,VWS V14.00,2013-11-17 01:25:00,
2013-11-16 20:26:00,56.7,49.9,30.05,ESE,104,0.0,6.0,78,0.00,,---,0.00,0.00,VWS V14.00,2013-11-17 01:26:00,
2013-11-16 20:27:00,56.6,49.8,30.05,ESE,103,2.0,6.0,78,0.00,,---,0.00,0.00,VWS V14.00,2013-11-17 01:27:00,
2013-11-16 20:28:00,56.6,49.8,30.05,ESE,108,0.0,6.0,78,0.00,,---,0.00,0.00,VWS V14.00,2013-11-17 01:28:00,
2013-11-16 20:29:00,56.6,50.2,30.05,ESE,108,0.0,6.0,79,0.00,,---,0.00,0.00,VWS V14.00,2013-11-17 01:29:00,
2013-11-16 20:30:00,56.5,50.1,30.05,ESE,108,0.0,6.0,79,0.00,,---,0.00,0.00,VWS V14.00,2013-11-17 01:30:00,
2013-11-16 20:31:00,56.5,50.1,30.05,ESE,108,0.0,0.0,79,0.00,,---,0.00,0.00,VWS V14.00,2013-11-17 01:31:00,
2013-11-16 20:32:00,56.5,50.1,30.05,ESE,109,0.0,2.0,79,0.00,,---,0.00,0.00,VWS V14.00,2013-11-17 01:32:00,
2013-11-16 20:33:00,56.4,50.0,30.05,ESE,109,2.0,2.0,79,0.00,,---,0.00,0.00,VWS V14.00,2013-11-17 01:33:00,
2013-11-16 20:34:00,56.4,50.0,30.05,ESE,109,0.0,2.0,79,0.00,,---,0.00,0.00,VWS V14.00,2013-11-17 01:34:00,
2013-11-16 20:35:00,56.4,50.0,30.05,ESE,109,0.0,2.0,79,0.00,,---,0.00,0.00,VWS V14.00,2013-11-17 01:35:00,
2013-11-16 20:36:00,56.4,50.0,30.05,ESE,109,0.0,2.0,79,0.00,,---,0.00,0.00,VWS V14.00,2013-11-17 01:36:00,
2013-11-16 20:37:00,56.4,50.0,30.05,ESE,109,0.0,2.0,79,0.00,,---,0.00,0.00,VWS V14.00,2013-11-17 01:37:00,
2013-11-16 20:38:00,56.4,50.0,30.05,ESE,109,0.0,2.0,79,0.00,,---,0.00,0.00,VWS V14.00,2013-11-17 01:38:00,
2013-11-16 20:39:00,56.3,49.9,30.05,ESE,109,0.0,2.0,79,0.00,,---,0.00,0.00,VWS V14.00,2013-11-17 01:39:00,
2013-11-16 20:40:00,56.3,49.9,30.05,ESE,109,0.0,2.0,79,0.00,,---,0.00,0.00,VWS V14.00,2013-11-17 01:40:00,
2013-11-16 20:41:00,56.2,49.8,30.05,ESE,109,0.0,2.0,79,0.00,,---,0.00,0.00,VWS V14.00,2013-11-17 01:41:00,
2013-11-16 20:42:00,56.2,49.8,30.05,ESE,109,0.0,2.0,79,0.00,,---,0.00,0.00,VWS V14.00,2013-11-17 01:42:00,
2013-11-16 20:43:00,56.1,49.7,30.05,ESE,109,0.0,2.0,79,0.00,,---,0.00,0.00,VWS V14.00,2013-11-17 01:43:00,
2013-11-16 20:44:00,56.1,49.7,30.05,ESE,109,0.0,2.0,79,0.00,,---,0.00,0.00,VWS V14.00,2013-11-17 01:44:00,
2013-11-16 20:45:00,56.1,49.7,30.05,ESE,109,0.0,2.0,79,0.00,,---,0.00,0.00,VWS V14.00,2013-11-17 01:45:00,
2013-11-16 20:46:00,56.0,49.6,30.05,ESE,109,0.0,2.0,79,0.00,,---,0.00,0.00,VWS V14.00,2013-11-17 01:46:00,
2013-11-16 20:47:00,56.0,49.6,30.05,ESE,109,0.0,2.0,79,0.00,,---,0.00,0.00,VWS V14.00,2013-11-17 01:47:00,
2013-11-16 20:48:00,56.0,49.6,30.05,ESE,109,0.0,2.0,79,0.00,,---,0.00,0.00,VWS V14.00,2013-11-17 01:48:00,
2013-11-16 20:49:00,56.0,49.6,30.05,ESE,109,0.0,2.0,79,0.00,,---,0.00,0.00,VWS V14.00,2013-11-17 01:49:00,
2013-11-16 20:50:00,55.9,49.5,30.05,ESE,109,0.0,2.0,79,0.00,,---,0.00,0.00,VWS V14.00,2013-11-17 01:50:00,
2013-11-16 20:51:00,55.9,49.5,30.05,ESE,109,0.0,2.0,79,0.00,,---,0.00,0.00,VWS V14.00,2013-11-17 01:51:00,
2013-11-16 20:52:00,55.9,49.5,30.05,ESE,109,1.0,2.0,79,0.00,,---,0.00,0.00,VWS V14.00,2013-11-17 01:52:00,
2013-11-16 20:53:00,55.9,49.5,30.04,ESE,109,0.0,2.0,79,0.00,,---,0.00,0.00,VWS V14.00,2013-11-17 01:53:00,
2013-11-16 20:54:00,55.8,49.4,30.04,ESE,109,0.0,2.0,79,0.00,,---,0.00,0.00,VWS V14.00,2013-11-17 01:54:00,
2013-11-16 20:55:00,55.8,49.7,30.04,ESE,109,0.0,2.0,80,0.00,,---,0.00,0.00,VWS V14.00,2013-11-17 01:55:00,
2013-11-16 20:56:00,55.7,49.6,30.04,ESE,109,0.0,2.0,80,0.00,,---,0.00,0.00,VWS V14.00,2013-11-17 01:56:00,
2013-11-16 20:57:00,55.7,49.6,30.04,ESE,109,0.0,2.0,80,0.00,,---,0.00,0.00,VWS V14.00,2013-11-17 01:57:00,
2013-11-16 20:58:00,55.7,49.6,30.04,ESE,109,0.0,2.0,80,0.00,,---,0.00,0.00,VWS V14.00,2013-11-17 01:58:00,
2013-11-16 20:59:00,55.6,49.5,30.04,ESE,109,2.0,2.0,80,0.00,,---,0.00,0.00,VWS V14.00,2013-11-17 01:59:00,
2013-11-16 21:00:00,55.6,49.5,30.04,ESE,109,1.0,2.0,80,0.00,,---,0.00,0.00,VWS V14.00,2013-11-17 02:00:00,
2013-11-16 21:01:00,55.6,49.5,30.04,ESE,109,0.0,4.0,80,0.00,,---,0.00,0.00,VWS V14.00,2013-11-17 02:01:00,
2013-11-16 21:02:00,55.6,49.5,30.04,East,101,1.0,4.0,80,0.00,,---,0.00,0.00,VWS V14.00,2013-11-17 02:02:00,
2013-11-16 21:03:00,55.6,49.5,30.04,ESE,102,0.0,4.0,80,0.00,,---,0.00,0.00,VWS V14.00,2013-11-17 02:03:00,
2013-11-16 21:04:00,55.6,49.5,30.04,ESE,102,0.0,4.0,80,0.00,,---,0.00,0.00,VWS V14.00,2013-11-17 02:04:00,
2013-11-16 21:05:00,55.6,49.5,30.04,ESE,102,0.0,4.0,80,0.00,,---,0.00,0.00,VWS V14.00,2013-11-17 02:05:00,
2013-11-16 21:06:00,55.6,49.5,30.04,ESE,102,0.0,4.0,80,0.00,,---,0.00,0.00,VWS V14.00,2013-11-17 02:06:00,
2013-11-16 21:07:00,55.6,49.5,30.04,ESE,102,0.0,4.0,80,0.00,,---,0.00,0.00,VWS V14.00,2013-11-17 02:07:00,
2013-11-16 21:08:00,55.7,49.6,30.04,ESE,102,0.0,4.0,80,0.00,,---,0.00,0.00,VWS V14.00,2013-11-17 02:08:00,
2013-11-16 21:09:00,55.6,49.5,30.04,ESE,102,0.0,4.0,80,0.00,,---,0.00,0.00,VWS V14.00,2013-11-17 02:09:00,
2013-11-16 21:10:00,55.6,49.5,30.03,ESE,102,0.0,4.0,80,0.00,,---,0.00,0.00,VWS V14.00,2013-11-17 02:10:00,
2013-11-16 21:11:00,55.6,49.5,30.03,ESE,102,0.0,4.0,80,0.00,,---,0.00,0.00,VWS V14.00,2013-11-17 02:11:00,
2013-11-16 21:12:00,55.6,49.5,30.03,ESE,102,0.0,4.0,80,0.00,,---,0.00,0.00,VWS V14.00,2013-11-17 02:12:00,
2013-11-16 21:13:00,55.6,49.5,30.03,ESE,102,0.0,4.0,80,0.00,,---,0.00,0.00,VWS V14.00,2013-11-17 02:13:00,
2013-11-16 21:14:00,55.5,49.4,30.03,ESE,102,0.0,4.0,80,0.00,,---,0.00,0.00,VWS V14.00,2013-11-17 02:14:00,
2013-11-16 21:15:00,55.5,49.4,30.03,East,100,1.0,4.0,80,0.00,,---,0.00,0.00,VWS V14.00,2013-11-17 02:15:00,
2013-11-16 21:16:00,55.5,49.4,30.03,ESE,113,1.0,4.0,80,0.00,,---,0.00,0.00,VWS V14.00,2013-11-17 02:16:00,
2013-11-16 21:17:00,55.6,49.5,30.03,ESE,113,0.0,4.0,80,0.00,,---,0.00,0.00,VWS V14.00,2013-11-17 02:17:00,
2013-11-16 21:18:00,55.6,49.5,30.03,ESE,113,0.0,4.0,80,0.00,,---,0.00,0.00,VWS V14.00,2013-11-17 02:18:00,
2013-11-16 21:19:00,55.6,49.5,30.03,ESE,113,2.0,4.0,80,0.00,,---,0.00,0.00,VWS V14.00,2013-11-17 02:19:00,
2013-11-16 21:20:00,55.6,49.5,30.03,ESE,113,0.0,4.0,80,0.00,,---,0.00,0.00,VWS V14.00,2013-11-17 02:20:00,
2013-11-16 21:21:00,55.6,49.5,30.03,ESE,113,0.0,4.0,80,0.00,,---,0.00,0.00,VWS V14.00,2013-11-17 02:21:00,
2013-11-16 21:22:00,55.6,49.5,30.03,ESE,113,1.0,4.0,80,0.00,,---,0.00,0.00,VWS V14.00,2013-11-17 02:22:00,
2013-11-16 21:23:00,55.6,49.5,30.03,ESE,113,0.0,4.0,80,0.00,,---,0.00,0.00,VWS V14.00,2013-11-17 02:23:00,
2013-11-16 21:24:00,55.7,49.6,30.03,ESE,113,0.0,4.0,80,0.00,,---,0.00,0.00,VWS V14.00,2013-11-17 02:24:00,
2013-11-16 21:25:00,55.7,49.6,30.03,ESE,113,0.0,4.0,80,0.00,,---,0.00,0.00,VWS V14.00,2013-11-17 02:25:00,
2013-11-16 21:26:00,55.7,49.6,30.03,ESE,113,0.0,4.0,80,0.00,,---,0.00,0.00,VWS V14.00,2013-11-17 02:26:00,
2013-11-16 21:27:00,55.6,49.5,30.03,ESE,113,0.0,4.0,80,0.00,,---,0.00,0.00,VWS V14.00,2013-11-17 02:27:00,
2013-11-16 21:28:00,55.6,49.2,30.03,ESE,113,0.0,4.0,79,0.00,,---,0.00,0.00,VWS V14.00,2013-11-17 02:28:00,
2013-11-16 21:29:00,55.5,49.1,30.03,ESE,113,0.0,4.0,79,0.00,,---,0.00,0.00,VWS V14.00,2013-11-17 02:29:00,
2013-11-16 21:30:00,55.5,49.1,30.03,ESE,113,0.0,4.0,79,0.00,,---,0.00,0.00,VWS V14.00,2013-11-17 02:30:00,
2013-11-16 21:31:00,55.4,49.0,30.03,ESE,113,0.0,0.0,79,0.00,,---,0.00,0.00,VWS V14.00,2013-11-17 02:31:00,
2013-11-16 21:32:00,55.4,49.0,30.03,ESE,113,0.0,0.0,79,0.00,,---,0.00,0.00,VWS V14.00,2013-11-17 02:32:00,
2013-11-16 21:33:00,55.3,48.9,30.03,ESE,113,0.0,0.0,79,0.00,,---,0.00,0.00,VWS V14.00,2013-11-17 02:33:00,
2013-11-16 21:34:00,55.2,48.8,30.03,ESE,113,0.0,0.0,79,0.00,,---,0.00,0.00,VWS V14.00,2013-11-17 02:34:00,
2013-11-16 21:35:00,55.1,48.7,30.03,ESE,113,0.0,0.0,79,0.00,,---,0.00,0.00,VWS V14.00,2013-11-17 02:35:00,
2013-11-16 21:36:00,55.0,48.6,30.03,ESE,113,0.0,0.0,79,0.00,,---,0.00,0.00,VWS V14.00,2013-11-17 02:36:00,
2013-11-16 21:37:00,54.9,48.9,30.03,ESE,113,0.0,0.0,80,0.00,,---,0.00,0.00,VWS V14.00,2013-11-17 02:37:00,
2013-11-16 21:38:00,54.8,48.8,30.03,ESE,113,0.0,0.0,80,0.00,,---,0.00,0.00,VWS V14.00,2013-11-17 02:38:00,
2013-11-16 21:39:00,54.7,48.7,30.03,ESE,113,0.0,0.0,80,0.00,,---,0.00,0.00,VWS V14.00,2013-11-17 02:39:00,
2013-11-16 21:40:00,54.6,48.6,30.03,ESE,113,0.0,0.0,80,0.00,,---,0.00,0.00,VWS V14.00,2013-11-17 02:40:00,
2013-11-16 21:41:00,54.5,48.5,30.03,ESE,113,0.0,0.0,80,0.00,,---,0.00,0.00,VWS V14.00,2013-11-17 02:41:00,
2013-11-16 21:42:00,54.4,48.4,30.03,ESE,113,0.0,0.0,80,0.00,,---,0.00,0.00,VWS V14.00,2013-11-17 02:42:00,
2013-11-16 21:43:00,54.3,48.6,30.03,ESE,113,0.0,0.0,81,0.00,,---,0.00,0.00,VWS V14.00,2013-11-17 02:43:00,
2013-11-16 21:44:00,54.2,48.5,30.03,ESE,113,0.0,0.0,81,0.00,,---,0.00,0.00,VWS V14.00,2013-11-17 02:44:00,
2013-11-16 21:45:00,54.1,48.4,30.03,ESE,113,0.0,0.0,81,0.00,,---,0.00,0.00,VWS V14.00,2013-11-17 02:45:00,
2013-11-16 21:46:00,54.1,48.4,30.03,ESE,113,0.0,0.0,81,0.00,,---,0.00,0.00,VWS V14.00,2013-11-17 02:46:00,
2013-11-16 21:47:00,54.0,48.3,30.03,ESE,113,0.0,0.0,81,0.00,,---,0.00,0.00,VWS V14.00,2013-11-17 02:47:00,
2013-11-16 21:48:00,54.0,48.6,30.03,ESE,113,0.0,0.0,82,0.00,,---,0.00,0.00,VWS V14.00,2013-11-17 02:48:00,
2013-11-16 21:49:00,53.9,48.5,30.03,ESE,113,0.0,0.0,82,0.00,,---,0.00,0.00,VWS V14.00,2013-11-17 02:49:00,
2013-11-16 21:50:00,53.9,48.5,30.03,ESE,113,0.0,0.0,82,0.00,,---,0.00,0.00,VWS V14.00,2013-11-17 02:50:00,
2013-11-16 21:51:00,53.8,48.4,30.03,ESE,113,0.0,0.0,82,0.00,,---,0.00,0.00,VWS V14.00,2013-11-17 02:51:00,
2013-11-16 21:52:00,53.8,48.4,30.03,ESE,113,0.0,0.0,82,0.00,,---,0.00,0.00,VWS V14.00,2013-11-17 02:52:00,
2013-11-16 21:53:00,53.7,48.3,30.03,ESE,113,0.0,0.0,82,0.00,,---,0.00,0.00,VWS V14.00,2013-11-17 02:53:00,
2013-11-16 21:54:00,53.7,48.3,30.03,ESE,113,0.0,0.0,82,0.00,,---,0.00,0.00,VWS V14.00,2013-11-17 02:54:00,
2013-11-16 21:55:00,53.7,48.3,30.03,ESE,113,0.0,0.0,82,0.00,,---,0.00,0.00,VWS V14.00,2013-11-17 02:55:00,
2013-11-16 21:56:00,53.6,48.2,30.03,ESE,113,0.0,0.0,82,0.00,,---,0.00,0.00,VWS V14.00,2013-11-17 02:56:00,
2013-11-16 21:57:00,53.6,48.6,30.03,ESE,113,0.0,0.0,83,0.00,,---,0.00,0.00,VWS V14.00,2013-11-17 02:57:00,
2013-11-16 21:58:00,53.6,48.6,30.03,ESE,113,0.0,0.0,83,0.00,,---,0.00,0.00,VWS V14.00,2013-11-17 02:58:00,
2013-11-16 21:59:00,53.5,48.5,30.03,ESE,113,0.0,0.0,83,0.00,,---,0.00,0.00,VWS V14.00,2013-11-17 02:59:00,
2013-11-16 22:00:00,53.5,48.5,30.03,ESE,113,0.0,0.0,83,0.00,,---,0.00,0.00,VWS V14.00,2013-11-17 03:00:00,
2013-11-16 22:01:00,53.5,48.5,30.03,ESE,113,0.0,0.0,83,0.00,,---,0.00,0.00,VWS V14.00,2013-11-17 03:01:00,
2013-11-16 22:02:00,53.5,48.5,30.03,ESE,113,0.0,0.0,83,0.00,,---,0.00,0.00,VWS V14.00,2013-11-17 03:02:00,
2013-11-16 22:03:00,53.4,48.4,30.03,ESE,113,0.0,0.0,83,0.00,,---,0.00,0.00,VWS V14.00,2013-11-17 03:03:00,
2013-11-16 22:04:00,53.4,48.4,30.03,ESE,113,0.0,0.0,83,0.00,,---,0.00,0.00,VWS V14.00,2013-11-17 03:04:00,
2013-11-16 22:05:00,53.4,48.4,30.02,ESE,113,0.0,0.0,83,0.00,,---,0.00,0.00,VWS V14.00,2013-11-17 03:05:00,
2013-11-16 22:06:00,53.5,48.8,30.02,ESE,113,0.0,0.0,84,0.00,,---,0.00,0.00,VWS V14.00,2013-11-17 03:06:00,
2013-11-16 22:07:00,53.5,48.8,30.02,ESE,113,0.0,0.0,84,0.00,,---,0.00,0.00,VWS V14.00,2013-11-17 03:07:00,
2013-11-16 22:08:00,53.5,48.8,30.02,ESE,113,0.0,1.0,84,0.00,,---,0.00,0.00,VWS V14.00,2013-11-17 03:08:00,
2013-11-16 22:09:00,53.5,48.8,30.02,ESE,113,0.0,1.0,84,0.00,,---,0.00,0.00,VWS V14.00,2013-11-17 03:09:00,
2013-11-16 22:10:00,53.6,48.9,30.02,ESE,113,1.0,1.0,84,0.00,,---,0.00,0.00,VWS V14.00,2013-11-17 03:10:00,
2013-11-16 22:11:00,53.6,48.6,30.02,ESE,113,0.0,1.0,83,0.00,,---,0.00,0.00,VWS V14.00,2013-11-17 03:11:00,
2013-11-16 22:12:00,53.7,48.7,30.02,ESE,113,0.0,1.0,83,0.00,,---,0.00,0.00,VWS V14.00,2013-11-17 03:12:00,
2013-11-16 22:13:00,53.8,48.8,30.02,ESE,113,0.0,1.0,83,0.00,,---,0.00,0.00,VWS V14.00,2013-11-17 03:13:00,
2013-11-16 22:14:00,53.8,48.8,30.02,ESE,113,0.0,1.0,83,0.00,,---,0.00,0.00,VWS V14.00,2013-11-17 03:14:00,
2013-11-16 22:15:00,53.9,48.9,30.02,ESE,113,0.0,1.0,83,0.00,,---,0.00,0.00,VWS V14.00,2013-11-17 03:15:00,
2013-11-16 22:16:00,54.0,49.0,30.02,ESE,113,0.0,1.0,83,0.00,,---,0.00,0.00,VWS V14.00,2013-11-17 03:16:00,
2013-11-16 22:17:00,54.0,49.0,30.02,ESE,113,0.0,1.0,83,0.00,,---,0.00,0.00,VWS V14.00,2013-11-17 03:17:00,
2013-11-16 22:18:00,54.0,49.0,30.02,ESE,113,0.0,1.0,83,0.00,,---,0.00,0.00,VWS V14.00,2013-11-17 03:18:00,
2013-11-16 22:19:00,54.1,49.1,30.02,ESE,113,0.0,1.0,83,0.00,,---,0.00,0.00,VWS V14.00,2013-11-17 03:19:00,
2013-11-16 22:20:00,54.1,49.1,30.02,ESE,113,0.0,1.0,83,0.00,,---,0.00,0.00,VWS V14.00,2013-11-17 03:20:00,
2013-11-16 22:21:00,54.2,49.2,30.02,ESE,113,0.0,1.0,83,0.00,,---,0.00,0.00,VWS V14.00,2013-11-17 03:21:00,
2013-11-16 22:22:00,54.2,48.8,30.02,ESE,113,0.0,1.0,82,0.00,,---,0.00,0.00,VWS V14.00,2013-11-17 03:22:00,
2013-11-16 22:23:00,54.3,48.9,30.02,ESE,113,0.0,1.0,82,0.00,,---,0.00,0.00,VWS V14.00,2013-11-17 03:23:00,
2013-11-16 22:24:00,54.3,48.9,30.02,ESE,113,0.0,1.0,82,0.00,,---,0.00,0.00,VWS V14.00,2013-11-17 03:24:00,
2013-11-16 22:25:00,54.4,49.0,30.02,ESE,113,0.0,1.0,82,0.00,,---,0.00,0.00,VWS V14.00,2013-11-17 03:25:00,
2013-11-16 22:26:00,54.4,49.0,30.02,ESE,113,0.0,1.0,82,0.00,,---,0.00,0.00,VWS V14.00,2013-11-17 03:26:00,
2013-11-16 22:27:00,54.5,49.1,30.02,ESE,113,0.0,1.0,82,0.00,,---,0.00,0.00,VWS V14.00,2013-11-17 03:27:00,
2013-11-16 22:28:00,54.5,49.1,30.02,ESE,113,0.0,1.0,82,0.00,,---,0.00,0.00,VWS V14.00,2013-11-17 03:28:00,
2013-11-16 22:29:00,54.6,49.2,30.02,ESE,113,0.0,1.0,82,0.00,,---,0.00,0.00,VWS V14.00,2013-11-17 03:29:00,
2013-11-16 22:30:00,54.6,49.2,30.02,ESE,113,0.0,1.0,82,0.00,,---,0.00,0.00,VWS V14.00,2013-11-17 03:30:00,
2013-11-16 22:31:00,54.7,49.3,30.02,ESE,113,0.0,0.0,82,0.00,,---,0.00,0.00,VWS V14.00,2013-11-17 03:31:00,
2013-11-16 22:32:00,54.7,49.0,30.02,ESE,113,0.0,0.0,81,0.00,,---,0.00,0.00,VWS V14.00,2013-11-17 03:32:00,
2013-11-16 22:33:00,54.8,49.1,30.02,ESE,113,0.0,0.0,81,0.00,,---,0.00,0.00,VWS V14.00,2013-11-17 03:33:00,
2013-11-16 22:34:00,54.8,49.1,30.02,ESE,113,0.0,0.0,81,0.00,,---,0.00,0.00,VWS V14.00,2013-11-17 03:34:00,
2013-11-16 22:35:00,54.8,49.1,30.02,ESE,113,0.0,0.0,81,0.00,,---,0.00,0.00,VWS V14.00,2013-11-17 03:35:00,
2013-11-16 22:36:00,54.9,49.2,30.02,ESE,113,0.0,0.0,81,0.00,,---,0.00,0.00,VWS V14.00,2013-11-17 03:36:00,
2013-11-16 22:37:00,54.9,49.2,30.02,ESE,113,0.0,0.0,81,0.00,,---,0.00,0.00,VWS V14.00,2013-11-17 03:37:00,
2013-11-16 22:38:00,55.0,49.3,30.02,ESE,113,0.0,0.0,81,0.00,,---,0.00,0.00,VWS V14.00,2013-11-17 03:38:00,
2013-11-16 22:39:00,55.0,49.3,30.02,ESE,113,0.0,0.0,81,0.00,,---,0.00,0.00,VWS V14.00,2013-11-17 03:39:00,
2013-11-16 22:40:00,55.0,49.3,30.02,ESE,113,0.0,0.0,81,0.00,,---,0.00,0.00,VWS V14.00,2013-11-17 03:40:00,
2013-11-16 22:41:00,55.1,49.0,30.02,ESE,113,0.0,0.0,80,0.00,,---,0.00,0.00,VWS V14.00,2013-11-17 03:41:00,
2013-11-16 22:42:00,55.1,49.4,30.02,ESE,113,0.0,0.0,81,0.00,,---,0.00,0.00,VWS V14.00,2013-11-17 03:42:00,
2013-11-16 22:43:00,55.1,49.0,30.02,ESE,113,0.0,0.0,80,0.00,,---,0.00,0.00,VWS V14.00,2013-11-17 03:43:00,
2013-11-16 22:44:00,55.1,49.0,30.02,ESE,113,0.0,0.0,80,0.00,,---,0.00,0.00,VWS V14.00,2013-11-17 03:44:00,
2013-11-16 22:45:00,55.2,49.2,30.02,ESE,113,0.0,0.0,80,0.00,,---,0.00,0.00,VWS V14.00,2013-11-17 03:45:00,
2013-11-16 22:46:00,55.2,49.2,30.02,ESE,113,0.0,0.0,80,0.00,,---,0.00,0.00,VWS V14.00,2013-11-17 03:46:00,
2013-11-16 22:47:00,55.2,49.2,30.02,ESE,113,0.0,0.0,80,0.00,,---,0.00,0.00,VWS V14.00,2013-11-17 03:47:00,
2013-11-16 22:48:00,55.2,49.2,30.02,ESE,113,0.0,0.0,80,0.00,,---,0.00,0.00,VWS V14.00,2013-11-17 03:48:00,
2013-11-16 22:49:00,55.3,49.2,30.01,ESE,113,0.0,0.0,80,0.00,,---,0.00,0.00,VWS V14.00,2013-11-17 03:49:00,
2013-11-16 22:50:00,55.3,49.2,30.01,ESE,113,0.0,0.0,80,0.00,,---,0.00,0.00,VWS V14.00,2013-11-17 03:50:00,
2013-11-16 22:51:00,55.3,49.2,30.01,ESE,113,0.0,0.0,80,0.00,,---,0.00,0.00,VWS V14.00,2013-11-17 03:51:00,
2013-11-16 22:52:00,55.3,49.2,30.02,ESE,113,0.0,0.0,80,0.00,,---,0.00,0.00,VWS V14.00,2013-11-17 03:52:00,
2013-11-16 22:53:00,55.3,49.2,30.02,ESE,113,0.0,0.0,80,0.00,,---,0.00,0.00,VWS V14.00,2013-11-17 03:53:00,
2013-11-16 22:54:00,55.3,49.2,30.02,ESE,113,0.0,0.0,80,0.00,,---,0.00,0.00,VWS V14.00,2013-11-17 03:54:00,
2013-11-16 22:55:00,55.3,49.2,30.02,ESE,113,0.0,0.0,80,0.00,,---,0.00,0.00,VWS V14.00,2013-11-17 03:55:00,
2013-11-16 22:56:00,55.3,49.2,30.01,ESE,113,0.0,1.0,80,0.00,,---,0.00,0.00,VWS V14.00,2013-11-17 03:56:00,
2013-11-16 22:57:00,55.3,49.2,30.02,ESE,113,0.0,1.0,80,0.00,,---,0.00,0.00,VWS V14.00,2013-11-17 03:57:00,
2013-11-16 22:58:00,55.3,49.2,30.02,ESE,113,0.0,1.0,80,0.00,,---,0.00,0.00,VWS V14.00,2013-11-17 03:58:00,
2013-11-16 22:59:00,55.3,49.2,30.01,ESE,113,0.0,1.0,80,0.00,,---,0.00,0.00,VWS V14.00,2013-11-17 03:59:00,
2013-11-16 23:00:00,55.4,49.3,30.02,ESE,113,2.0,2.0,80,0.00,,---,0.00,0.00,VWS V14.00,2013-11-17 04:00:00,
2013-11-16 23:01:00,55.4,49.3,30.02,ESE,113,0.0,2.0,80,0.00,,---,0.00,0.00,VWS V14.00,2013-11-17 04:01:00,
2013-11-16 23:02:00,55.5,49.1,30.02,ESE,113,0.0,2.0,79,0.00,,---,0.00,0.00,VWS V14.00,2013-11-17 04:02:00,
2013-11-16 23:03:00,55.5,49.1,30.02,ESE,113,0.0,2.0,79,0.00,,---,0.00,0.00,VWS V14.00,2013-11-17 04:03:00,
2013-11-16 23:04:00,55.6,49.2,30.01,ESE,113,0.0,2.0,79,0.00,,---,0.00,0.00,VWS V14.00,2013-11-17 04:04:00,
2013-11-16 23:05:00,55.6,49.2,30.02,ESE,113,0.0,2.0,79,0.00,,---,0.00,0.00,VWS V14.00,2013-11-17 04:05:00,
2013-11-16 23:06:00,55.7,49.3,30.02,ESE,113,0.0,2.0,79,0.00,,---,0.00,0.00,VWS V14.00,2013-11-17 04:06:00,
2013-11-16 23:07:00,55.7,49.3,30.02,ESE,113,0.0,2.0,79,0.00,,---,0.00,0.00,VWS V14.00,2013-11-17 04:07:00,
2013-11-16 23:08:00,55.7,49.0,30.02,ESE,113,0.0,2.0,78,0.00,,---,0.00,0.00,VWS V14.00,2013-11-17 04:08:00,
2013-11-16 23:09:00,55.7,49.0,30.02,ESE,113,0.0,2.0,78,0.00,,---,0.00,0.00,VWS V14.00,2013-11-17 04:09:00,
2013-11-16 23:10:00,55.6,48.9,30.02,ESE,113,0.0,2.0,78,0.00,,---,0.00,0.00,VWS V14.00,2013-11-17 04:10:00,
2013-11-16 23:11:00,55.6,48.9,30.02,ESE,113,0.0,2.0,78,0.00,,---,0.00,0.00,VWS V14.00,2013-11-17 04:11:00,
2013-11-16 23:12:00,55.5,48.8,30.02,ESE,113,0.0,2.0,78,0.00,,---,0.00,0.00,VWS V14.00,2013-11-17 04:12:00,
2013-11-16 23:13:00,55.5,48.8,30.02,ESE,113,0.0,2.0,78,0.00,,---,0.00,0.00,VWS V14.00,2013-11-17 04:13:00,
2013-11-16 23:14:00,55.4,48.7,30.02,ESE,113,0.0,2.0,78,0.00,,---,0.00,0.00,VWS V14.00,2013-11-17 04:14:00,
2013-11-16 23:15:00,55.4,48.7,30.02,ESE,113,0.0,2.0,78,0.00,,---,0.00,0.00,VWS V14.00,2013-11-17 04:15:00,
2013-11-16 23:16:00,55.3,48.9,30.01,ESE,113,0.0,2.0,79,0.00,,---,0.00,0.00,VWS V14.00,2013-11-17 04:16:00,
2013-11-16 23:17:00,55.3,48.9,30.01,ESE,113,0.0,2.0,79,0.00,,---,0.00,0.00,VWS V14.00,2013-11-17 04:17:00,
2013-11-16 23:18:00,55.2,48.8,30.02,ESE,113,0.0,2.0,79,0.00,,---,0.00,0.00,VWS V14.00,2013-11-17 04:18:00,
2013-11-16 23:19:00,55.2,48.8,30.02,ESE,113,0.0,2.0,79,0.00,,---,0.00,0.00,VWS V14.00,2013-11-17 04:19:00,
2013-11-16 23:20:00,55.2,48.8,30.02,ESE,113,0.0,2.0,79,0.00,,---,0.00,0.00,VWS V14.00,2013-11-17 04:20:00,
2013-11-16 23:21:00,55.2,48.8,30.02,ESE,113,0.0,2.0,79,0.00,,---,0.00,0.00,VWS V14.00,2013-11-17 04:21:00,
2013-11-16 23:22:00,55.2,48.8,30.02,ESE,113,0.0,2.0,79,0.00,,---,0.00,0.00,VWS V14.00,2013-11-17 04:22:00,
2013-11-16 23:23:00,55.2,48.8,30.02,ESE,113,0.0,2.0,79,0.00,,---,0.00,0.00,VWS V14.00,2013-11-17 04:23:00,
2013-11-16 23:24:00,55.2,48.8,30.02,ESE,113,0.0,2.0,79,0.00,,---,0.00,0.00,VWS V14.00,2013-11-17 04:24:00,
2013-11-16 23:25:00,55.3,48.9,30.02,ESE,113,0.0,2.0,79,0.00,,---,0.00,0.00,VWS V14.00,2013-11-17 04:25:00,
2013-11-16 23:26:00,55.3,48.9,30.02,ESE,113,0.0,2.0,79,0.00,,---,0.00,0.00,VWS V14.00,2013-11-17 04:26:00,
2013-11-16 23:27:00,55.3,48.9,30.02,ESE,113,0.0,2.0,79,0.00,,---,0.00,0.00,VWS V14.00,2013-11-17 04:27:00,
2013-11-16 23:28:00,55.3,48.9,30.02,ESE,113,0.0,2.0,79,0.00,,---,0.00,0.00,VWS V14.00,2013-11-17 04:28:00,
2013-11-16 23:29:00,55.4,49.0,30.02,ESE,113,0.0,2.0,79,0.00,,---,0.00,0.00,VWS V14.00,2013-11-17 04:29:00,
2013-11-16 23:30:00,55.4,49.0,30.02,ESE,113,0.0,2.0,79,0.00,,---,0.00,0.00,VWS V14.00,2013-11-17 04:30:00,
2013-11-16 23:31:00,55.4,48.7,30.02,ESE,113,0.0,0.0,78,0.00,,---,0.00,0.00,VWS V14.00,2013-11-17 04:31:00,
2013-11-16 23:32:00,55.5,49.1,30.02,ESE,113,0.0,0.0,79,0.00,,---,0.00,0.00,VWS V14.00,2013-11-17 04:32:00,
2013-11-16 23:33:00,55.5,49.1,30.02,ESE,113,0.0,0.0,79,0.00,,---,0.00,0.00,VWS V14.00,2013-11-17 04:33:00,
2013-11-16 23:34:00,55.5,48.8,30.02,ESE,113,0.0,0.0,78,0.00,,---,0.00,0.00,VWS V14.00,2013-11-17 04:34:00,
2013-11-16 23:35:00,55.5,48.8,30.02,ESE,113,0.0,0.0,78,0.00,,---,0.00,0.00,VWS V14.00,2013-11-17 04:35:00,
2013-11-16 23:36:00,55.5,48.8,30.02,ESE,113,0.0,0.0,78,0.00,,---,0.00,0.00,VWS V14.00,2013-11-17 04:36:00,
2013-11-16 23:37:00,55.5,48.8,30.02,ESE,113,0.0,0.0,78,0.00,,---,0.00,0.00,VWS V14.00,2013-11-17 04:37:00,
2013-11-16 23:38:00,55.5,48.8,30.02,ESE,113,0.0,0.0,78,0.00,,---,0.00,0.00,VWS V14.00,2013-11-17 04:38:00,
2013-11-16 23:39:00,55.4,48.7,30.02,ESE,113,0.0,0.0,78,0.00,,---,0.00,0.00,VWS V14.00,2013-11-17 04:39:00,
2013-11-16 23:40:00,55.4,48.7,30.02,ESE,113,0.0,0.0,78,0.00,,---,0.00,0.00,VWS V14.00,2013-11-17 04:40:00,
2013-11-16 23:41:00,55.4,48.7,30.01,ESE,113,0.0,0.0,78,0.00,,---,0.00,0.00,VWS V14.00,2013-11-17 04:41:00,
2013-11-16 23:42:00,55.3,48.6,30.01,ESE,113,0.0,0.0,78,0.00,,---,0.00,0.00,VWS V14.00,2013-11-17 04:42:00,
2013-11-16 23:43:00,55.3,48.6,30.01,ESE,113,0.0,0.0,78,0.00,,---,0.00,0.00,VWS V14.00,2013-11-17 04:43:00,
2013-11-16 23:44:00,55.3,48.6,30.01,ESE,113,0.0,0.0,78,0.00,,---,0.00,0.00,VWS V14.00,2013-11-17 04:44:00,
2013-11-16 23:45:00,55.2,48.5,30.01,ESE,113,0.0,0.0,78,0.00,,---,0.00,0.00,VWS V14.00,2013-11-17 04:45:00,
2013-11-16 23:46:00,55.2,48.5,30.01,ESE,113,0.0,0.0,78,0.00,,---,0.00,0.00,VWS V14.00,2013-11-17 04:46:00,
2013-11-16 23:47:00,55.2,48.5,30.01,ESE,113,0.0,0.0,78,0.00,,---,0.00,0.00,VWS V14.00,2013-11-17 04:47:00,
2013-11-16 23:48:00,55.2,48.5,30.01,ESE,113,0.0,0.0,78,0.00,,---,0.00,0.00,VWS V14.00,2013-11-17 04:48:00,
2013-11-16 23:49:00,55.2,48.8,30.01,ESE,113,0.0,0.0,79,0.00,,---,0.00,0.00,VWS V14.00,2013-11-17 04:49:00,
2013-11-16 23:50:00,55.2,48.8,30.01,ESE,113,0.0,0.0,79,0.00,,---,0.00,0.00,VWS V14.00,2013-11-17 04:50:00,
2013-11-16 23:51:00,55.1,48.4,30.01,ESE,113,0.0,0.0,78,0.00,,---,0.00,0.00,VWS V14.00,2013-11-17 04:51:00,
2013-11-16 23:52:00,55.1,48.7,30.01,ESE,113,0.0,0.0,79,0.00,,---,0.00,0.00,VWS V14.00,2013-11-17 04:52:00,
2013-11-16 23:53:00,55.1,48.7,30.01,ESE,113,0.0,0.0,79,0.00,,---,0.00,0.00,VWS V14.00,2013-11-17 04:53:00,
2013-11-16 23:54:00,55.1,48.4,30.01,ESE,113,0.0,0.0,78,0.00,,---,0.00,0.00,VWS V14.00,2013-11-17 04:54:00,
2013-11-16 23:55:00,55.1,48.4,30.01,ESE,113,0.0,0.0,78,0.00,,---,0.00,0.00,VWS V14.00,2013-11-17 04:55:00,
2013-11-16 23:56:00,55.1,48.4,30.01,ESE,113,0.0,0.0,78,0.00,,---,0.00,0.00,VWS V14.00,2013-11-17 04:56:00,
2013-11-16 23:57:00,55.0,48.3,30.01,ESE,113,0.0,0.0,78,0.00,,---,0.00,0.00,VWS V14.00,2013-11-17 04:57:00,
2013-11-16 23:58:00,55.0,48.6,30.01,ESE,113,0.0,0.0,79,0.00,,---,0.00,0.00,VWS V14.00,2013-11-17 04:58:00,
2013-11-16 23:59:00,55.0,48.6,30.01,ESE,113,0.0,0.0,79,0.00,,---,0.00,0.00,VWS V14.00,2013-11-17 04:59:00,